<?xml version="1.0" encoding="UTF-8" standalone="no" ?>
<gpx xmlns="http://www.topografix.com/GPX/1/1" xmlns:xsi="http://www.w3.org/2001/XMLSchema-instance" xsi:schemaLocation="http://www.topografix.com/GPX/1/1 http://www.topografix.com/GPX/1/1/gpx.xsd" version="1.1" creator="VisuGPX - https://www.visugpx.com">
  <metadata>
    <name>151007ROBBenjamins</name>
    <desc><![CDATA[tres bonnz sortie]]></desc>
  </metadata>
  <trk>
    <name><![CDATA[151007ROBBenjamins]]></name>
    <trkseg>
      <trkpt lat="43.41578" lon="6.07032">
        <ele>203.60000610352</ele>
        <time>2015-10-07T12:03:35Z</time>
      </trkpt>
      <trkpt lat="43.41578" lon="6.07033">
        <ele>203.80000305176</ele>
        <time>2015-10-07T12:03:36Z</time>
      </trkpt>
      <trkpt lat="43.41584" lon="6.07041">
        <ele>203.80000305176</ele>
        <time>2015-10-07T12:03:44Z</time>
      </trkpt>
      <trkpt lat="43.41583" lon="6.0704">
        <ele>204.60000610352</ele>
        <time>2015-10-07T12:04:03Z</time>
      </trkpt>
      <trkpt lat="43.41584" lon="6.07041">
        <ele>204.39999389648</ele>
        <time>2015-10-07T12:04:11Z</time>
      </trkpt>
      <trkpt lat="43.41584" lon="6.07042">
        <ele>204.19999694824</ele>
        <time>2015-10-07T12:04:16Z</time>
      </trkpt>
      <trkpt lat="43.41584" lon="6.0705">
        <ele>203.19999694824</ele>
        <time>2015-10-07T12:04:26Z</time>
      </trkpt>
      <trkpt lat="43.41584" lon="6.07066">
        <ele>203</ele>
        <time>2015-10-07T12:04:31Z</time>
      </trkpt>
      <trkpt lat="43.41586" lon="6.07087">
        <ele>203.19999694824</ele>
        <time>2015-10-07T12:04:36Z</time>
      </trkpt>
      <trkpt lat="43.41584" lon="6.07106">
        <ele>203.60000610352</ele>
        <time>2015-10-07T12:04:40Z</time>
      </trkpt>
      <trkpt lat="43.41582" lon="6.07108">
        <ele>203.80000305176</ele>
        <time>2015-10-07T12:04:41Z</time>
      </trkpt>
      <trkpt lat="43.41571" lon="6.07116">
        <ele>204</ele>
        <time>2015-10-07T12:04:45Z</time>
      </trkpt>
      <trkpt lat="43.41567" lon="6.07117">
        <ele>203.80000305176</ele>
        <time>2015-10-07T12:04:46Z</time>
      </trkpt>
      <trkpt lat="43.41559" lon="6.07118">
        <ele>203.19999694824</ele>
        <time>2015-10-07T12:04:48Z</time>
      </trkpt>
      <trkpt lat="43.41552" lon="6.07114">
        <ele>203.19999694824</ele>
        <time>2015-10-07T12:04:50Z</time>
      </trkpt>
      <trkpt lat="43.4155" lon="6.0711">
        <ele>203.60000610352</ele>
        <time>2015-10-07T12:04:51Z</time>
      </trkpt>
      <trkpt lat="43.4155" lon="6.07094">
        <ele>203.80000305176</ele>
        <time>2015-10-07T12:04:54Z</time>
      </trkpt>
      <trkpt lat="43.41549" lon="6.07089">
        <ele>204</ele>
        <time>2015-10-07T12:04:55Z</time>
      </trkpt>
      <trkpt lat="43.41541" lon="6.07078">
        <ele>203.39999389648</ele>
        <time>2015-10-07T12:04:58Z</time>
      </trkpt>
      <trkpt lat="43.41536" lon="6.07078">
        <ele>203</ele>
        <time>2015-10-07T12:04:59Z</time>
      </trkpt>
      <trkpt lat="43.4152" lon="6.07081">
        <ele>202.39999389648</ele>
        <time>2015-10-07T12:05:02Z</time>
      </trkpt>
      <trkpt lat="43.41515" lon="6.07082">
        <ele>202.39999389648</ele>
        <time>2015-10-07T12:05:03Z</time>
      </trkpt>
      <trkpt lat="43.41504" lon="6.07084">
        <ele>202.19999694824</ele>
        <time>2015-10-07T12:05:05Z</time>
      </trkpt>
      <trkpt lat="43.41488" lon="6.0708">
        <ele>202</ele>
        <time>2015-10-07T12:05:08Z</time>
      </trkpt>
      <trkpt lat="43.41484" lon="6.07078">
        <ele>202</ele>
        <time>2015-10-07T12:05:09Z</time>
      </trkpt>
      <trkpt lat="43.41481" lon="6.07077">
        <ele>202</ele>
        <time>2015-10-07T12:05:10Z</time>
      </trkpt>
      <trkpt lat="43.41474" lon="6.07076">
        <ele>202.19999694824</ele>
        <time>2015-10-07T12:05:12Z</time>
      </trkpt>
      <trkpt lat="43.41468" lon="6.07072">
        <ele>201.39999389648</ele>
        <time>2015-10-07T12:05:16Z</time>
      </trkpt>
      <trkpt lat="43.41467" lon="6.07071">
        <ele>201.19999694824</ele>
        <time>2015-10-07T12:05:21Z</time>
      </trkpt>
      <trkpt lat="43.41465" lon="6.0707">
        <ele>200.80000305176</ele>
        <time>2015-10-07T12:05:28Z</time>
      </trkpt>
      <trkpt lat="43.41465" lon="6.0707">
        <ele>200.80000305176</ele>
        <time>2015-10-07T12:05:33Z</time>
      </trkpt>
      <trkpt lat="43.41462" lon="6.07071">
        <ele>200.80000305176</ele>
        <time>2015-10-07T12:05:39Z</time>
      </trkpt>
      <trkpt lat="43.41461" lon="6.07072">
        <ele>200.60000610352</ele>
        <time>2015-10-07T12:05:40Z</time>
      </trkpt>
      <trkpt lat="43.41454" lon="6.07088">
        <ele>200.19999694824</ele>
        <time>2015-10-07T12:05:45Z</time>
      </trkpt>
      <trkpt lat="43.41441" lon="6.07122">
        <ele>200.60000610352</ele>
        <time>2015-10-07T12:05:52Z</time>
      </trkpt>
      <trkpt lat="43.41427" lon="6.07165">
        <ele>200.80000305176</ele>
        <time>2015-10-07T12:05:59Z</time>
      </trkpt>
      <trkpt lat="43.41413" lon="6.0721">
        <ele>200.39999389648</ele>
        <time>2015-10-07T12:06:06Z</time>
      </trkpt>
      <trkpt lat="43.41397" lon="6.07258">
        <ele>200</ele>
        <time>2015-10-07T12:06:13Z</time>
      </trkpt>
      <trkpt lat="43.41391" lon="6.0728">
        <ele>199.80000305176</ele>
        <time>2015-10-07T12:06:16Z</time>
      </trkpt>
      <trkpt lat="43.41381" lon="6.07315">
        <ele>199</ele>
        <time>2015-10-07T12:06:21Z</time>
      </trkpt>
      <trkpt lat="43.4138" lon="6.07322">
        <ele>198.80000305176</ele>
        <time>2015-10-07T12:06:22Z</time>
      </trkpt>
      <trkpt lat="43.41379" lon="6.07334">
        <ele>198.80000305176</ele>
        <time>2015-10-07T12:06:24Z</time>
      </trkpt>
      <trkpt lat="43.4138" lon="6.07337">
        <ele>198.80000305176</ele>
        <time>2015-10-07T12:06:25Z</time>
      </trkpt>
      <trkpt lat="43.4139" lon="6.0734">
        <ele>199</ele>
        <time>2015-10-07T12:06:28Z</time>
      </trkpt>
      <trkpt lat="43.41396" lon="6.0734">
        <ele>199.19999694824</ele>
        <time>2015-10-07T12:06:30Z</time>
      </trkpt>
      <trkpt lat="43.41415" lon="6.07339">
        <ele>200.19999694824</ele>
        <time>2015-10-07T12:06:35Z</time>
      </trkpt>
      <trkpt lat="43.41436" lon="6.07339">
        <ele>200.39999389648</ele>
        <time>2015-10-07T12:06:40Z</time>
      </trkpt>
      <trkpt lat="43.41448" lon="6.0734">
        <ele>200.19999694824</ele>
        <time>2015-10-07T12:06:43Z</time>
      </trkpt>
      <trkpt lat="43.41476" lon="6.07344">
        <ele>201.39999389648</ele>
        <time>2015-10-07T12:06:50Z</time>
      </trkpt>
      <trkpt lat="43.41494" lon="6.07359">
        <ele>200.39999389648</ele>
        <time>2015-10-07T12:06:55Z</time>
      </trkpt>
      <trkpt lat="43.415" lon="6.07367">
        <ele>200.39999389648</ele>
        <time>2015-10-07T12:06:57Z</time>
      </trkpt>
      <trkpt lat="43.41515" lon="6.07386">
        <ele>200.60000610352</ele>
        <time>2015-10-07T12:07:01Z</time>
      </trkpt>
      <trkpt lat="43.41525" lon="6.074">
        <ele>200.39999389648</ele>
        <time>2015-10-07T12:07:04Z</time>
      </trkpt>
      <trkpt lat="43.41535" lon="6.07422">
        <ele>200.39999389648</ele>
        <time>2015-10-07T12:07:08Z</time>
      </trkpt>
      <trkpt lat="43.41549" lon="6.07449">
        <ele>201.19999694824</ele>
        <time>2015-10-07T12:07:14Z</time>
      </trkpt>
      <trkpt lat="43.41553" lon="6.07448">
        <ele>201.80000305176</ele>
        <time>2015-10-07T12:07:15Z</time>
      </trkpt>
      <trkpt lat="43.41571" lon="6.07444">
        <ele>202.60000610352</ele>
        <time>2015-10-07T12:07:20Z</time>
      </trkpt>
      <trkpt lat="43.41587" lon="6.07441">
        <ele>203.19999694824</ele>
        <time>2015-10-07T12:07:25Z</time>
      </trkpt>
      <trkpt lat="43.41597" lon="6.07439">
        <ele>204</ele>
        <time>2015-10-07T12:07:28Z</time>
      </trkpt>
      <trkpt lat="43.41609" lon="6.07437">
        <ele>205</ele>
        <time>2015-10-07T12:07:32Z</time>
      </trkpt>
      <trkpt lat="43.41625" lon="6.07435">
        <ele>205.19999694824</ele>
        <time>2015-10-07T12:07:37Z</time>
      </trkpt>
      <trkpt lat="43.4165" lon="6.07434">
        <ele>205.60000610352</ele>
        <time>2015-10-07T12:07:45Z</time>
      </trkpt>
      <trkpt lat="43.41665" lon="6.07432">
        <ele>206</ele>
        <time>2015-10-07T12:07:51Z</time>
      </trkpt>
      <trkpt lat="43.41684" lon="6.07429">
        <ele>207</ele>
        <time>2015-10-07T12:07:58Z</time>
      </trkpt>
      <trkpt lat="43.41692" lon="6.07428">
        <ele>208.19999694824</ele>
        <time>2015-10-07T12:08:01Z</time>
      </trkpt>
      <trkpt lat="43.41703" lon="6.07426">
        <ele>209.19999694824</ele>
        <time>2015-10-07T12:08:05Z</time>
      </trkpt>
      <trkpt lat="43.41708" lon="6.07426">
        <ele>209.80000305176</ele>
        <time>2015-10-07T12:08:07Z</time>
      </trkpt>
      <trkpt lat="43.41725" lon="6.07422">
        <ele>210.19999694824</ele>
        <time>2015-10-07T12:08:14Z</time>
      </trkpt>
      <trkpt lat="43.41727" lon="6.07421">
        <ele>210.19999694824</ele>
        <time>2015-10-07T12:08:15Z</time>
      </trkpt>
      <trkpt lat="43.41733" lon="6.07421">
        <ele>211.80000305176</ele>
        <time>2015-10-07T12:08:18Z</time>
      </trkpt>
      <trkpt lat="43.41737" lon="6.0742">
        <ele>212.80000305176</ele>
        <time>2015-10-07T12:08:21Z</time>
      </trkpt>
      <trkpt lat="43.41739" lon="6.07419">
        <ele>213</ele>
        <time>2015-10-07T12:08:22Z</time>
      </trkpt>
      <trkpt lat="43.4175" lon="6.07419">
        <ele>213.80000305176</ele>
        <time>2015-10-07T12:08:28Z</time>
      </trkpt>
      <trkpt lat="43.41754" lon="6.0742">
        <ele>214.39999389648</ele>
        <time>2015-10-07T12:08:30Z</time>
      </trkpt>
      <trkpt lat="43.41758" lon="6.07418">
        <ele>215</ele>
        <time>2015-10-07T12:08:33Z</time>
      </trkpt>
      <trkpt lat="43.4176" lon="6.07418">
        <ele>215.19999694824</ele>
        <time>2015-10-07T12:08:34Z</time>
      </trkpt>
      <trkpt lat="43.41767" lon="6.07417">
        <ele>216.39999389648</ele>
        <time>2015-10-07T12:08:38Z</time>
      </trkpt>
      <trkpt lat="43.4177" lon="6.07416">
        <ele>216.39999389648</ele>
        <time>2015-10-07T12:08:40Z</time>
      </trkpt>
      <trkpt lat="43.41779" lon="6.07415">
        <ele>217.60000610352</ele>
        <time>2015-10-07T12:08:45Z</time>
      </trkpt>
      <trkpt lat="43.41781" lon="6.07414">
        <ele>217.60000610352</ele>
        <time>2015-10-07T12:08:46Z</time>
      </trkpt>
      <trkpt lat="43.41788" lon="6.07413">
        <ele>218.39999389648</ele>
        <time>2015-10-07T12:08:51Z</time>
      </trkpt>
      <trkpt lat="43.4179" lon="6.07413">
        <ele>218.60000610352</ele>
        <time>2015-10-07T12:08:52Z</time>
      </trkpt>
      <trkpt lat="43.41799" lon="6.07415">
        <ele>219.19999694824</ele>
        <time>2015-10-07T12:08:58Z</time>
      </trkpt>
      <trkpt lat="43.41803" lon="6.07419">
        <ele>219.60000610352</ele>
        <time>2015-10-07T12:09:01Z</time>
      </trkpt>
      <trkpt lat="43.41804" lon="6.07422">
        <ele>220</ele>
        <time>2015-10-07T12:09:03Z</time>
      </trkpt>
      <trkpt lat="43.41805" lon="6.07424">
        <ele>220</ele>
        <time>2015-10-07T12:09:04Z</time>
      </trkpt>
      <trkpt lat="43.41807" lon="6.07429">
        <ele>220.80000305176</ele>
        <time>2015-10-07T12:09:06Z</time>
      </trkpt>
      <trkpt lat="43.41813" lon="6.07439">
        <ele>221.60000610352</ele>
        <time>2015-10-07T12:09:11Z</time>
      </trkpt>
      <trkpt lat="43.41816" lon="6.07442">
        <ele>222</ele>
        <time>2015-10-07T12:09:13Z</time>
      </trkpt>
      <trkpt lat="43.41819" lon="6.07443">
        <ele>222.60000610352</ele>
        <time>2015-10-07T12:09:16Z</time>
      </trkpt>
      <trkpt lat="43.41821" lon="6.07444">
        <ele>222.80000305176</ele>
        <time>2015-10-07T12:09:17Z</time>
      </trkpt>
      <trkpt lat="43.41824" lon="6.07444">
        <ele>223</ele>
        <time>2015-10-07T12:09:20Z</time>
      </trkpt>
      <trkpt lat="43.41828" lon="6.07445">
        <ele>222.60000610352</ele>
        <time>2015-10-07T12:09:23Z</time>
      </trkpt>
      <trkpt lat="43.41831" lon="6.07445">
        <ele>222.39999389648</ele>
        <time>2015-10-07T12:09:25Z</time>
      </trkpt>
      <trkpt lat="43.41839" lon="6.07445">
        <ele>222.39999389648</ele>
        <time>2015-10-07T12:09:29Z</time>
      </trkpt>
      <trkpt lat="43.41844" lon="6.07445">
        <ele>222.39999389648</ele>
        <time>2015-10-07T12:09:31Z</time>
      </trkpt>
      <trkpt lat="43.41859" lon="6.07443">
        <ele>222.19999694824</ele>
        <time>2015-10-07T12:09:37Z</time>
      </trkpt>
      <trkpt lat="43.41868" lon="6.07442">
        <ele>222.60000610352</ele>
        <time>2015-10-07T12:09:41Z</time>
      </trkpt>
      <trkpt lat="43.4188" lon="6.07441">
        <ele>222.80000305176</ele>
        <time>2015-10-07T12:09:46Z</time>
      </trkpt>
      <trkpt lat="43.41891" lon="6.07441">
        <ele>223.60000610352</ele>
        <time>2015-10-07T12:09:51Z</time>
      </trkpt>
      <trkpt lat="43.41902" lon="6.07441">
        <ele>224.39999389648</ele>
        <time>2015-10-07T12:09:56Z</time>
      </trkpt>
      <trkpt lat="43.41909" lon="6.07441">
        <ele>225.60000610352</ele>
        <time>2015-10-07T12:09:59Z</time>
      </trkpt>
      <trkpt lat="43.41916" lon="6.07442">
        <ele>225.80000305176</ele>
        <time>2015-10-07T12:10:02Z</time>
      </trkpt>
      <trkpt lat="43.41935" lon="6.07442">
        <ele>228</ele>
        <time>2015-10-07T12:10:11Z</time>
      </trkpt>
      <trkpt lat="43.41968" lon="6.07433">
        <ele>230</ele>
        <time>2015-10-07T12:10:27Z</time>
      </trkpt>
      <trkpt lat="43.41986" lon="6.0743">
        <ele>231</ele>
        <time>2015-10-07T12:10:36Z</time>
      </trkpt>
      <trkpt lat="43.41989" lon="6.0743">
        <ele>231.19999694824</ele>
        <time>2015-10-07T12:10:37Z</time>
      </trkpt>
      <trkpt lat="43.41998" lon="6.07428">
        <ele>231.60000610352</ele>
        <time>2015-10-07T12:10:43Z</time>
      </trkpt>
      <trkpt lat="43.41999" lon="6.07429">
        <ele>231.39999389648</ele>
        <time>2015-10-07T12:10:44Z</time>
      </trkpt>
      <trkpt lat="43.42001" lon="6.07433">
        <ele>231.80000305176</ele>
        <time>2015-10-07T12:10:48Z</time>
      </trkpt>
      <trkpt lat="43.42001" lon="6.07434">
        <ele>231.80000305176</ele>
        <time>2015-10-07T12:10:49Z</time>
      </trkpt>
      <trkpt lat="43.42003" lon="6.07436">
        <ele>232</ele>
        <time>2015-10-07T12:10:52Z</time>
      </trkpt>
      <trkpt lat="43.42004" lon="6.0744">
        <ele>231.80000305176</ele>
        <time>2015-10-07T12:10:55Z</time>
      </trkpt>
      <trkpt lat="43.42003" lon="6.07442">
        <ele>231.60000610352</ele>
        <time>2015-10-07T12:10:57Z</time>
      </trkpt>
      <trkpt lat="43.42003" lon="6.07443">
        <ele>231.80000305176</ele>
        <time>2015-10-07T12:10:58Z</time>
      </trkpt>
      <trkpt lat="43.42004" lon="6.07448">
        <ele>232</ele>
        <time>2015-10-07T12:11:01Z</time>
      </trkpt>
      <trkpt lat="43.42005" lon="6.07453">
        <ele>232.19999694824</ele>
        <time>2015-10-07T12:11:04Z</time>
      </trkpt>
      <trkpt lat="43.42008" lon="6.07461">
        <ele>232.19999694824</ele>
        <time>2015-10-07T12:11:10Z</time>
      </trkpt>
      <trkpt lat="43.42008" lon="6.07462">
        <ele>232.19999694824</ele>
        <time>2015-10-07T12:11:11Z</time>
      </trkpt>
      <trkpt lat="43.42007" lon="6.07464">
        <ele>232.19999694824</ele>
        <time>2015-10-07T12:11:12Z</time>
      </trkpt>
      <trkpt lat="43.42007" lon="6.07465">
        <ele>232</ele>
        <time>2015-10-07T12:11:13Z</time>
      </trkpt>
      <trkpt lat="43.42008" lon="6.07467">
        <ele>232.19999694824</ele>
        <time>2015-10-07T12:11:15Z</time>
      </trkpt>
      <trkpt lat="43.4201" lon="6.0747">
        <ele>232.60000610352</ele>
        <time>2015-10-07T12:11:18Z</time>
      </trkpt>
      <trkpt lat="43.4201" lon="6.07474">
        <ele>232.80000305176</ele>
        <time>2015-10-07T12:11:20Z</time>
      </trkpt>
      <trkpt lat="43.4201" lon="6.07479">
        <ele>232.80000305176</ele>
        <time>2015-10-07T12:11:23Z</time>
      </trkpt>
      <trkpt lat="43.42013" lon="6.07475">
        <ele>232.39999389648</ele>
        <time>2015-10-07T12:11:27Z</time>
      </trkpt>
      <trkpt lat="43.4201" lon="6.07464">
        <ele>231.80000305176</ele>
        <time>2015-10-07T12:11:30Z</time>
      </trkpt>
      <trkpt lat="43.4201" lon="6.0746">
        <ele>231.80000305176</ele>
        <time>2015-10-07T12:11:31Z</time>
      </trkpt>
      <trkpt lat="43.42006" lon="6.07437">
        <ele>231.80000305176</ele>
        <time>2015-10-07T12:11:38Z</time>
      </trkpt>
      <trkpt lat="43.42004" lon="6.07431">
        <ele>232</ele>
        <time>2015-10-07T12:11:42Z</time>
      </trkpt>
      <trkpt lat="43.42003" lon="6.07429">
        <ele>232.39999389648</ele>
        <time>2015-10-07T12:11:44Z</time>
      </trkpt>
      <trkpt lat="43.42001" lon="6.07432">
        <ele>232.19999694824</ele>
        <time>2015-10-07T12:11:47Z</time>
      </trkpt>
      <trkpt lat="43.42003" lon="6.07438">
        <ele>232</ele>
        <time>2015-10-07T12:11:52Z</time>
      </trkpt>
      <trkpt lat="43.42005" lon="6.07439">
        <ele>232.80000305176</ele>
        <time>2015-10-07T12:11:54Z</time>
      </trkpt>
      <trkpt lat="43.42004" lon="6.07432">
        <ele>233.19999694824</ele>
        <time>2015-10-07T12:11:58Z</time>
      </trkpt>
      <trkpt lat="43.42" lon="6.07427">
        <ele>232.80000305176</ele>
        <time>2015-10-07T12:12:02Z</time>
      </trkpt>
      <trkpt lat="43.41998" lon="6.07428">
        <ele>232.39999389648</ele>
        <time>2015-10-07T12:12:04Z</time>
      </trkpt>
      <trkpt lat="43.41988" lon="6.07432">
        <ele>232.19999694824</ele>
        <time>2015-10-07T12:12:10Z</time>
      </trkpt>
      <trkpt lat="43.41983" lon="6.07431">
        <ele>231.80000305176</ele>
        <time>2015-10-07T12:12:12Z</time>
      </trkpt>
      <trkpt lat="43.41981" lon="6.07432">
        <ele>231.60000610352</ele>
        <time>2015-10-07T12:12:13Z</time>
      </trkpt>
      <trkpt lat="43.41969" lon="6.07434">
        <ele>230.80000305176</ele>
        <time>2015-10-07T12:12:18Z</time>
      </trkpt>
      <trkpt lat="43.41961" lon="6.07436">
        <ele>230.39999389648</ele>
        <time>2015-10-07T12:12:23Z</time>
      </trkpt>
      <trkpt lat="43.41958" lon="6.0744">
        <ele>230</ele>
        <time>2015-10-07T12:12:25Z</time>
      </trkpt>
      <trkpt lat="43.41957" lon="6.07441">
        <ele>230</ele>
        <time>2015-10-07T12:12:30Z</time>
      </trkpt>
      <trkpt lat="43.41957" lon="6.07441">
        <ele>229.39999389648</ele>
        <time>2015-10-07T12:12:47Z</time>
      </trkpt>
      <trkpt lat="43.41956" lon="6.07442">
        <ele>229.39999389648</ele>
        <time>2015-10-07T12:13:00Z</time>
      </trkpt>
      <trkpt lat="43.41956" lon="6.07442">
        <ele>229</ele>
        <time>2015-10-07T12:13:03Z</time>
      </trkpt>
      <trkpt lat="43.41956" lon="6.07442">
        <ele>230.60000610352</ele>
        <time>2015-10-07T12:13:19Z</time>
      </trkpt>
      <trkpt lat="43.41956" lon="6.07441">
        <ele>229.80000305176</ele>
        <time>2015-10-07T12:14:08Z</time>
      </trkpt>
      <trkpt lat="43.41956" lon="6.07441">
        <ele>229.80000305176</ele>
        <time>2015-10-07T12:14:13Z</time>
      </trkpt>
      <trkpt lat="43.41956" lon="6.07439">
        <ele>229.19999694824</ele>
        <time>2015-10-07T12:14:22Z</time>
      </trkpt>
      <trkpt lat="43.41959" lon="6.07435">
        <ele>229.19999694824</ele>
        <time>2015-10-07T12:14:24Z</time>
      </trkpt>
      <trkpt lat="43.41963" lon="6.07433">
        <ele>229.39999389648</ele>
        <time>2015-10-07T12:14:26Z</time>
      </trkpt>
      <trkpt lat="43.41969" lon="6.07433">
        <ele>229.60000610352</ele>
        <time>2015-10-07T12:14:28Z</time>
      </trkpt>
      <trkpt lat="43.41972" lon="6.07434">
        <ele>229.80000305176</ele>
        <time>2015-10-07T12:14:29Z</time>
      </trkpt>
      <trkpt lat="43.41978" lon="6.07433">
        <ele>230.39999389648</ele>
        <time>2015-10-07T12:14:31Z</time>
      </trkpt>
      <trkpt lat="43.41982" lon="6.07433">
        <ele>230.60000610352</ele>
        <time>2015-10-07T12:14:32Z</time>
      </trkpt>
      <trkpt lat="43.41991" lon="6.07432">
        <ele>231.60000610352</ele>
        <time>2015-10-07T12:14:35Z</time>
      </trkpt>
      <trkpt lat="43.41994" lon="6.07432">
        <ele>231.60000610352</ele>
        <time>2015-10-07T12:14:36Z</time>
      </trkpt>
      <trkpt lat="43.42001" lon="6.07434">
        <ele>231.60000610352</ele>
        <time>2015-10-07T12:14:39Z</time>
      </trkpt>
      <trkpt lat="43.42004" lon="6.07441">
        <ele>231.60000610352</ele>
        <time>2015-10-07T12:14:41Z</time>
      </trkpt>
      <trkpt lat="43.42004" lon="6.07453">
        <ele>231.19999694824</ele>
        <time>2015-10-07T12:14:44Z</time>
      </trkpt>
      <trkpt lat="43.42005" lon="6.07457">
        <ele>231.19999694824</ele>
        <time>2015-10-07T12:14:45Z</time>
      </trkpt>
      <trkpt lat="43.42012" lon="6.07486">
        <ele>232.19999694824</ele>
        <time>2015-10-07T12:14:52Z</time>
      </trkpt>
      <trkpt lat="43.42023" lon="6.07505">
        <ele>232.60000610352</ele>
        <time>2015-10-07T12:14:58Z</time>
      </trkpt>
      <trkpt lat="43.42038" lon="6.07505">
        <ele>232.39999389648</ele>
        <time>2015-10-07T12:15:03Z</time>
      </trkpt>
      <trkpt lat="43.42048" lon="6.07504">
        <ele>233.19999694824</ele>
        <time>2015-10-07T12:15:06Z</time>
      </trkpt>
      <trkpt lat="43.42063" lon="6.07503">
        <ele>233.19999694824</ele>
        <time>2015-10-07T12:15:11Z</time>
      </trkpt>
      <trkpt lat="43.42073" lon="6.07503">
        <ele>233.19999694824</ele>
        <time>2015-10-07T12:15:16Z</time>
      </trkpt>
      <trkpt lat="43.42077" lon="6.07503">
        <ele>233.19999694824</ele>
        <time>2015-10-07T12:15:23Z</time>
      </trkpt>
      <trkpt lat="43.42076" lon="6.07502">
        <ele>233.39999389648</ele>
        <time>2015-10-07T12:15:29Z</time>
      </trkpt>
      <trkpt lat="43.42077" lon="6.07504">
        <ele>233.19999694824</ele>
        <time>2015-10-07T12:15:34Z</time>
      </trkpt>
      <trkpt lat="43.42075" lon="6.07503">
        <ele>233.39999389648</ele>
        <time>2015-10-07T12:15:43Z</time>
      </trkpt>
      <trkpt lat="43.42075" lon="6.07502">
        <ele>233.19999694824</ele>
        <time>2015-10-07T12:15:59Z</time>
      </trkpt>
      <trkpt lat="43.42076" lon="6.07503">
        <ele>234</ele>
        <time>2015-10-07T12:16:04Z</time>
      </trkpt>
      <trkpt lat="43.4208" lon="6.07502">
        <ele>234</ele>
        <time>2015-10-07T12:16:06Z</time>
      </trkpt>
      <trkpt lat="43.42094" lon="6.07501">
        <ele>233.60000610352</ele>
        <time>2015-10-07T12:16:11Z</time>
      </trkpt>
      <trkpt lat="43.42121" lon="6.07496">
        <ele>232.19999694824</ele>
        <time>2015-10-07T12:16:17Z</time>
      </trkpt>
      <trkpt lat="43.42125" lon="6.07492">
        <ele>232</ele>
        <time>2015-10-07T12:16:18Z</time>
      </trkpt>
      <trkpt lat="43.4213" lon="6.07481">
        <ele>231.39999389648</ele>
        <time>2015-10-07T12:16:20Z</time>
      </trkpt>
      <trkpt lat="43.42131" lon="6.07476">
        <ele>231</ele>
        <time>2015-10-07T12:16:21Z</time>
      </trkpt>
      <trkpt lat="43.42133" lon="6.07467">
        <ele>230</ele>
        <time>2015-10-07T12:16:23Z</time>
      </trkpt>
      <trkpt lat="43.42134" lon="6.07462">
        <ele>229.60000610352</ele>
        <time>2015-10-07T12:16:24Z</time>
      </trkpt>
      <trkpt lat="43.42139" lon="6.07443">
        <ele>228.60000610352</ele>
        <time>2015-10-07T12:16:27Z</time>
      </trkpt>
      <trkpt lat="43.42141" lon="6.07436">
        <ele>228.60000610352</ele>
        <time>2015-10-07T12:16:28Z</time>
      </trkpt>
      <trkpt lat="43.42146" lon="6.07402">
        <ele>228.19999694824</ele>
        <time>2015-10-07T12:16:33Z</time>
      </trkpt>
      <trkpt lat="43.42148" lon="6.07388">
        <ele>228.19999694824</ele>
        <time>2015-10-07T12:16:35Z</time>
      </trkpt>
      <trkpt lat="43.42152" lon="6.07359">
        <ele>228</ele>
        <time>2015-10-07T12:16:39Z</time>
      </trkpt>
      <trkpt lat="43.42153" lon="6.07351">
        <ele>227.60000610352</ele>
        <time>2015-10-07T12:16:40Z</time>
      </trkpt>
      <trkpt lat="43.42156" lon="6.07327">
        <ele>228.39999389648</ele>
        <time>2015-10-07T12:16:43Z</time>
      </trkpt>
      <trkpt lat="43.42157" lon="6.07318">
        <ele>228.60000610352</ele>
        <time>2015-10-07T12:16:44Z</time>
      </trkpt>
      <trkpt lat="43.42167" lon="6.07264">
        <ele>228.80000305176</ele>
        <time>2015-10-07T12:16:51Z</time>
      </trkpt>
      <trkpt lat="43.4217" lon="6.07251">
        <ele>229.19999694824</ele>
        <time>2015-10-07T12:16:53Z</time>
      </trkpt>
      <trkpt lat="43.42173" lon="6.07231">
        <ele>229.80000305176</ele>
        <time>2015-10-07T12:16:56Z</time>
      </trkpt>
      <trkpt lat="43.42176" lon="6.07213">
        <ele>230.39999389648</ele>
        <time>2015-10-07T12:16:59Z</time>
      </trkpt>
      <trkpt lat="43.42181" lon="6.0716">
        <ele>228.60000610352</ele>
        <time>2015-10-07T12:17:06Z</time>
      </trkpt>
      <trkpt lat="43.42178" lon="6.07142">
        <ele>228</ele>
        <time>2015-10-07T12:17:08Z</time>
      </trkpt>
      <trkpt lat="43.42172" lon="6.07125">
        <ele>227.39999389648</ele>
        <time>2015-10-07T12:17:10Z</time>
      </trkpt>
      <trkpt lat="43.42171" lon="6.07117">
        <ele>227.19999694824</ele>
        <time>2015-10-07T12:17:11Z</time>
      </trkpt>
      <trkpt lat="43.42168" lon="6.07094">
        <ele>227.39999389648</ele>
        <time>2015-10-07T12:17:14Z</time>
      </trkpt>
      <trkpt lat="43.42166" lon="6.07088">
        <ele>227.39999389648</ele>
        <time>2015-10-07T12:17:15Z</time>
      </trkpt>
      <trkpt lat="43.42162" lon="6.07075">
        <ele>228.19999694824</ele>
        <time>2015-10-07T12:17:18Z</time>
      </trkpt>
      <trkpt lat="43.42163" lon="6.07071">
        <ele>228.19999694824</ele>
        <time>2015-10-07T12:17:19Z</time>
      </trkpt>
      <trkpt lat="43.42164" lon="6.07068">
        <ele>228.39999389648</ele>
        <time>2015-10-07T12:17:20Z</time>
      </trkpt>
      <trkpt lat="43.4217" lon="6.07066">
        <ele>228.60000610352</ele>
        <time>2015-10-07T12:17:22Z</time>
      </trkpt>
      <trkpt lat="43.42176" lon="6.07064">
        <ele>229</ele>
        <time>2015-10-07T12:17:25Z</time>
      </trkpt>
      <trkpt lat="43.4218" lon="6.07064">
        <ele>229.60000610352</ele>
        <time>2015-10-07T12:17:27Z</time>
      </trkpt>
      <trkpt lat="43.42183" lon="6.07064">
        <ele>229.60000610352</ele>
        <time>2015-10-07T12:17:28Z</time>
      </trkpt>
      <trkpt lat="43.42203" lon="6.07067">
        <ele>230.80000305176</ele>
        <time>2015-10-07T12:17:35Z</time>
      </trkpt>
      <trkpt lat="43.42215" lon="6.07072">
        <ele>230.80000305176</ele>
        <time>2015-10-07T12:17:40Z</time>
      </trkpt>
      <trkpt lat="43.42229" lon="6.07072">
        <ele>231.39999389648</ele>
        <time>2015-10-07T12:17:45Z</time>
      </trkpt>
      <trkpt lat="43.42238" lon="6.07086">
        <ele>231.19999694824</ele>
        <time>2015-10-07T12:17:49Z</time>
      </trkpt>
      <trkpt lat="43.42239" lon="6.07092">
        <ele>230.80000305176</ele>
        <time>2015-10-07T12:17:50Z</time>
      </trkpt>
      <trkpt lat="43.42237" lon="6.07113">
        <ele>230.39999389648</ele>
        <time>2015-10-07T12:17:53Z</time>
      </trkpt>
      <trkpt lat="43.42235" lon="6.0712">
        <ele>230.19999694824</ele>
        <time>2015-10-07T12:17:54Z</time>
      </trkpt>
      <trkpt lat="43.42231" lon="6.07149">
        <ele>229.60000610352</ele>
        <time>2015-10-07T12:17:58Z</time>
      </trkpt>
      <trkpt lat="43.42224" lon="6.07205">
        <ele>229.60000610352</ele>
        <time>2015-10-07T12:18:06Z</time>
      </trkpt>
      <trkpt lat="43.42219" lon="6.0725">
        <ele>230</ele>
        <time>2015-10-07T12:18:13Z</time>
      </trkpt>
      <trkpt lat="43.42216" lon="6.07271">
        <ele>229.60000610352</ele>
        <time>2015-10-07T12:18:16Z</time>
      </trkpt>
      <trkpt lat="43.4221" lon="6.07317">
        <ele>229</ele>
        <time>2015-10-07T12:18:23Z</time>
      </trkpt>
      <trkpt lat="43.42203" lon="6.07371">
        <ele>229</ele>
        <time>2015-10-07T12:18:32Z</time>
      </trkpt>
      <trkpt lat="43.42197" lon="6.07414">
        <ele>229.19999694824</ele>
        <time>2015-10-07T12:18:39Z</time>
      </trkpt>
      <trkpt lat="43.42192" lon="6.0745">
        <ele>229.39999389648</ele>
        <time>2015-10-07T12:18:45Z</time>
      </trkpt>
      <trkpt lat="43.42184" lon="6.07488">
        <ele>229.39999389648</ele>
        <time>2015-10-07T12:18:52Z</time>
      </trkpt>
      <trkpt lat="43.42178" lon="6.07516">
        <ele>230.19999694824</ele>
        <time>2015-10-07T12:18:58Z</time>
      </trkpt>
      <trkpt lat="43.42171" lon="6.07545">
        <ele>231</ele>
        <time>2015-10-07T12:19:04Z</time>
      </trkpt>
      <trkpt lat="43.4217" lon="6.07555">
        <ele>231.19999694824</ele>
        <time>2015-10-07T12:19:06Z</time>
      </trkpt>
      <trkpt lat="43.42165" lon="6.07587">
        <ele>231.39999389648</ele>
        <time>2015-10-07T12:19:12Z</time>
      </trkpt>
      <trkpt lat="43.42158" lon="6.07622">
        <ele>231.60000610352</ele>
        <time>2015-10-07T12:19:19Z</time>
      </trkpt>
      <trkpt lat="43.4215" lon="6.0765">
        <ele>232</ele>
        <time>2015-10-07T12:19:25Z</time>
      </trkpt>
      <trkpt lat="43.42146" lon="6.07663">
        <ele>232.39999389648</ele>
        <time>2015-10-07T12:19:28Z</time>
      </trkpt>
      <trkpt lat="43.42144" lon="6.07672">
        <ele>233.19999694824</ele>
        <time>2015-10-07T12:19:30Z</time>
      </trkpt>
      <trkpt lat="43.42138" lon="6.0769">
        <ele>234.80000305176</ele>
        <time>2015-10-07T12:19:34Z</time>
      </trkpt>
      <trkpt lat="43.42135" lon="6.077">
        <ele>235</ele>
        <time>2015-10-07T12:19:36Z</time>
      </trkpt>
      <trkpt lat="43.4213" lon="6.07715">
        <ele>235.19999694824</ele>
        <time>2015-10-07T12:19:39Z</time>
      </trkpt>
      <trkpt lat="43.42127" lon="6.07725">
        <ele>236</ele>
        <time>2015-10-07T12:19:41Z</time>
      </trkpt>
      <trkpt lat="43.42125" lon="6.07735">
        <ele>236.60000610352</ele>
        <time>2015-10-07T12:19:43Z</time>
      </trkpt>
      <trkpt lat="43.42122" lon="6.07745">
        <ele>237.19999694824</ele>
        <time>2015-10-07T12:19:45Z</time>
      </trkpt>
      <trkpt lat="43.42118" lon="6.07759">
        <ele>238</ele>
        <time>2015-10-07T12:19:48Z</time>
      </trkpt>
      <trkpt lat="43.42113" lon="6.07782">
        <ele>239.60000610352</ele>
        <time>2015-10-07T12:19:53Z</time>
      </trkpt>
      <trkpt lat="43.42107" lon="6.078">
        <ele>239.80000305176</ele>
        <time>2015-10-07T12:19:57Z</time>
      </trkpt>
      <trkpt lat="43.42101" lon="6.07823">
        <ele>240.80000305176</ele>
        <time>2015-10-07T12:20:02Z</time>
      </trkpt>
      <trkpt lat="43.42099" lon="6.0783">
        <ele>241.19999694824</ele>
        <time>2015-10-07T12:20:04Z</time>
      </trkpt>
      <trkpt lat="43.42097" lon="6.07844">
        <ele>243.19999694824</ele>
        <time>2015-10-07T12:20:10Z</time>
      </trkpt>
      <trkpt lat="43.42096" lon="6.07849">
        <ele>243.60000610352</ele>
        <time>2015-10-07T12:20:14Z</time>
      </trkpt>
      <trkpt lat="43.42094" lon="6.07853">
        <ele>244</ele>
        <time>2015-10-07T12:20:17Z</time>
      </trkpt>
      <trkpt lat="43.42094" lon="6.07855">
        <ele>244</ele>
        <time>2015-10-07T12:20:18Z</time>
      </trkpt>
      <trkpt lat="43.42093" lon="6.07858">
        <ele>244</ele>
        <time>2015-10-07T12:20:21Z</time>
      </trkpt>
      <trkpt lat="43.42093" lon="6.07857">
        <ele>244.19999694824</ele>
        <time>2015-10-07T12:20:24Z</time>
      </trkpt>
      <trkpt lat="43.42093" lon="6.07857">
        <ele>244</ele>
        <time>2015-10-07T12:20:29Z</time>
      </trkpt>
      <trkpt lat="43.42093" lon="6.07858">
        <ele>243.80000305176</ele>
        <time>2015-10-07T12:20:42Z</time>
      </trkpt>
      <trkpt lat="43.42093" lon="6.07858">
        <ele>243.80000305176</ele>
        <time>2015-10-07T12:20:56Z</time>
      </trkpt>
      <trkpt lat="43.42093" lon="6.07858">
        <ele>244</ele>
        <time>2015-10-07T12:21:15Z</time>
      </trkpt>
      <trkpt lat="43.42093" lon="6.07858">
        <ele>244</ele>
        <time>2015-10-07T12:21:34Z</time>
      </trkpt>
      <trkpt lat="43.42094" lon="6.07862">
        <ele>243.80000305176</ele>
        <time>2015-10-07T12:21:42Z</time>
      </trkpt>
      <trkpt lat="43.42093" lon="6.07861">
        <ele>243.80000305176</ele>
        <time>2015-10-07T12:21:43Z</time>
      </trkpt>
      <trkpt lat="43.42095" lon="6.07866">
        <ele>243.80000305176</ele>
        <time>2015-10-07T12:21:50Z</time>
      </trkpt>
      <trkpt lat="43.42094" lon="6.07866">
        <ele>243.80000305176</ele>
        <time>2015-10-07T12:21:54Z</time>
      </trkpt>
      <trkpt lat="43.42094" lon="6.07866">
        <ele>243.80000305176</ele>
        <time>2015-10-07T12:21:57Z</time>
      </trkpt>
      <trkpt lat="43.42094" lon="6.07866">
        <ele>243.60000610352</ele>
        <time>2015-10-07T12:22:06Z</time>
      </trkpt>
      <trkpt lat="43.42095" lon="6.07866">
        <ele>243.39999389648</ele>
        <time>2015-10-07T12:22:14Z</time>
      </trkpt>
      <trkpt lat="43.42095" lon="6.07867">
        <ele>243.60000610352</ele>
        <time>2015-10-07T12:22:33Z</time>
      </trkpt>
      <trkpt lat="43.42096" lon="6.07869">
        <ele>243.60000610352</ele>
        <time>2015-10-07T12:23:13Z</time>
      </trkpt>
      <trkpt lat="43.42096" lon="6.07871">
        <ele>243.19999694824</ele>
        <time>2015-10-07T12:23:28Z</time>
      </trkpt>
      <trkpt lat="43.42099" lon="6.07881">
        <ele>242</ele>
        <time>2015-10-07T12:23:31Z</time>
      </trkpt>
      <trkpt lat="43.42102" lon="6.07884">
        <ele>241.80000305176</ele>
        <time>2015-10-07T12:23:32Z</time>
      </trkpt>
      <trkpt lat="43.42116" lon="6.07888">
        <ele>240.80000305176</ele>
        <time>2015-10-07T12:23:35Z</time>
      </trkpt>
      <trkpt lat="43.4213" lon="6.07887">
        <ele>240</ele>
        <time>2015-10-07T12:23:38Z</time>
      </trkpt>
      <trkpt lat="43.42135" lon="6.07887">
        <ele>239.60000610352</ele>
        <time>2015-10-07T12:23:39Z</time>
      </trkpt>
      <trkpt lat="43.42139" lon="6.07886">
        <ele>239</ele>
        <time>2015-10-07T12:23:40Z</time>
      </trkpt>
      <trkpt lat="43.42144" lon="6.07887">
        <ele>238.60000610352</ele>
        <time>2015-10-07T12:23:41Z</time>
      </trkpt>
      <trkpt lat="43.42151" lon="6.07887">
        <ele>237.80000305176</ele>
        <time>2015-10-07T12:23:42Z</time>
      </trkpt>
      <trkpt lat="43.42157" lon="6.07886">
        <ele>237.39999389648</ele>
        <time>2015-10-07T12:23:43Z</time>
      </trkpt>
      <trkpt lat="43.42163" lon="6.07885">
        <ele>237.19999694824</ele>
        <time>2015-10-07T12:23:44Z</time>
      </trkpt>
      <trkpt lat="43.42189" lon="6.07883">
        <ele>237</ele>
        <time>2015-10-07T12:23:48Z</time>
      </trkpt>
      <trkpt lat="43.42194" lon="6.07886">
        <ele>236.80000305176</ele>
        <time>2015-10-07T12:23:49Z</time>
      </trkpt>
      <trkpt lat="43.42211" lon="6.07892">
        <ele>236.60000610352</ele>
        <time>2015-10-07T12:23:53Z</time>
      </trkpt>
      <trkpt lat="43.42226" lon="6.07897">
        <ele>237.39999389648</ele>
        <time>2015-10-07T12:23:58Z</time>
      </trkpt>
      <trkpt lat="43.42228" lon="6.07898">
        <ele>237.39999389648</ele>
        <time>2015-10-07T12:23:59Z</time>
      </trkpt>
      <trkpt lat="43.42234" lon="6.079">
        <ele>238</ele>
        <time>2015-10-07T12:24:02Z</time>
      </trkpt>
      <trkpt lat="43.42235" lon="6.07905">
        <ele>238.39999389648</ele>
        <time>2015-10-07T12:24:04Z</time>
      </trkpt>
      <trkpt lat="43.42241" lon="6.0793">
        <ele>239.60000610352</ele>
        <time>2015-10-07T12:24:11Z</time>
      </trkpt>
      <trkpt lat="43.42247" lon="6.07957">
        <ele>238.80000305176</ele>
        <time>2015-10-07T12:24:17Z</time>
      </trkpt>
      <trkpt lat="43.42251" lon="6.07968">
        <ele>238.39999389648</ele>
        <time>2015-10-07T12:24:19Z</time>
      </trkpt>
      <trkpt lat="43.42258" lon="6.07974">
        <ele>237.60000610352</ele>
        <time>2015-10-07T12:24:21Z</time>
      </trkpt>
      <trkpt lat="43.42262" lon="6.07975">
        <ele>237.19999694824</ele>
        <time>2015-10-07T12:24:22Z</time>
      </trkpt>
      <trkpt lat="43.42268" lon="6.07972">
        <ele>237.19999694824</ele>
        <time>2015-10-07T12:24:24Z</time>
      </trkpt>
      <trkpt lat="43.42274" lon="6.07968">
        <ele>237.19999694824</ele>
        <time>2015-10-07T12:24:26Z</time>
      </trkpt>
      <trkpt lat="43.42286" lon="6.07967">
        <ele>238.19999694824</ele>
        <time>2015-10-07T12:24:30Z</time>
      </trkpt>
      <trkpt lat="43.42299" lon="6.07976">
        <ele>238.39999389648</ele>
        <time>2015-10-07T12:24:35Z</time>
      </trkpt>
      <trkpt lat="43.42316" lon="6.07998">
        <ele>238.60000610352</ele>
        <time>2015-10-07T12:24:42Z</time>
      </trkpt>
      <trkpt lat="43.42328" lon="6.08009">
        <ele>239.60000610352</ele>
        <time>2015-10-07T12:24:48Z</time>
      </trkpt>
      <trkpt lat="43.42336" lon="6.08005">
        <ele>240.19999694824</ele>
        <time>2015-10-07T12:24:52Z</time>
      </trkpt>
      <trkpt lat="43.42341" lon="6.07995">
        <ele>240.80000305176</ele>
        <time>2015-10-07T12:24:57Z</time>
      </trkpt>
      <trkpt lat="43.42343" lon="6.07986">
        <ele>242</ele>
        <time>2015-10-07T12:25:01Z</time>
      </trkpt>
      <trkpt lat="43.42347" lon="6.07981">
        <ele>243</ele>
        <time>2015-10-07T12:25:04Z</time>
      </trkpt>
      <trkpt lat="43.42348" lon="6.07979">
        <ele>243.39999389648</ele>
        <time>2015-10-07T12:25:05Z</time>
      </trkpt>
      <trkpt lat="43.42353" lon="6.07973">
        <ele>244.19999694824</ele>
        <time>2015-10-07T12:25:09Z</time>
      </trkpt>
      <trkpt lat="43.42367" lon="6.07956">
        <ele>244.60000610352</ele>
        <time>2015-10-07T12:25:18Z</time>
      </trkpt>
      <trkpt lat="43.42378" lon="6.07947">
        <ele>244.39999389648</ele>
        <time>2015-10-07T12:25:23Z</time>
      </trkpt>
      <trkpt lat="43.42381" lon="6.07945">
        <ele>244.19999694824</ele>
        <time>2015-10-07T12:25:24Z</time>
      </trkpt>
      <trkpt lat="43.4239" lon="6.07931">
        <ele>244.60000610352</ele>
        <time>2015-10-07T12:25:30Z</time>
      </trkpt>
      <trkpt lat="43.42408" lon="6.07921">
        <ele>244.39999389648</ele>
        <time>2015-10-07T12:25:37Z</time>
      </trkpt>
      <trkpt lat="43.4242" lon="6.07919">
        <ele>244.60000610352</ele>
        <time>2015-10-07T12:25:42Z</time>
      </trkpt>
      <trkpt lat="43.42441" lon="6.07922">
        <ele>244.19999694824</ele>
        <time>2015-10-07T12:25:49Z</time>
      </trkpt>
      <trkpt lat="43.42456" lon="6.07924">
        <ele>244.60000610352</ele>
        <time>2015-10-07T12:25:54Z</time>
      </trkpt>
      <trkpt lat="43.42459" lon="6.07925">
        <ele>244.60000610352</ele>
        <time>2015-10-07T12:25:55Z</time>
      </trkpt>
      <trkpt lat="43.42469" lon="6.07918">
        <ele>245.80000305176</ele>
        <time>2015-10-07T12:26:00Z</time>
      </trkpt>
      <trkpt lat="43.42486" lon="6.07908">
        <ele>246</ele>
        <time>2015-10-07T12:26:08Z</time>
      </trkpt>
      <trkpt lat="43.42496" lon="6.07904">
        <ele>246.19999694824</ele>
        <time>2015-10-07T12:26:13Z</time>
      </trkpt>
      <trkpt lat="43.42516" lon="6.07902">
        <ele>247.19999694824</ele>
        <time>2015-10-07T12:26:20Z</time>
      </trkpt>
      <trkpt lat="43.42529" lon="6.07899">
        <ele>248.19999694824</ele>
        <time>2015-10-07T12:26:26Z</time>
      </trkpt>
      <trkpt lat="43.42535" lon="6.079">
        <ele>248.39999389648</ele>
        <time>2015-10-07T12:26:29Z</time>
      </trkpt>
      <trkpt lat="43.42539" lon="6.07902">
        <ele>248.60000610352</ele>
        <time>2015-10-07T12:26:31Z</time>
      </trkpt>
      <trkpt lat="43.42553" lon="6.07909">
        <ele>249.19999694824</ele>
        <time>2015-10-07T12:26:37Z</time>
      </trkpt>
      <trkpt lat="43.42557" lon="6.07919">
        <ele>249.60000610352</ele>
        <time>2015-10-07T12:26:40Z</time>
      </trkpt>
      <trkpt lat="43.42559" lon="6.07925">
        <ele>249.60000610352</ele>
        <time>2015-10-07T12:26:42Z</time>
      </trkpt>
      <trkpt lat="43.42567" lon="6.07942">
        <ele>250.60000610352</ele>
        <time>2015-10-07T12:26:48Z</time>
      </trkpt>
      <trkpt lat="43.42568" lon="6.07944">
        <ele>251</ele>
        <time>2015-10-07T12:26:49Z</time>
      </trkpt>
      <trkpt lat="43.4258" lon="6.07952">
        <ele>251.60000610352</ele>
        <time>2015-10-07T12:26:55Z</time>
      </trkpt>
      <trkpt lat="43.42581" lon="6.07952">
        <ele>251.60000610352</ele>
        <time>2015-10-07T12:26:59Z</time>
      </trkpt>
      <trkpt lat="43.42583" lon="6.07953">
        <ele>251.60000610352</ele>
        <time>2015-10-07T12:27:07Z</time>
      </trkpt>
      <trkpt lat="43.42586" lon="6.07955">
        <ele>251.19999694824</ele>
        <time>2015-10-07T12:27:13Z</time>
      </trkpt>
      <trkpt lat="43.42587" lon="6.07956">
        <ele>251.60000610352</ele>
        <time>2015-10-07T12:27:17Z</time>
      </trkpt>
      <trkpt lat="43.42587" lon="6.07956">
        <ele>251.60000610352</ele>
        <time>2015-10-07T12:27:20Z</time>
      </trkpt>
      <trkpt lat="43.42587" lon="6.07956">
        <ele>251.80000305176</ele>
        <time>2015-10-07T12:27:21Z</time>
      </trkpt>
      <trkpt lat="43.42587" lon="6.07956">
        <ele>252</ele>
        <time>2015-10-07T12:27:24Z</time>
      </trkpt>
      <trkpt lat="43.42591" lon="6.0796">
        <ele>252.39999389648</ele>
        <time>2015-10-07T12:27:30Z</time>
      </trkpt>
      <trkpt lat="43.42593" lon="6.07962">
        <ele>253</ele>
        <time>2015-10-07T12:27:32Z</time>
      </trkpt>
      <trkpt lat="43.42594" lon="6.07964">
        <ele>253</ele>
        <time>2015-10-07T12:27:33Z</time>
      </trkpt>
      <trkpt lat="43.42595" lon="6.07966">
        <ele>253.19999694824</ele>
        <time>2015-10-07T12:27:35Z</time>
      </trkpt>
      <trkpt lat="43.42602" lon="6.07973">
        <ele>254</ele>
        <time>2015-10-07T12:27:41Z</time>
      </trkpt>
      <trkpt lat="43.42603" lon="6.07975">
        <ele>254.19999694824</ele>
        <time>2015-10-07T12:27:42Z</time>
      </trkpt>
      <trkpt lat="43.42612" lon="6.07985">
        <ele>254</ele>
        <time>2015-10-07T12:27:47Z</time>
      </trkpt>
      <trkpt lat="43.4262" lon="6.08004">
        <ele>255</ele>
        <time>2015-10-07T12:27:53Z</time>
      </trkpt>
      <trkpt lat="43.42621" lon="6.08019">
        <ele>255.19999694824</ele>
        <time>2015-10-07T12:27:58Z</time>
      </trkpt>
      <trkpt lat="43.42622" lon="6.08022">
        <ele>255.60000610352</ele>
        <time>2015-10-07T12:27:59Z</time>
      </trkpt>
      <trkpt lat="43.42622" lon="6.08045">
        <ele>255.80000305176</ele>
        <time>2015-10-07T12:28:05Z</time>
      </trkpt>
      <trkpt lat="43.42621" lon="6.0806">
        <ele>256.20001220703</ele>
        <time>2015-10-07T12:28:09Z</time>
      </trkpt>
      <trkpt lat="43.42623" lon="6.08069">
        <ele>256.79998779297</ele>
        <time>2015-10-07T12:28:12Z</time>
      </trkpt>
      <trkpt lat="43.42624" lon="6.08076">
        <ele>257.39999389648</ele>
        <time>2015-10-07T12:28:14Z</time>
      </trkpt>
      <trkpt lat="43.4263" lon="6.08085">
        <ele>258.20001220703</ele>
        <time>2015-10-07T12:28:18Z</time>
      </trkpt>
      <trkpt lat="43.42643" lon="6.08089">
        <ele>258.60000610352</ele>
        <time>2015-10-07T12:28:23Z</time>
      </trkpt>
      <trkpt lat="43.42646" lon="6.08086">
        <ele>258.60000610352</ele>
        <time>2015-10-07T12:28:24Z</time>
      </trkpt>
      <trkpt lat="43.42653" lon="6.08078">
        <ele>258</ele>
        <time>2015-10-07T12:28:27Z</time>
      </trkpt>
      <trkpt lat="43.42669" lon="6.08075">
        <ele>258.60000610352</ele>
        <time>2015-10-07T12:28:33Z</time>
      </trkpt>
      <trkpt lat="43.42682" lon="6.08088">
        <ele>258.79998779297</ele>
        <time>2015-10-07T12:28:39Z</time>
      </trkpt>
      <trkpt lat="43.42699" lon="6.08102">
        <ele>259.79998779297</ele>
        <time>2015-10-07T12:28:46Z</time>
      </trkpt>
      <trkpt lat="43.42718" lon="6.08115">
        <ele>260</ele>
        <time>2015-10-07T12:28:53Z</time>
      </trkpt>
      <trkpt lat="43.42731" lon="6.08128">
        <ele>260.79998779297</ele>
        <time>2015-10-07T12:29:00Z</time>
      </trkpt>
      <trkpt lat="43.42743" lon="6.08144">
        <ele>261.20001220703</ele>
        <time>2015-10-07T12:29:07Z</time>
      </trkpt>
      <trkpt lat="43.42752" lon="6.08145">
        <ele>261.20001220703</ele>
        <time>2015-10-07T12:29:12Z</time>
      </trkpt>
      <trkpt lat="43.4276" lon="6.0815">
        <ele>262</ele>
        <time>2015-10-07T12:29:17Z</time>
      </trkpt>
      <trkpt lat="43.42761" lon="6.08153">
        <ele>262</ele>
        <time>2015-10-07T12:29:18Z</time>
      </trkpt>
      <trkpt lat="43.42769" lon="6.08167">
        <ele>263</ele>
        <time>2015-10-07T12:29:25Z</time>
      </trkpt>
      <trkpt lat="43.4278" lon="6.08179">
        <ele>263.79998779297</ele>
        <time>2015-10-07T12:29:32Z</time>
      </trkpt>
      <trkpt lat="43.42781" lon="6.08182">
        <ele>264</ele>
        <time>2015-10-07T12:29:33Z</time>
      </trkpt>
      <trkpt lat="43.42785" lon="6.08196">
        <ele>263.79998779297</ele>
        <time>2015-10-07T12:29:38Z</time>
      </trkpt>
      <trkpt lat="43.42786" lon="6.08216">
        <ele>264.79998779297</ele>
        <time>2015-10-07T12:29:45Z</time>
      </trkpt>
      <trkpt lat="43.4279" lon="6.08237">
        <ele>264.60000610352</ele>
        <time>2015-10-07T12:29:52Z</time>
      </trkpt>
      <trkpt lat="43.42791" lon="6.08239">
        <ele>265.20001220703</ele>
        <time>2015-10-07T12:29:53Z</time>
      </trkpt>
      <trkpt lat="43.42794" lon="6.08254">
        <ele>266.20001220703</ele>
        <time>2015-10-07T12:29:58Z</time>
      </trkpt>
      <trkpt lat="43.42796" lon="6.08255">
        <ele>266.39999389648</ele>
        <time>2015-10-07T12:29:59Z</time>
      </trkpt>
      <trkpt lat="43.42799" lon="6.0826">
        <ele>267</ele>
        <time>2015-10-07T12:30:05Z</time>
      </trkpt>
      <trkpt lat="43.42799" lon="6.0826">
        <ele>267</ele>
        <time>2015-10-07T12:30:10Z</time>
      </trkpt>
      <trkpt lat="43.42799" lon="6.0826">
        <ele>267.20001220703</ele>
        <time>2015-10-07T12:30:12Z</time>
      </trkpt>
      <trkpt lat="43.42799" lon="6.0826">
        <ele>267.79998779297</ele>
        <time>2015-10-07T12:30:18Z</time>
      </trkpt>
      <trkpt lat="43.42799" lon="6.0826">
        <ele>268</ele>
        <time>2015-10-07T12:30:22Z</time>
      </trkpt>
      <trkpt lat="43.42799" lon="6.0826">
        <ele>267.60000610352</ele>
        <time>2015-10-07T12:30:28Z</time>
      </trkpt>
      <trkpt lat="43.42799" lon="6.0826">
        <ele>267.60000610352</ele>
        <time>2015-10-07T12:30:30Z</time>
      </trkpt>
      <trkpt lat="43.42799" lon="6.08259">
        <ele>267.39999389648</ele>
        <time>2015-10-07T12:30:38Z</time>
      </trkpt>
      <trkpt lat="43.42798" lon="6.08259">
        <ele>267.60000610352</ele>
        <time>2015-10-07T12:30:44Z</time>
      </trkpt>
      <trkpt lat="43.42798" lon="6.08259">
        <ele>268.20001220703</ele>
        <time>2015-10-07T12:30:51Z</time>
      </trkpt>
      <trkpt lat="43.42798" lon="6.08258">
        <ele>267.79998779297</ele>
        <time>2015-10-07T12:31:00Z</time>
      </trkpt>
      <trkpt lat="43.42798" lon="6.08258">
        <ele>267.79998779297</ele>
        <time>2015-10-07T12:31:06Z</time>
      </trkpt>
      <trkpt lat="43.42798" lon="6.08258">
        <ele>267.60000610352</ele>
        <time>2015-10-07T12:31:45Z</time>
      </trkpt>
      <trkpt lat="43.42798" lon="6.08258">
        <ele>267.20001220703</ele>
        <time>2015-10-07T12:32:29Z</time>
      </trkpt>
      <trkpt lat="43.42798" lon="6.08258">
        <ele>266.79998779297</ele>
        <time>2015-10-07T12:32:38Z</time>
      </trkpt>
      <trkpt lat="43.42799" lon="6.08258">
        <ele>267</ele>
        <time>2015-10-07T12:32:42Z</time>
      </trkpt>
      <trkpt lat="43.42799" lon="6.08258">
        <ele>266</ele>
        <time>2015-10-07T12:32:48Z</time>
      </trkpt>
      <trkpt lat="43.42798" lon="6.08259">
        <ele>265.39999389648</ele>
        <time>2015-10-07T12:33:02Z</time>
      </trkpt>
      <trkpt lat="43.42798" lon="6.08259">
        <ele>266</ele>
        <time>2015-10-07T12:33:09Z</time>
      </trkpt>
      <trkpt lat="43.42798" lon="6.08258">
        <ele>266.60000610352</ele>
        <time>2015-10-07T12:33:28Z</time>
      </trkpt>
      <trkpt lat="43.42798" lon="6.08258">
        <ele>266</ele>
        <time>2015-10-07T12:33:38Z</time>
      </trkpt>
      <trkpt lat="43.42798" lon="6.08259">
        <ele>265.79998779297</ele>
        <time>2015-10-07T12:34:37Z</time>
      </trkpt>
      <trkpt lat="43.42797" lon="6.08259">
        <ele>265.79998779297</ele>
        <time>2015-10-07T12:35:26Z</time>
      </trkpt>
      <trkpt lat="43.42797" lon="6.08259">
        <ele>266.39999389648</ele>
        <time>2015-10-07T12:35:37Z</time>
      </trkpt>
      <trkpt lat="43.42797" lon="6.08259">
        <ele>266.39999389648</ele>
        <time>2015-10-07T12:36:16Z</time>
      </trkpt>
      <trkpt lat="43.42797" lon="6.08259">
        <ele>266.39999389648</ele>
        <time>2015-10-07T12:36:24Z</time>
      </trkpt>
      <trkpt lat="43.42797" lon="6.08259">
        <ele>266.20001220703</ele>
        <time>2015-10-07T12:36:31Z</time>
      </trkpt>
      <trkpt lat="43.42797" lon="6.08258">
        <ele>265.60000610352</ele>
        <time>2015-10-07T12:37:33Z</time>
      </trkpt>
      <trkpt lat="43.42797" lon="6.08259">
        <ele>267</ele>
        <time>2015-10-07T12:42:05Z</time>
      </trkpt>
      <trkpt lat="43.42797" lon="6.08259">
        <ele>265.60000610352</ele>
        <time>2015-10-07T12:43:29Z</time>
      </trkpt>
      <trkpt lat="43.42797" lon="6.08259">
        <ele>266</ele>
        <time>2015-10-07T12:43:54Z</time>
      </trkpt>
      <trkpt lat="43.42797" lon="6.08259">
        <ele>265</ele>
        <time>2015-10-07T12:43:58Z</time>
      </trkpt>
      <trkpt lat="43.42797" lon="6.08259">
        <ele>267</ele>
        <time>2015-10-07T12:46:47Z</time>
      </trkpt>
      <trkpt lat="43.42797" lon="6.08259">
        <ele>266.79998779297</ele>
        <time>2015-10-07T12:47:01Z</time>
      </trkpt>
      <trkpt lat="43.42797" lon="6.08259">
        <ele>266.79998779297</ele>
        <time>2015-10-07T12:47:14Z</time>
      </trkpt>
      <trkpt lat="43.42797" lon="6.08259">
        <ele>266.39999389648</ele>
        <time>2015-10-07T12:47:57Z</time>
      </trkpt>
      <trkpt lat="43.42797" lon="6.08259">
        <ele>266.79998779297</ele>
        <time>2015-10-07T12:48:04Z</time>
      </trkpt>
      <trkpt lat="43.42796" lon="6.08261">
        <ele>267.20001220703</ele>
        <time>2015-10-07T12:48:17Z</time>
      </trkpt>
      <trkpt lat="43.42794" lon="6.08262">
        <ele>267</ele>
        <time>2015-10-07T12:48:25Z</time>
      </trkpt>
      <trkpt lat="43.42794" lon="6.08263">
        <ele>267</ele>
        <time>2015-10-07T12:48:27Z</time>
      </trkpt>
      <trkpt lat="43.42795" lon="6.08263">
        <ele>267.20001220703</ele>
        <time>2015-10-07T12:48:44Z</time>
      </trkpt>
      <trkpt lat="43.42795" lon="6.08263">
        <ele>266.79998779297</ele>
        <time>2015-10-07T12:48:47Z</time>
      </trkpt>
      <trkpt lat="43.42795" lon="6.08263">
        <ele>265.79998779297</ele>
        <time>2015-10-07T12:48:51Z</time>
      </trkpt>
      <trkpt lat="43.42796" lon="6.08263">
        <ele>266.20001220703</ele>
        <time>2015-10-07T12:48:54Z</time>
      </trkpt>
      <trkpt lat="43.42796" lon="6.08262">
        <ele>266.79998779297</ele>
        <time>2015-10-07T12:49:01Z</time>
      </trkpt>
      <trkpt lat="43.42798" lon="6.08262">
        <ele>266.79998779297</ele>
        <time>2015-10-07T12:49:03Z</time>
      </trkpt>
      <trkpt lat="43.42805" lon="6.0826">
        <ele>267.20001220703</ele>
        <time>2015-10-07T12:49:06Z</time>
      </trkpt>
      <trkpt lat="43.42818" lon="6.08259">
        <ele>267.60000610352</ele>
        <time>2015-10-07T12:49:13Z</time>
      </trkpt>
      <trkpt lat="43.4283" lon="6.08269">
        <ele>267.20001220703</ele>
        <time>2015-10-07T12:49:18Z</time>
      </trkpt>
      <trkpt lat="43.42839" lon="6.08296">
        <ele>266.79998779297</ele>
        <time>2015-10-07T12:49:24Z</time>
      </trkpt>
      <trkpt lat="43.42841" lon="6.08319">
        <ele>266.79998779297</ele>
        <time>2015-10-07T12:49:29Z</time>
      </trkpt>
      <trkpt lat="43.42844" lon="6.08334">
        <ele>267.39999389648</ele>
        <time>2015-10-07T12:49:32Z</time>
      </trkpt>
      <trkpt lat="43.42848" lon="6.08348">
        <ele>268</ele>
        <time>2015-10-07T12:49:35Z</time>
      </trkpt>
      <trkpt lat="43.4285" lon="6.08357">
        <ele>268</ele>
        <time>2015-10-07T12:49:37Z</time>
      </trkpt>
      <trkpt lat="43.42857" lon="6.08381">
        <ele>268</ele>
        <time>2015-10-07T12:49:42Z</time>
      </trkpt>
      <trkpt lat="43.42859" lon="6.08386">
        <ele>268</ele>
        <time>2015-10-07T12:49:43Z</time>
      </trkpt>
      <trkpt lat="43.42865" lon="6.08412">
        <ele>269</ele>
        <time>2015-10-07T12:49:50Z</time>
      </trkpt>
      <trkpt lat="43.42894" lon="6.08453">
        <ele>270.20001220703</ele>
        <time>2015-10-07T12:50:03Z</time>
      </trkpt>
      <trkpt lat="43.42899" lon="6.08462">
        <ele>270.60000610352</ele>
        <time>2015-10-07T12:50:06Z</time>
      </trkpt>
      <trkpt lat="43.42912" lon="6.08483">
        <ele>271.20001220703</ele>
        <time>2015-10-07T12:50:12Z</time>
      </trkpt>
      <trkpt lat="43.42914" lon="6.08487">
        <ele>271.20001220703</ele>
        <time>2015-10-07T12:50:13Z</time>
      </trkpt>
      <trkpt lat="43.42931" lon="6.08502">
        <ele>270.79998779297</ele>
        <time>2015-10-07T12:50:18Z</time>
      </trkpt>
      <trkpt lat="43.42937" lon="6.08509">
        <ele>271</ele>
        <time>2015-10-07T12:50:20Z</time>
      </trkpt>
      <trkpt lat="43.42947" lon="6.08525">
        <ele>271</ele>
        <time>2015-10-07T12:50:24Z</time>
      </trkpt>
      <trkpt lat="43.42952" lon="6.08547">
        <ele>271.20001220703</ele>
        <time>2015-10-07T12:50:29Z</time>
      </trkpt>
      <trkpt lat="43.4296" lon="6.08577">
        <ele>271.39999389648</ele>
        <time>2015-10-07T12:50:37Z</time>
      </trkpt>
      <trkpt lat="43.42967" lon="6.08606">
        <ele>271.79998779297</ele>
        <time>2015-10-07T12:50:45Z</time>
      </trkpt>
      <trkpt lat="43.42973" lon="6.08628">
        <ele>272.20001220703</ele>
        <time>2015-10-07T12:50:51Z</time>
      </trkpt>
      <trkpt lat="43.42974" lon="6.08631">
        <ele>272.39999389648</ele>
        <time>2015-10-07T12:50:52Z</time>
      </trkpt>
      <trkpt lat="43.4298" lon="6.08654">
        <ele>272.60000610352</ele>
        <time>2015-10-07T12:50:58Z</time>
      </trkpt>
      <trkpt lat="43.42984" lon="6.08674">
        <ele>273.20001220703</ele>
        <time>2015-10-07T12:51:04Z</time>
      </trkpt>
      <trkpt lat="43.4299" lon="6.087">
        <ele>273.39999389648</ele>
        <time>2015-10-07T12:51:10Z</time>
      </trkpt>
      <trkpt lat="43.42992" lon="6.08704">
        <ele>273.79998779297</ele>
        <time>2015-10-07T12:51:11Z</time>
      </trkpt>
      <trkpt lat="43.43002" lon="6.08728">
        <ele>274</ele>
        <time>2015-10-07T12:51:17Z</time>
      </trkpt>
      <trkpt lat="43.43009" lon="6.08744">
        <ele>274.20001220703</ele>
        <time>2015-10-07T12:51:23Z</time>
      </trkpt>
      <trkpt lat="43.43016" lon="6.08764">
        <ele>275</ele>
        <time>2015-10-07T12:51:29Z</time>
      </trkpt>
      <trkpt lat="43.43018" lon="6.08784">
        <ele>275.20001220703</ele>
        <time>2015-10-07T12:51:34Z</time>
      </trkpt>
      <trkpt lat="43.43019" lon="6.08811">
        <ele>276</ele>
        <time>2015-10-07T12:51:41Z</time>
      </trkpt>
      <trkpt lat="43.43021" lon="6.08823">
        <ele>276</ele>
        <time>2015-10-07T12:51:45Z</time>
      </trkpt>
      <trkpt lat="43.43022" lon="6.08827">
        <ele>276.39999389648</ele>
        <time>2015-10-07T12:51:47Z</time>
      </trkpt>
      <trkpt lat="43.43024" lon="6.08833">
        <ele>277.20001220703</ele>
        <time>2015-10-07T12:51:50Z</time>
      </trkpt>
      <trkpt lat="43.43026" lon="6.08845">
        <ele>276.60000610352</ele>
        <time>2015-10-07T12:51:54Z</time>
      </trkpt>
      <trkpt lat="43.43024" lon="6.08864">
        <ele>277.20001220703</ele>
        <time>2015-10-07T12:51:59Z</time>
      </trkpt>
      <trkpt lat="43.43023" lon="6.08885">
        <ele>278.20001220703</ele>
        <time>2015-10-07T12:52:05Z</time>
      </trkpt>
      <trkpt lat="43.43024" lon="6.08899">
        <ele>278.20001220703</ele>
        <time>2015-10-07T12:52:09Z</time>
      </trkpt>
      <trkpt lat="43.43022" lon="6.08906">
        <ele>278.39999389648</ele>
        <time>2015-10-07T12:52:11Z</time>
      </trkpt>
      <trkpt lat="43.43018" lon="6.08924">
        <ele>278.60000610352</ele>
        <time>2015-10-07T12:52:17Z</time>
      </trkpt>
      <trkpt lat="43.43019" lon="6.08926">
        <ele>278.79998779297</ele>
        <time>2015-10-07T12:52:18Z</time>
      </trkpt>
      <trkpt lat="43.43021" lon="6.0893">
        <ele>279.20001220703</ele>
        <time>2015-10-07T12:52:20Z</time>
      </trkpt>
      <trkpt lat="43.43021" lon="6.08932">
        <ele>279.20001220703</ele>
        <time>2015-10-07T12:52:22Z</time>
      </trkpt>
      <trkpt lat="43.43021" lon="6.08931">
        <ele>279.39999389648</ele>
        <time>2015-10-07T12:52:27Z</time>
      </trkpt>
      <trkpt lat="43.43021" lon="6.08931">
        <ele>279.20001220703</ele>
        <time>2015-10-07T12:52:29Z</time>
      </trkpt>
      <trkpt lat="43.43021" lon="6.08931">
        <ele>279.20001220703</ele>
        <time>2015-10-07T12:52:33Z</time>
      </trkpt>
      <trkpt lat="43.43022" lon="6.08932">
        <ele>279</ele>
        <time>2015-10-07T12:52:39Z</time>
      </trkpt>
      <trkpt lat="43.43022" lon="6.08932">
        <ele>279.20001220703</ele>
        <time>2015-10-07T12:52:49Z</time>
      </trkpt>
      <trkpt lat="43.43022" lon="6.08933">
        <ele>278.79998779297</ele>
        <time>2015-10-07T12:53:01Z</time>
      </trkpt>
      <trkpt lat="43.43022" lon="6.08933">
        <ele>279.20001220703</ele>
        <time>2015-10-07T12:53:14Z</time>
      </trkpt>
      <trkpt lat="43.43022" lon="6.08933">
        <ele>279</ele>
        <time>2015-10-07T12:53:31Z</time>
      </trkpt>
      <trkpt lat="43.43022" lon="6.08933">
        <ele>279.20001220703</ele>
        <time>2015-10-07T12:54:08Z</time>
      </trkpt>
      <trkpt lat="43.43022" lon="6.08934">
        <ele>279.79998779297</ele>
        <time>2015-10-07T12:54:16Z</time>
      </trkpt>
      <trkpt lat="43.43023" lon="6.08938">
        <ele>279.60000610352</ele>
        <time>2015-10-07T12:54:18Z</time>
      </trkpt>
      <trkpt lat="43.43023" lon="6.08941">
        <ele>279.39999389648</ele>
        <time>2015-10-07T12:54:19Z</time>
      </trkpt>
      <trkpt lat="43.43026" lon="6.08966">
        <ele>280.39999389648</ele>
        <time>2015-10-07T12:54:27Z</time>
      </trkpt>
      <trkpt lat="43.43026" lon="6.08974">
        <ele>280.79998779297</ele>
        <time>2015-10-07T12:54:29Z</time>
      </trkpt>
      <trkpt lat="43.43024" lon="6.08989">
        <ele>281</ele>
        <time>2015-10-07T12:54:32Z</time>
      </trkpt>
      <trkpt lat="43.43023" lon="6.08994">
        <ele>281.39999389648</ele>
        <time>2015-10-07T12:54:33Z</time>
      </trkpt>
      <trkpt lat="43.43023" lon="6.09005">
        <ele>282</ele>
        <time>2015-10-07T12:54:35Z</time>
      </trkpt>
      <trkpt lat="43.43023" lon="6.09016">
        <ele>282.79998779297</ele>
        <time>2015-10-07T12:54:37Z</time>
      </trkpt>
      <trkpt lat="43.43022" lon="6.09027">
        <ele>282.60000610352</ele>
        <time>2015-10-07T12:54:39Z</time>
      </trkpt>
      <trkpt lat="43.4302" lon="6.09037">
        <ele>282.79998779297</ele>
        <time>2015-10-07T12:54:41Z</time>
      </trkpt>
      <trkpt lat="43.4302" lon="6.09041">
        <ele>283</ele>
        <time>2015-10-07T12:54:42Z</time>
      </trkpt>
      <trkpt lat="43.43016" lon="6.09049">
        <ele>283.39999389648</ele>
        <time>2015-10-07T12:54:45Z</time>
      </trkpt>
      <trkpt lat="43.43004" lon="6.09056">
        <ele>283.39999389648</ele>
        <time>2015-10-07T12:54:52Z</time>
      </trkpt>
      <trkpt lat="43.43" lon="6.0906">
        <ele>283.39999389648</ele>
        <time>2015-10-07T12:54:57Z</time>
      </trkpt>
      <trkpt lat="43.42994" lon="6.09069">
        <ele>284.20001220703</ele>
        <time>2015-10-07T12:55:05Z</time>
      </trkpt>
      <trkpt lat="43.42992" lon="6.09072">
        <ele>284.39999389648</ele>
        <time>2015-10-07T12:55:11Z</time>
      </trkpt>
      <trkpt lat="43.42992" lon="6.09072">
        <ele>284.60000610352</ele>
        <time>2015-10-07T12:55:28Z</time>
      </trkpt>
      <trkpt lat="43.42992" lon="6.09072">
        <ele>285</ele>
        <time>2015-10-07T12:55:30Z</time>
      </trkpt>
      <trkpt lat="43.42993" lon="6.09072">
        <ele>285.20001220703</ele>
        <time>2015-10-07T12:55:36Z</time>
      </trkpt>
      <trkpt lat="43.42996" lon="6.09073">
        <ele>284.60000610352</ele>
        <time>2015-10-07T12:55:40Z</time>
      </trkpt>
      <trkpt lat="43.43002" lon="6.09078">
        <ele>284.60000610352</ele>
        <time>2015-10-07T12:55:45Z</time>
      </trkpt>
      <trkpt lat="43.43003" lon="6.0908">
        <ele>284.79998779297</ele>
        <time>2015-10-07T12:55:46Z</time>
      </trkpt>
      <trkpt lat="43.43005" lon="6.09091">
        <ele>285.39999389648</ele>
        <time>2015-10-07T12:55:51Z</time>
      </trkpt>
      <trkpt lat="43.43003" lon="6.09105">
        <ele>286.60000610352</ele>
        <time>2015-10-07T12:55:55Z</time>
      </trkpt>
      <trkpt lat="43.43003" lon="6.09108">
        <ele>286.79998779297</ele>
        <time>2015-10-07T12:55:56Z</time>
      </trkpt>
      <trkpt lat="43.43005" lon="6.09111">
        <ele>286.79998779297</ele>
        <time>2015-10-07T12:55:57Z</time>
      </trkpt>
      <trkpt lat="43.43005" lon="6.09113">
        <ele>286.79998779297</ele>
        <time>2015-10-07T12:55:58Z</time>
      </trkpt>
      <trkpt lat="43.43007" lon="6.09118">
        <ele>287.39999389648</ele>
        <time>2015-10-07T12:56:01Z</time>
      </trkpt>
      <trkpt lat="43.43007" lon="6.0912">
        <ele>287.79998779297</ele>
        <time>2015-10-07T12:56:04Z</time>
      </trkpt>
      <trkpt lat="43.43007" lon="6.0912">
        <ele>287.79998779297</ele>
        <time>2015-10-07T12:56:05Z</time>
      </trkpt>
      <trkpt lat="43.43008" lon="6.09124">
        <ele>288</ele>
        <time>2015-10-07T12:56:09Z</time>
      </trkpt>
      <trkpt lat="43.43008" lon="6.0913">
        <ele>287.60000610352</ele>
        <time>2015-10-07T12:56:12Z</time>
      </trkpt>
      <trkpt lat="43.4301" lon="6.0915">
        <ele>287.20001220703</ele>
        <time>2015-10-07T12:56:17Z</time>
      </trkpt>
      <trkpt lat="43.43008" lon="6.09159">
        <ele>286.60000610352</ele>
        <time>2015-10-07T12:56:19Z</time>
      </trkpt>
      <trkpt lat="43.43007" lon="6.09165">
        <ele>286.39999389648</ele>
        <time>2015-10-07T12:56:22Z</time>
      </trkpt>
      <trkpt lat="43.43008" lon="6.09165">
        <ele>286.20001220703</ele>
        <time>2015-10-07T12:56:26Z</time>
      </trkpt>
      <trkpt lat="43.43007" lon="6.09171">
        <ele>285.79998779297</ele>
        <time>2015-10-07T12:56:33Z</time>
      </trkpt>
      <trkpt lat="43.43008" lon="6.09175">
        <ele>285.39999389648</ele>
        <time>2015-10-07T12:56:36Z</time>
      </trkpt>
      <trkpt lat="43.43009" lon="6.0918">
        <ele>284.79998779297</ele>
        <time>2015-10-07T12:56:38Z</time>
      </trkpt>
      <trkpt lat="43.43011" lon="6.09183">
        <ele>284.39999389648</ele>
        <time>2015-10-07T12:56:40Z</time>
      </trkpt>
      <trkpt lat="43.43011" lon="6.09186">
        <ele>283.39999389648</ele>
        <time>2015-10-07T12:56:43Z</time>
      </trkpt>
      <trkpt lat="43.43011" lon="6.09187">
        <ele>283.39999389648</ele>
        <time>2015-10-07T12:56:44Z</time>
      </trkpt>
      <trkpt lat="43.43011" lon="6.09186">
        <ele>283</ele>
        <time>2015-10-07T12:56:50Z</time>
      </trkpt>
      <trkpt lat="43.43011" lon="6.09187">
        <ele>283.20001220703</ele>
        <time>2015-10-07T12:56:53Z</time>
      </trkpt>
      <trkpt lat="43.43011" lon="6.09187">
        <ele>283.39999389648</ele>
        <time>2015-10-07T12:56:59Z</time>
      </trkpt>
      <trkpt lat="43.43011" lon="6.09188">
        <ele>283.39999389648</ele>
        <time>2015-10-07T12:57:02Z</time>
      </trkpt>
      <trkpt lat="43.43011" lon="6.09187">
        <ele>283</ele>
        <time>2015-10-07T12:57:08Z</time>
      </trkpt>
      <trkpt lat="43.43011" lon="6.09187">
        <ele>283</ele>
        <time>2015-10-07T12:57:18Z</time>
      </trkpt>
      <trkpt lat="43.43011" lon="6.09187">
        <ele>283.39999389648</ele>
        <time>2015-10-07T12:57:31Z</time>
      </trkpt>
      <trkpt lat="43.43011" lon="6.09187">
        <ele>283.79998779297</ele>
        <time>2015-10-07T12:57:55Z</time>
      </trkpt>
      <trkpt lat="43.43011" lon="6.09187">
        <ele>284</ele>
        <time>2015-10-07T12:58:05Z</time>
      </trkpt>
      <trkpt lat="43.43012" lon="6.09188">
        <ele>284</ele>
        <time>2015-10-07T12:58:10Z</time>
      </trkpt>
      <trkpt lat="43.43012" lon="6.09189">
        <ele>283.79998779297</ele>
        <time>2015-10-07T12:58:13Z</time>
      </trkpt>
      <trkpt lat="43.43012" lon="6.0919">
        <ele>283.79998779297</ele>
        <time>2015-10-07T12:58:16Z</time>
      </trkpt>
      <trkpt lat="43.43012" lon="6.09192">
        <ele>283</ele>
        <time>2015-10-07T12:58:22Z</time>
      </trkpt>
      <trkpt lat="43.43012" lon="6.09193">
        <ele>282.60000610352</ele>
        <time>2015-10-07T12:58:23Z</time>
      </trkpt>
      <trkpt lat="43.43012" lon="6.09193">
        <ele>281.60000610352</ele>
        <time>2015-10-07T12:58:28Z</time>
      </trkpt>
      <trkpt lat="43.43013" lon="6.09194">
        <ele>281.39999389648</ele>
        <time>2015-10-07T12:58:31Z</time>
      </trkpt>
      <trkpt lat="43.43013" lon="6.09196">
        <ele>280.20001220703</ele>
        <time>2015-10-07T12:58:38Z</time>
      </trkpt>
      <trkpt lat="43.43012" lon="6.09199">
        <ele>279.79998779297</ele>
        <time>2015-10-07T12:58:42Z</time>
      </trkpt>
      <trkpt lat="43.43012" lon="6.09199">
        <ele>279.39999389648</ele>
        <time>2015-10-07T12:58:52Z</time>
      </trkpt>
      <trkpt lat="43.43012" lon="6.09199">
        <ele>279.20001220703</ele>
        <time>2015-10-07T12:59:09Z</time>
      </trkpt>
      <trkpt lat="43.43012" lon="6.09199">
        <ele>280.20001220703</ele>
        <time>2015-10-07T12:59:23Z</time>
      </trkpt>
      <trkpt lat="43.43013" lon="6.09199">
        <ele>280</ele>
        <time>2015-10-07T12:59:26Z</time>
      </trkpt>
      <trkpt lat="43.43013" lon="6.09198">
        <ele>279.20001220703</ele>
        <time>2015-10-07T12:59:30Z</time>
      </trkpt>
      <trkpt lat="43.43013" lon="6.09198">
        <ele>279.39999389648</ele>
        <time>2015-10-07T12:59:32Z</time>
      </trkpt>
      <trkpt lat="43.43013" lon="6.09198">
        <ele>279.60000610352</ele>
        <time>2015-10-07T12:59:42Z</time>
      </trkpt>
      <trkpt lat="43.43013" lon="6.09198">
        <ele>279</ele>
        <time>2015-10-07T13:00:14Z</time>
      </trkpt>
      <trkpt lat="43.43013" lon="6.09198">
        <ele>279.20001220703</ele>
        <time>2015-10-07T13:01:40Z</time>
      </trkpt>
      <trkpt lat="43.43013" lon="6.092">
        <ele>279.79998779297</ele>
        <time>2015-10-07T13:01:54Z</time>
      </trkpt>
      <trkpt lat="43.43013" lon="6.09201">
        <ele>279.60000610352</ele>
        <time>2015-10-07T13:01:55Z</time>
      </trkpt>
      <trkpt lat="43.43011" lon="6.09213">
        <ele>278.79998779297</ele>
        <time>2015-10-07T13:01:59Z</time>
      </trkpt>
      <trkpt lat="43.4301" lon="6.09222">
        <ele>277.39999389648</ele>
        <time>2015-10-07T13:02:01Z</time>
      </trkpt>
      <trkpt lat="43.4301" lon="6.09238">
        <ele>276.60000610352</ele>
        <time>2015-10-07T13:02:04Z</time>
      </trkpt>
      <trkpt lat="43.4301" lon="6.09244">
        <ele>276.39999389648</ele>
        <time>2015-10-07T13:02:05Z</time>
      </trkpt>
      <trkpt lat="43.43005" lon="6.09279">
        <ele>275.20001220703</ele>
        <time>2015-10-07T13:02:11Z</time>
      </trkpt>
      <trkpt lat="43.43004" lon="6.09285">
        <ele>275</ele>
        <time>2015-10-07T13:02:12Z</time>
      </trkpt>
      <trkpt lat="43.43004" lon="6.09295">
        <ele>274.20001220703</ele>
        <time>2015-10-07T13:02:14Z</time>
      </trkpt>
      <trkpt lat="43.43003" lon="6.09299">
        <ele>273.79998779297</ele>
        <time>2015-10-07T13:02:15Z</time>
      </trkpt>
      <trkpt lat="43.43002" lon="6.0932">
        <ele>273.39999389648</ele>
        <time>2015-10-07T13:02:21Z</time>
      </trkpt>
      <trkpt lat="43.43002" lon="6.09322">
        <ele>273</ele>
        <time>2015-10-07T13:02:22Z</time>
      </trkpt>
      <trkpt lat="43.43002" lon="6.09325">
        <ele>272.79998779297</ele>
        <time>2015-10-07T13:02:26Z</time>
      </trkpt>
      <trkpt lat="43.43002" lon="6.09333">
        <ele>273</ele>
        <time>2015-10-07T13:02:29Z</time>
      </trkpt>
      <trkpt lat="43.43002" lon="6.0934">
        <ele>272.79998779297</ele>
        <time>2015-10-07T13:02:31Z</time>
      </trkpt>
      <trkpt lat="43.43002" lon="6.09349">
        <ele>273</ele>
        <time>2015-10-07T13:02:33Z</time>
      </trkpt>
      <trkpt lat="43.42998" lon="6.09355">
        <ele>272.79998779297</ele>
        <time>2015-10-07T13:02:35Z</time>
      </trkpt>
      <trkpt lat="43.42996" lon="6.09356">
        <ele>272.79998779297</ele>
        <time>2015-10-07T13:02:36Z</time>
      </trkpt>
      <trkpt lat="43.42992" lon="6.09359">
        <ele>272.39999389648</ele>
        <time>2015-10-07T13:02:39Z</time>
      </trkpt>
      <trkpt lat="43.42992" lon="6.09361">
        <ele>271.79998779297</ele>
        <time>2015-10-07T13:02:40Z</time>
      </trkpt>
      <trkpt lat="43.42992" lon="6.09364">
        <ele>271.60000610352</ele>
        <time>2015-10-07T13:02:41Z</time>
      </trkpt>
      <trkpt lat="43.42995" lon="6.09385">
        <ele>271.20001220703</ele>
        <time>2015-10-07T13:02:46Z</time>
      </trkpt>
      <trkpt lat="43.42995" lon="6.09392">
        <ele>270.39999389648</ele>
        <time>2015-10-07T13:02:47Z</time>
      </trkpt>
      <trkpt lat="43.42994" lon="6.09414">
        <ele>269</ele>
        <time>2015-10-07T13:02:51Z</time>
      </trkpt>
      <trkpt lat="43.42993" lon="6.09434">
        <ele>268.39999389648</ele>
        <time>2015-10-07T13:02:56Z</time>
      </trkpt>
      <trkpt lat="43.42993" lon="6.09435">
        <ele>268.39999389648</ele>
        <time>2015-10-07T13:02:57Z</time>
      </trkpt>
      <trkpt lat="43.42992" lon="6.09436">
        <ele>268.39999389648</ele>
        <time>2015-10-07T13:03:04Z</time>
      </trkpt>
      <trkpt lat="43.42991" lon="6.09436">
        <ele>268.20001220703</ele>
        <time>2015-10-07T13:03:09Z</time>
      </trkpt>
      <trkpt lat="43.42986" lon="6.09437">
        <ele>268</ele>
        <time>2015-10-07T13:03:12Z</time>
      </trkpt>
      <trkpt lat="43.42983" lon="6.09438">
        <ele>267.79998779297</ele>
        <time>2015-10-07T13:03:13Z</time>
      </trkpt>
      <trkpt lat="43.42971" lon="6.09443">
        <ele>267.39999389648</ele>
        <time>2015-10-07T13:03:18Z</time>
      </trkpt>
      <trkpt lat="43.42962" lon="6.09447">
        <ele>266.79998779297</ele>
        <time>2015-10-07T13:03:23Z</time>
      </trkpt>
      <trkpt lat="43.4296" lon="6.09448">
        <ele>266.60000610352</ele>
        <time>2015-10-07T13:03:24Z</time>
      </trkpt>
      <trkpt lat="43.42955" lon="6.09451">
        <ele>266.79998779297</ele>
        <time>2015-10-07T13:03:30Z</time>
      </trkpt>
      <trkpt lat="43.42955" lon="6.09451">
        <ele>265.60000610352</ele>
        <time>2015-10-07T13:03:52Z</time>
      </trkpt>
      <trkpt lat="43.42956" lon="6.09452">
        <ele>265.60000610352</ele>
        <time>2015-10-07T13:03:55Z</time>
      </trkpt>
      <trkpt lat="43.42956" lon="6.09452">
        <ele>265.39999389648</ele>
        <time>2015-10-07T13:04:02Z</time>
      </trkpt>
      <trkpt lat="43.42956" lon="6.09452">
        <ele>266</ele>
        <time>2015-10-07T13:04:14Z</time>
      </trkpt>
      <trkpt lat="43.42956" lon="6.09452">
        <ele>266</ele>
        <time>2015-10-07T13:04:37Z</time>
      </trkpt>
      <trkpt lat="43.42956" lon="6.09452">
        <ele>265.79998779297</ele>
        <time>2015-10-07T13:04:39Z</time>
      </trkpt>
      <trkpt lat="43.42956" lon="6.09452">
        <ele>266.20001220703</ele>
        <time>2015-10-07T13:05:29Z</time>
      </trkpt>
      <trkpt lat="43.42954" lon="6.0945">
        <ele>266.39999389648</ele>
        <time>2015-10-07T13:06:06Z</time>
      </trkpt>
      <trkpt lat="43.42944" lon="6.09442">
        <ele>266</ele>
        <time>2015-10-07T13:06:11Z</time>
      </trkpt>
      <trkpt lat="43.42928" lon="6.09432">
        <ele>265.60000610352</ele>
        <time>2015-10-07T13:06:16Z</time>
      </trkpt>
      <trkpt lat="43.4291" lon="6.09414">
        <ele>265.79998779297</ele>
        <time>2015-10-07T13:06:23Z</time>
      </trkpt>
      <trkpt lat="43.42903" lon="6.09411">
        <ele>266.20001220703</ele>
        <time>2015-10-07T13:06:27Z</time>
      </trkpt>
      <trkpt lat="43.42902" lon="6.09411">
        <ele>266.39999389648</ele>
        <time>2015-10-07T13:06:28Z</time>
      </trkpt>
      <trkpt lat="43.42901" lon="6.09413">
        <ele>266.39999389648</ele>
        <time>2015-10-07T13:06:29Z</time>
      </trkpt>
      <trkpt lat="43.429" lon="6.09414">
        <ele>266.60000610352</ele>
        <time>2015-10-07T13:06:32Z</time>
      </trkpt>
      <trkpt lat="43.429" lon="6.09414">
        <ele>266.20001220703</ele>
        <time>2015-10-07T13:06:48Z</time>
      </trkpt>
      <trkpt lat="43.42899" lon="6.0942">
        <ele>266.60000610352</ele>
        <time>2015-10-07T13:06:57Z</time>
      </trkpt>
      <trkpt lat="43.42896" lon="6.09439">
        <ele>266.39999389648</ele>
        <time>2015-10-07T13:07:04Z</time>
      </trkpt>
      <trkpt lat="43.42899" lon="6.09457">
        <ele>266.20001220703</ele>
        <time>2015-10-07T13:07:09Z</time>
      </trkpt>
      <trkpt lat="43.429" lon="6.09462">
        <ele>265.79998779297</ele>
        <time>2015-10-07T13:07:10Z</time>
      </trkpt>
      <trkpt lat="43.42905" lon="6.09478">
        <ele>265.20001220703</ele>
        <time>2015-10-07T13:07:13Z</time>
      </trkpt>
      <trkpt lat="43.42907" lon="6.09484">
        <ele>265</ele>
        <time>2015-10-07T13:07:14Z</time>
      </trkpt>
      <trkpt lat="43.42906" lon="6.0949">
        <ele>265</ele>
        <time>2015-10-07T13:07:15Z</time>
      </trkpt>
      <trkpt lat="43.42903" lon="6.09508">
        <ele>264.39999389648</ele>
        <time>2015-10-07T13:07:18Z</time>
      </trkpt>
      <trkpt lat="43.42898" lon="6.09524">
        <ele>264.39999389648</ele>
        <time>2015-10-07T13:07:21Z</time>
      </trkpt>
      <trkpt lat="43.42896" lon="6.09541">
        <ele>263.79998779297</ele>
        <time>2015-10-07T13:07:24Z</time>
      </trkpt>
      <trkpt lat="43.42896" lon="6.09547">
        <ele>263.79998779297</ele>
        <time>2015-10-07T13:07:25Z</time>
      </trkpt>
      <trkpt lat="43.42897" lon="6.09553">
        <ele>263.79998779297</ele>
        <time>2015-10-07T13:07:26Z</time>
      </trkpt>
      <trkpt lat="43.42898" lon="6.09559">
        <ele>263.79998779297</ele>
        <time>2015-10-07T13:07:27Z</time>
      </trkpt>
      <trkpt lat="43.42901" lon="6.0957">
        <ele>263.20001220703</ele>
        <time>2015-10-07T13:07:29Z</time>
      </trkpt>
      <trkpt lat="43.42902" lon="6.09581">
        <ele>262.60000610352</ele>
        <time>2015-10-07T13:07:31Z</time>
      </trkpt>
      <trkpt lat="43.42897" lon="6.09598">
        <ele>262.20001220703</ele>
        <time>2015-10-07T13:07:35Z</time>
      </trkpt>
      <trkpt lat="43.42881" lon="6.09621">
        <ele>261.60000610352</ele>
        <time>2015-10-07T13:07:41Z</time>
      </trkpt>
      <trkpt lat="43.42875" lon="6.09642">
        <ele>260.60000610352</ele>
        <time>2015-10-07T13:07:46Z</time>
      </trkpt>
      <trkpt lat="43.42873" lon="6.09646">
        <ele>260.39999389648</ele>
        <time>2015-10-07T13:07:47Z</time>
      </trkpt>
      <trkpt lat="43.42861" lon="6.0967">
        <ele>260</ele>
        <time>2015-10-07T13:07:53Z</time>
      </trkpt>
      <trkpt lat="43.42845" lon="6.09695">
        <ele>258</ele>
        <time>2015-10-07T13:07:59Z</time>
      </trkpt>
      <trkpt lat="43.42834" lon="6.09713">
        <ele>257</ele>
        <time>2015-10-07T13:08:03Z</time>
      </trkpt>
      <trkpt lat="43.42828" lon="6.09723">
        <ele>256.20001220703</ele>
        <time>2015-10-07T13:08:05Z</time>
      </trkpt>
      <trkpt lat="43.42823" lon="6.09733">
        <ele>255.80000305176</ele>
        <time>2015-10-07T13:08:07Z</time>
      </trkpt>
      <trkpt lat="43.42815" lon="6.09745">
        <ele>255.80000305176</ele>
        <time>2015-10-07T13:08:10Z</time>
      </trkpt>
      <trkpt lat="43.42798" lon="6.09764">
        <ele>255.80000305176</ele>
        <time>2015-10-07T13:08:16Z</time>
      </trkpt>
      <trkpt lat="43.4278" lon="6.09771">
        <ele>254.80000305176</ele>
        <time>2015-10-07T13:08:21Z</time>
      </trkpt>
      <trkpt lat="43.42772" lon="6.09773">
        <ele>253.60000610352</ele>
        <time>2015-10-07T13:08:23Z</time>
      </trkpt>
      <trkpt lat="43.42761" lon="6.09776">
        <ele>252.80000305176</ele>
        <time>2015-10-07T13:08:26Z</time>
      </trkpt>
      <trkpt lat="43.42757" lon="6.09775">
        <ele>252.39999389648</ele>
        <time>2015-10-07T13:08:27Z</time>
      </trkpt>
      <trkpt lat="43.42745" lon="6.09769">
        <ele>252.39999389648</ele>
        <time>2015-10-07T13:08:30Z</time>
      </trkpt>
      <trkpt lat="43.42741" lon="6.09767">
        <ele>251.80000305176</ele>
        <time>2015-10-07T13:08:31Z</time>
      </trkpt>
      <trkpt lat="43.42736" lon="6.09765">
        <ele>250.80000305176</ele>
        <time>2015-10-07T13:08:32Z</time>
      </trkpt>
      <trkpt lat="43.42728" lon="6.09763">
        <ele>250.39999389648</ele>
        <time>2015-10-07T13:08:34Z</time>
      </trkpt>
      <trkpt lat="43.42723" lon="6.09763">
        <ele>250</ele>
        <time>2015-10-07T13:08:35Z</time>
      </trkpt>
      <trkpt lat="43.42719" lon="6.09763">
        <ele>249.80000305176</ele>
        <time>2015-10-07T13:08:36Z</time>
      </trkpt>
      <trkpt lat="43.42715" lon="6.09763">
        <ele>250</ele>
        <time>2015-10-07T13:08:37Z</time>
      </trkpt>
      <trkpt lat="43.42706" lon="6.09764">
        <ele>250</ele>
        <time>2015-10-07T13:08:39Z</time>
      </trkpt>
      <trkpt lat="43.4269" lon="6.09768">
        <ele>250.19999694824</ele>
        <time>2015-10-07T13:08:43Z</time>
      </trkpt>
      <trkpt lat="43.42687" lon="6.0977">
        <ele>250.19999694824</ele>
        <time>2015-10-07T13:08:44Z</time>
      </trkpt>
      <trkpt lat="43.42681" lon="6.09773">
        <ele>250</ele>
        <time>2015-10-07T13:08:46Z</time>
      </trkpt>
      <trkpt lat="43.42672" lon="6.09785">
        <ele>249.80000305176</ele>
        <time>2015-10-07T13:08:51Z</time>
      </trkpt>
      <trkpt lat="43.42672" lon="6.0979">
        <ele>250</ele>
        <time>2015-10-07T13:08:56Z</time>
      </trkpt>
      <trkpt lat="43.42672" lon="6.0979">
        <ele>249.60000610352</ele>
        <time>2015-10-07T13:09:14Z</time>
      </trkpt>
      <trkpt lat="43.42672" lon="6.0979">
        <ele>250</ele>
        <time>2015-10-07T13:09:36Z</time>
      </trkpt>
      <trkpt lat="43.42672" lon="6.09789">
        <ele>249.39999389648</ele>
        <time>2015-10-07T13:10:09Z</time>
      </trkpt>
      <trkpt lat="43.42672" lon="6.09789">
        <ele>250</ele>
        <time>2015-10-07T13:10:21Z</time>
      </trkpt>
      <trkpt lat="43.42672" lon="6.09789">
        <ele>250.19999694824</ele>
        <time>2015-10-07T13:11:05Z</time>
      </trkpt>
      <trkpt lat="43.42672" lon="6.09789">
        <ele>251.39999389648</ele>
        <time>2015-10-07T13:12:15Z</time>
      </trkpt>
      <trkpt lat="43.42672" lon="6.09789">
        <ele>251.19999694824</ele>
        <time>2015-10-07T13:12:56Z</time>
      </trkpt>
      <trkpt lat="43.42672" lon="6.09789">
        <ele>251.19999694824</ele>
        <time>2015-10-07T13:12:59Z</time>
      </trkpt>
      <trkpt lat="43.42672" lon="6.09789">
        <ele>251</ele>
        <time>2015-10-07T13:13:09Z</time>
      </trkpt>
      <trkpt lat="43.42671" lon="6.09791">
        <ele>251</ele>
        <time>2015-10-07T13:13:20Z</time>
      </trkpt>
      <trkpt lat="43.4267" lon="6.09795">
        <ele>251</ele>
        <time>2015-10-07T13:13:28Z</time>
      </trkpt>
      <trkpt lat="43.42666" lon="6.09798">
        <ele>250.80000305176</ele>
        <time>2015-10-07T13:13:34Z</time>
      </trkpt>
      <trkpt lat="43.42657" lon="6.09807">
        <ele>250.39999389648</ele>
        <time>2015-10-07T13:13:38Z</time>
      </trkpt>
      <trkpt lat="43.42652" lon="6.09813">
        <ele>249.60000610352</ele>
        <time>2015-10-07T13:13:40Z</time>
      </trkpt>
      <trkpt lat="43.42648" lon="6.09828">
        <ele>249.80000305176</ele>
        <time>2015-10-07T13:13:43Z</time>
      </trkpt>
      <trkpt lat="43.42646" lon="6.09852">
        <ele>249</ele>
        <time>2015-10-07T13:13:47Z</time>
      </trkpt>
      <trkpt lat="43.42646" lon="6.09858">
        <ele>248.39999389648</ele>
        <time>2015-10-07T13:13:48Z</time>
      </trkpt>
      <trkpt lat="43.42645" lon="6.0987">
        <ele>247.39999389648</ele>
        <time>2015-10-07T13:13:50Z</time>
      </trkpt>
      <trkpt lat="43.42645" lon="6.09881">
        <ele>246.80000305176</ele>
        <time>2015-10-07T13:13:52Z</time>
      </trkpt>
      <trkpt lat="43.42648" lon="6.0989">
        <ele>246.60000610352</ele>
        <time>2015-10-07T13:13:54Z</time>
      </trkpt>
      <trkpt lat="43.42651" lon="6.09893">
        <ele>246.80000305176</ele>
        <time>2015-10-07T13:13:56Z</time>
      </trkpt>
      <trkpt lat="43.42661" lon="6.09897">
        <ele>247.19999694824</ele>
        <time>2015-10-07T13:14:01Z</time>
      </trkpt>
      <trkpt lat="43.42664" lon="6.09899">
        <ele>247.39999389648</ele>
        <time>2015-10-07T13:14:04Z</time>
      </trkpt>
      <trkpt lat="43.42674" lon="6.09906">
        <ele>248.19999694824</ele>
        <time>2015-10-07T13:14:10Z</time>
      </trkpt>
      <trkpt lat="43.4268" lon="6.09914">
        <ele>249.19999694824</ele>
        <time>2015-10-07T13:14:14Z</time>
      </trkpt>
      <trkpt lat="43.42682" lon="6.0992">
        <ele>249.39999389648</ele>
        <time>2015-10-07T13:14:16Z</time>
      </trkpt>
      <trkpt lat="43.42682" lon="6.09937">
        <ele>250.39999389648</ele>
        <time>2015-10-07T13:14:22Z</time>
      </trkpt>
      <trkpt lat="43.4268" lon="6.0994">
        <ele>251</ele>
        <time>2015-10-07T13:14:24Z</time>
      </trkpt>
      <trkpt lat="43.42678" lon="6.09942">
        <ele>250.80000305176</ele>
        <time>2015-10-07T13:14:25Z</time>
      </trkpt>
      <trkpt lat="43.42675" lon="6.0995">
        <ele>251.19999694824</ele>
        <time>2015-10-07T13:14:29Z</time>
      </trkpt>
      <trkpt lat="43.42673" lon="6.09961">
        <ele>252</ele>
        <time>2015-10-07T13:14:33Z</time>
      </trkpt>
      <trkpt lat="43.42671" lon="6.09972">
        <ele>252.60000610352</ele>
        <time>2015-10-07T13:14:38Z</time>
      </trkpt>
      <trkpt lat="43.4267" lon="6.09986">
        <ele>253.39999389648</ele>
        <time>2015-10-07T13:14:44Z</time>
      </trkpt>
      <trkpt lat="43.4267" lon="6.09988">
        <ele>253.60000610352</ele>
        <time>2015-10-07T13:14:45Z</time>
      </trkpt>
      <trkpt lat="43.42671" lon="6.09991">
        <ele>254.39999389648</ele>
        <time>2015-10-07T13:14:47Z</time>
      </trkpt>
      <trkpt lat="43.42671" lon="6.09993">
        <ele>254.60000610352</ele>
        <time>2015-10-07T13:14:48Z</time>
      </trkpt>
      <trkpt lat="43.42674" lon="6.10003">
        <ele>255.80000305176</ele>
        <time>2015-10-07T13:14:53Z</time>
      </trkpt>
      <trkpt lat="43.42674" lon="6.10005">
        <ele>256.20001220703</ele>
        <time>2015-10-07T13:14:54Z</time>
      </trkpt>
      <trkpt lat="43.42675" lon="6.10011">
        <ele>257</ele>
        <time>2015-10-07T13:14:58Z</time>
      </trkpt>
      <trkpt lat="43.42676" lon="6.10017">
        <ele>257.20001220703</ele>
        <time>2015-10-07T13:15:01Z</time>
      </trkpt>
      <trkpt lat="43.42682" lon="6.10028">
        <ele>256.79998779297</ele>
        <time>2015-10-07T13:15:08Z</time>
      </trkpt>
      <trkpt lat="43.42691" lon="6.10035">
        <ele>257.20001220703</ele>
        <time>2015-10-07T13:15:15Z</time>
      </trkpt>
      <trkpt lat="43.42702" lon="6.1004">
        <ele>258.20001220703</ele>
        <time>2015-10-07T13:15:23Z</time>
      </trkpt>
      <trkpt lat="43.42707" lon="6.10042">
        <ele>259.39999389648</ele>
        <time>2015-10-07T13:15:26Z</time>
      </trkpt>
      <trkpt lat="43.42713" lon="6.10044">
        <ele>260.20001220703</ele>
        <time>2015-10-07T13:15:30Z</time>
      </trkpt>
      <trkpt lat="43.42714" lon="6.10044">
        <ele>260.39999389648</ele>
        <time>2015-10-07T13:15:31Z</time>
      </trkpt>
      <trkpt lat="43.42724" lon="6.10046">
        <ele>260.60000610352</ele>
        <time>2015-10-07T13:15:38Z</time>
      </trkpt>
      <trkpt lat="43.42734" lon="6.10046">
        <ele>262.39999389648</ele>
        <time>2015-10-07T13:15:45Z</time>
      </trkpt>
      <trkpt lat="43.42745" lon="6.10044">
        <ele>263</ele>
        <time>2015-10-07T13:15:53Z</time>
      </trkpt>
      <trkpt lat="43.42753" lon="6.10043">
        <ele>264.20001220703</ele>
        <time>2015-10-07T13:16:00Z</time>
      </trkpt>
      <trkpt lat="43.4276" lon="6.10046">
        <ele>265.20001220703</ele>
        <time>2015-10-07T13:16:06Z</time>
      </trkpt>
      <trkpt lat="43.42771" lon="6.10054">
        <ele>267</ele>
        <time>2015-10-07T13:16:14Z</time>
      </trkpt>
      <trkpt lat="43.42772" lon="6.10055">
        <ele>267.20001220703</ele>
        <time>2015-10-07T13:16:15Z</time>
      </trkpt>
      <trkpt lat="43.4278" lon="6.10059">
        <ele>268.20001220703</ele>
        <time>2015-10-07T13:16:21Z</time>
      </trkpt>
      <trkpt lat="43.42784" lon="6.10061">
        <ele>268.39999389648</ele>
        <time>2015-10-07T13:16:24Z</time>
      </trkpt>
      <trkpt lat="43.42789" lon="6.10064">
        <ele>269.20001220703</ele>
        <time>2015-10-07T13:16:28Z</time>
      </trkpt>
      <trkpt lat="43.42796" lon="6.10067">
        <ele>269.39999389648</ele>
        <time>2015-10-07T13:16:34Z</time>
      </trkpt>
      <trkpt lat="43.42798" lon="6.10068">
        <ele>269.79998779297</ele>
        <time>2015-10-07T13:16:36Z</time>
      </trkpt>
      <trkpt lat="43.42804" lon="6.10073">
        <ele>270.60000610352</ele>
        <time>2015-10-07T13:16:41Z</time>
      </trkpt>
      <trkpt lat="43.42809" lon="6.10086">
        <ele>271</ele>
        <time>2015-10-07T13:16:49Z</time>
      </trkpt>
      <trkpt lat="43.42809" lon="6.10092">
        <ele>271.79998779297</ele>
        <time>2015-10-07T13:16:52Z</time>
      </trkpt>
      <trkpt lat="43.42809" lon="6.10098">
        <ele>272</ele>
        <time>2015-10-07T13:16:56Z</time>
      </trkpt>
      <trkpt lat="43.42809" lon="6.10103">
        <ele>272.79998779297</ele>
        <time>2015-10-07T13:16:59Z</time>
      </trkpt>
      <trkpt lat="43.42809" lon="6.1011">
        <ele>273.79998779297</ele>
        <time>2015-10-07T13:17:04Z</time>
      </trkpt>
      <trkpt lat="43.4281" lon="6.10118">
        <ele>274</ele>
        <time>2015-10-07T13:17:09Z</time>
      </trkpt>
      <trkpt lat="43.42811" lon="6.10122">
        <ele>274.20001220703</ele>
        <time>2015-10-07T13:17:11Z</time>
      </trkpt>
      <trkpt lat="43.42814" lon="6.10132">
        <ele>275</ele>
        <time>2015-10-07T13:17:17Z</time>
      </trkpt>
      <trkpt lat="43.42815" lon="6.10134">
        <ele>275.20001220703</ele>
        <time>2015-10-07T13:17:18Z</time>
      </trkpt>
      <trkpt lat="43.42818" lon="6.10146">
        <ele>276.20001220703</ele>
        <time>2015-10-07T13:17:25Z</time>
      </trkpt>
      <trkpt lat="43.42818" lon="6.10147">
        <ele>276.60000610352</ele>
        <time>2015-10-07T13:17:26Z</time>
      </trkpt>
      <trkpt lat="43.4282" lon="6.10153">
        <ele>277.39999389648</ele>
        <time>2015-10-07T13:17:30Z</time>
      </trkpt>
      <trkpt lat="43.42822" lon="6.1016">
        <ele>278.20001220703</ele>
        <time>2015-10-07T13:17:34Z</time>
      </trkpt>
      <trkpt lat="43.42824" lon="6.10171">
        <ele>278.39999389648</ele>
        <time>2015-10-07T13:17:39Z</time>
      </trkpt>
      <trkpt lat="43.42825" lon="6.10177">
        <ele>278.60000610352</ele>
        <time>2015-10-07T13:17:42Z</time>
      </trkpt>
      <trkpt lat="43.42827" lon="6.10192">
        <ele>278.60000610352</ele>
        <time>2015-10-07T13:17:49Z</time>
      </trkpt>
      <trkpt lat="43.42827" lon="6.10207">
        <ele>279.39999389648</ele>
        <time>2015-10-07T13:17:56Z</time>
      </trkpt>
      <trkpt lat="43.42827" lon="6.1021">
        <ele>279.60000610352</ele>
        <time>2015-10-07T13:17:58Z</time>
      </trkpt>
      <trkpt lat="43.42827" lon="6.10214">
        <ele>279.79998779297</ele>
        <time>2015-10-07T13:18:00Z</time>
      </trkpt>
      <trkpt lat="43.42827" lon="6.10216">
        <ele>279.79998779297</ele>
        <time>2015-10-07T13:18:01Z</time>
      </trkpt>
      <trkpt lat="43.42827" lon="6.10218">
        <ele>280</ele>
        <time>2015-10-07T13:18:06Z</time>
      </trkpt>
      <trkpt lat="43.42827" lon="6.10218">
        <ele>279.60000610352</ele>
        <time>2015-10-07T13:18:10Z</time>
      </trkpt>
      <trkpt lat="43.42827" lon="6.10219">
        <ele>279.79998779297</ele>
        <time>2015-10-07T13:18:20Z</time>
      </trkpt>
      <trkpt lat="43.42827" lon="6.10219">
        <ele>280.60000610352</ele>
        <time>2015-10-07T13:18:31Z</time>
      </trkpt>
      <trkpt lat="43.42827" lon="6.10219">
        <ele>280.60000610352</ele>
        <time>2015-10-07T13:18:34Z</time>
      </trkpt>
      <trkpt lat="43.42827" lon="6.10219">
        <ele>280.39999389648</ele>
        <time>2015-10-07T13:18:38Z</time>
      </trkpt>
      <trkpt lat="43.42827" lon="6.10219">
        <ele>277.20001220703</ele>
        <time>2015-10-07T13:18:40Z</time>
      </trkpt>
      <trkpt lat="43.42827" lon="6.10219">
        <ele>273.79998779297</ele>
        <time>2015-10-07T13:18:41Z</time>
      </trkpt>
      <trkpt lat="43.42827" lon="6.10219">
        <ele>277.20001220703</ele>
        <time>2015-10-07T13:18:43Z</time>
      </trkpt>
      <trkpt lat="43.42828" lon="6.10219">
        <ele>277.79998779297</ele>
        <time>2015-10-07T13:18:44Z</time>
      </trkpt>
      <trkpt lat="43.42828" lon="6.10219">
        <ele>278.79998779297</ele>
        <time>2015-10-07T13:18:45Z</time>
      </trkpt>
      <trkpt lat="43.42828" lon="6.10219">
        <ele>279.79998779297</ele>
        <time>2015-10-07T13:18:51Z</time>
      </trkpt>
      <trkpt lat="43.42828" lon="6.10219">
        <ele>281</ele>
        <time>2015-10-07T13:18:53Z</time>
      </trkpt>
      <trkpt lat="43.42828" lon="6.10219">
        <ele>278.79998779297</ele>
        <time>2015-10-07T13:18:56Z</time>
      </trkpt>
      <trkpt lat="43.42828" lon="6.10219">
        <ele>280.60000610352</ele>
        <time>2015-10-07T13:18:58Z</time>
      </trkpt>
      <trkpt lat="43.42828" lon="6.10219">
        <ele>280.79998779297</ele>
        <time>2015-10-07T13:19:01Z</time>
      </trkpt>
      <trkpt lat="43.42828" lon="6.10219">
        <ele>282.39999389648</ele>
        <time>2015-10-07T13:19:09Z</time>
      </trkpt>
      <trkpt lat="43.42829" lon="6.10219">
        <ele>280.39999389648</ele>
        <time>2015-10-07T13:19:21Z</time>
      </trkpt>
      <trkpt lat="43.42829" lon="6.10219">
        <ele>280.60000610352</ele>
        <time>2015-10-07T13:19:37Z</time>
      </trkpt>
      <trkpt lat="43.42828" lon="6.10219">
        <ele>280.79998779297</ele>
        <time>2015-10-07T13:19:42Z</time>
      </trkpt>
      <trkpt lat="43.42829" lon="6.10219">
        <ele>281</ele>
        <time>2015-10-07T13:19:46Z</time>
      </trkpt>
      <trkpt lat="43.42829" lon="6.10219">
        <ele>281</ele>
        <time>2015-10-07T13:19:49Z</time>
      </trkpt>
      <trkpt lat="43.42829" lon="6.10219">
        <ele>280.60000610352</ele>
        <time>2015-10-07T13:19:57Z</time>
      </trkpt>
      <trkpt lat="43.42829" lon="6.10219">
        <ele>280.60000610352</ele>
        <time>2015-10-07T13:20:02Z</time>
      </trkpt>
      <trkpt lat="43.42829" lon="6.10219">
        <ele>280.60000610352</ele>
        <time>2015-10-07T13:20:47Z</time>
      </trkpt>
      <trkpt lat="43.42828" lon="6.10219">
        <ele>279.79998779297</ele>
        <time>2015-10-07T13:21:13Z</time>
      </trkpt>
      <trkpt lat="43.42828" lon="6.10219">
        <ele>279.79998779297</ele>
        <time>2015-10-07T13:21:16Z</time>
      </trkpt>
      <trkpt lat="43.42829" lon="6.10219">
        <ele>280</ele>
        <time>2015-10-07T13:21:21Z</time>
      </trkpt>
      <trkpt lat="43.42829" lon="6.10219">
        <ele>280.60000610352</ele>
        <time>2015-10-07T13:21:33Z</time>
      </trkpt>
      <trkpt lat="43.42829" lon="6.10219">
        <ele>280.39999389648</ele>
        <time>2015-10-07T13:21:36Z</time>
      </trkpt>
      <trkpt lat="43.42828" lon="6.10219">
        <ele>280.20001220703</ele>
        <time>2015-10-07T13:21:38Z</time>
      </trkpt>
      <trkpt lat="43.42828" lon="6.10219">
        <ele>280.79998779297</ele>
        <time>2015-10-07T13:21:41Z</time>
      </trkpt>
      <trkpt lat="43.42829" lon="6.10218">
        <ele>281</ele>
        <time>2015-10-07T13:21:50Z</time>
      </trkpt>
      <trkpt lat="43.42829" lon="6.10218">
        <ele>280.39999389648</ele>
        <time>2015-10-07T13:21:55Z</time>
      </trkpt>
      <trkpt lat="43.4283" lon="6.10218">
        <ele>279.39999389648</ele>
        <time>2015-10-07T13:22:01Z</time>
      </trkpt>
      <trkpt lat="43.42829" lon="6.10218">
        <ele>279.60000610352</ele>
        <time>2015-10-07T13:22:11Z</time>
      </trkpt>
      <trkpt lat="43.42829" lon="6.10217">
        <ele>279.60000610352</ele>
        <time>2015-10-07T13:22:16Z</time>
      </trkpt>
      <trkpt lat="43.42829" lon="6.10217">
        <ele>279.60000610352</ele>
        <time>2015-10-07T13:22:18Z</time>
      </trkpt>
      <trkpt lat="43.42829" lon="6.10217">
        <ele>279.60000610352</ele>
        <time>2015-10-07T13:22:22Z</time>
      </trkpt>
      <trkpt lat="43.42829" lon="6.10218">
        <ele>279.79998779297</ele>
        <time>2015-10-07T13:22:26Z</time>
      </trkpt>
      <trkpt lat="43.42828" lon="6.10216">
        <ele>280.79998779297</ele>
        <time>2015-10-07T13:22:37Z</time>
      </trkpt>
      <trkpt lat="43.42828" lon="6.10216">
        <ele>280.39999389648</ele>
        <time>2015-10-07T13:23:03Z</time>
      </trkpt>
      <trkpt lat="43.42828" lon="6.10216">
        <ele>280.20001220703</ele>
        <time>2015-10-07T13:23:13Z</time>
      </trkpt>
      <trkpt lat="43.42828" lon="6.10216">
        <ele>280</ele>
        <time>2015-10-07T13:23:23Z</time>
      </trkpt>
      <trkpt lat="43.42827" lon="6.10217">
        <ele>280.39999389648</ele>
        <time>2015-10-07T13:23:27Z</time>
      </trkpt>
      <trkpt lat="43.42827" lon="6.10218">
        <ele>280.60000610352</ele>
        <time>2015-10-07T13:23:28Z</time>
      </trkpt>
      <trkpt lat="43.42825" lon="6.10224">
        <ele>281</ele>
        <time>2015-10-07T13:23:32Z</time>
      </trkpt>
      <trkpt lat="43.42823" lon="6.10226">
        <ele>281</ele>
        <time>2015-10-07T13:23:33Z</time>
      </trkpt>
      <trkpt lat="43.4282" lon="6.10229">
        <ele>280.79998779297</ele>
        <time>2015-10-07T13:23:35Z</time>
      </trkpt>
      <trkpt lat="43.42817" lon="6.10232">
        <ele>281</ele>
        <time>2015-10-07T13:23:37Z</time>
      </trkpt>
      <trkpt lat="43.42813" lon="6.10237">
        <ele>281.39999389648</ele>
        <time>2015-10-07T13:23:40Z</time>
      </trkpt>
      <trkpt lat="43.42811" lon="6.10241">
        <ele>281.60000610352</ele>
        <time>2015-10-07T13:23:42Z</time>
      </trkpt>
      <trkpt lat="43.42804" lon="6.10252">
        <ele>281.79998779297</ele>
        <time>2015-10-07T13:23:48Z</time>
      </trkpt>
      <trkpt lat="43.42802" lon="6.10259">
        <ele>282.39999389648</ele>
        <time>2015-10-07T13:23:51Z</time>
      </trkpt>
      <trkpt lat="43.42801" lon="6.10273">
        <ele>282.60000610352</ele>
        <time>2015-10-07T13:23:57Z</time>
      </trkpt>
      <trkpt lat="43.42803" lon="6.10293">
        <ele>281.79998779297</ele>
        <time>2015-10-07T13:24:05Z</time>
      </trkpt>
      <trkpt lat="43.42809" lon="6.1031">
        <ele>282.20001220703</ele>
        <time>2015-10-07T13:24:12Z</time>
      </trkpt>
      <trkpt lat="43.42821" lon="6.10336">
        <ele>282.20001220703</ele>
        <time>2015-10-07T13:24:21Z</time>
      </trkpt>
      <trkpt lat="43.42833" lon="6.1036">
        <ele>283</ele>
        <time>2015-10-07T13:24:29Z</time>
      </trkpt>
      <trkpt lat="43.4284" lon="6.10376">
        <ele>283</ele>
        <time>2015-10-07T13:24:35Z</time>
      </trkpt>
      <trkpt lat="43.42841" lon="6.10376">
        <ele>282.79998779297</ele>
        <time>2015-10-07T13:24:41Z</time>
      </trkpt>
      <trkpt lat="43.42841" lon="6.10376">
        <ele>282.20001220703</ele>
        <time>2015-10-07T13:24:47Z</time>
      </trkpt>
      <trkpt lat="43.42841" lon="6.10377">
        <ele>282.60000610352</ele>
        <time>2015-10-07T13:24:54Z</time>
      </trkpt>
      <trkpt lat="43.42841" lon="6.10375">
        <ele>282.39999389648</ele>
        <time>2015-10-07T13:25:14Z</time>
      </trkpt>
      <trkpt lat="43.4284" lon="6.10373">
        <ele>282</ele>
        <time>2015-10-07T13:25:21Z</time>
      </trkpt>
      <trkpt lat="43.42839" lon="6.10373">
        <ele>282</ele>
        <time>2015-10-07T13:25:22Z</time>
      </trkpt>
      <trkpt lat="43.42834" lon="6.1037">
        <ele>282.60000610352</ele>
        <time>2015-10-07T13:25:26Z</time>
      </trkpt>
      <trkpt lat="43.42833" lon="6.1037">
        <ele>282.60000610352</ele>
        <time>2015-10-07T13:25:27Z</time>
      </trkpt>
      <trkpt lat="43.4283" lon="6.10371">
        <ele>282.60000610352</ele>
        <time>2015-10-07T13:25:29Z</time>
      </trkpt>
      <trkpt lat="43.42825" lon="6.10376">
        <ele>283.39999389648</ele>
        <time>2015-10-07T13:25:33Z</time>
      </trkpt>
      <trkpt lat="43.42824" lon="6.10378">
        <ele>283.60000610352</ele>
        <time>2015-10-07T13:25:34Z</time>
      </trkpt>
      <trkpt lat="43.42823" lon="6.10381">
        <ele>284.20001220703</ele>
        <time>2015-10-07T13:25:36Z</time>
      </trkpt>
      <trkpt lat="43.42822" lon="6.10384">
        <ele>284.60000610352</ele>
        <time>2015-10-07T13:25:38Z</time>
      </trkpt>
      <trkpt lat="43.42819" lon="6.10388">
        <ele>285.39999389648</ele>
        <time>2015-10-07T13:25:41Z</time>
      </trkpt>
      <trkpt lat="43.42818" lon="6.10388">
        <ele>285.79998779297</ele>
        <time>2015-10-07T13:25:42Z</time>
      </trkpt>
      <trkpt lat="43.42814" lon="6.10391">
        <ele>285.60000610352</ele>
        <time>2015-10-07T13:25:46Z</time>
      </trkpt>
      <trkpt lat="43.42814" lon="6.10394">
        <ele>285.60000610352</ele>
        <time>2015-10-07T13:25:48Z</time>
      </trkpt>
      <trkpt lat="43.4282" lon="6.10398">
        <ele>285.60000610352</ele>
        <time>2015-10-07T13:25:53Z</time>
      </trkpt>
      <trkpt lat="43.42822" lon="6.10398">
        <ele>285.60000610352</ele>
        <time>2015-10-07T13:25:54Z</time>
      </trkpt>
      <trkpt lat="43.42824" lon="6.10398">
        <ele>285.60000610352</ele>
        <time>2015-10-07T13:25:55Z</time>
      </trkpt>
      <trkpt lat="43.42827" lon="6.10404">
        <ele>286</ele>
        <time>2015-10-07T13:25:58Z</time>
      </trkpt>
      <trkpt lat="43.42828" lon="6.10407">
        <ele>285.79998779297</ele>
        <time>2015-10-07T13:25:59Z</time>
      </trkpt>
      <trkpt lat="43.42831" lon="6.10424">
        <ele>286</ele>
        <time>2015-10-07T13:26:05Z</time>
      </trkpt>
      <trkpt lat="43.42835" lon="6.10446">
        <ele>286.39999389648</ele>
        <time>2015-10-07T13:26:13Z</time>
      </trkpt>
      <trkpt lat="43.42837" lon="6.10459">
        <ele>287</ele>
        <time>2015-10-07T13:26:18Z</time>
      </trkpt>
      <trkpt lat="43.42838" lon="6.10466">
        <ele>287</ele>
        <time>2015-10-07T13:26:20Z</time>
      </trkpt>
      <trkpt lat="43.42839" lon="6.10484">
        <ele>285.79998779297</ele>
        <time>2015-10-07T13:26:24Z</time>
      </trkpt>
      <trkpt lat="43.42841" lon="6.1049">
        <ele>285.20001220703</ele>
        <time>2015-10-07T13:26:26Z</time>
      </trkpt>
      <trkpt lat="43.42846" lon="6.10504">
        <ele>285.20001220703</ele>
        <time>2015-10-07T13:26:31Z</time>
      </trkpt>
      <trkpt lat="43.42849" lon="6.10512">
        <ele>284.60000610352</ele>
        <time>2015-10-07T13:26:33Z</time>
      </trkpt>
      <trkpt lat="43.42859" lon="6.10531">
        <ele>283.39999389648</ele>
        <time>2015-10-07T13:26:37Z</time>
      </trkpt>
      <trkpt lat="43.42861" lon="6.10535">
        <ele>283.20001220703</ele>
        <time>2015-10-07T13:26:38Z</time>
      </trkpt>
      <trkpt lat="43.42864" lon="6.10541">
        <ele>283</ele>
        <time>2015-10-07T13:26:39Z</time>
      </trkpt>
      <trkpt lat="43.42867" lon="6.10553">
        <ele>282.79998779297</ele>
        <time>2015-10-07T13:26:41Z</time>
      </trkpt>
      <trkpt lat="43.42871" lon="6.10566">
        <ele>282.20001220703</ele>
        <time>2015-10-07T13:26:43Z</time>
      </trkpt>
      <trkpt lat="43.42873" lon="6.10573">
        <ele>281.60000610352</ele>
        <time>2015-10-07T13:26:44Z</time>
      </trkpt>
      <trkpt lat="43.42874" lon="6.1058">
        <ele>281</ele>
        <time>2015-10-07T13:26:45Z</time>
      </trkpt>
      <trkpt lat="43.42876" lon="6.10601">
        <ele>281</ele>
        <time>2015-10-07T13:26:48Z</time>
      </trkpt>
      <trkpt lat="43.42876" lon="6.10607">
        <ele>281</ele>
        <time>2015-10-07T13:26:49Z</time>
      </trkpt>
      <trkpt lat="43.42881" lon="6.10622">
        <ele>280.39999389648</ele>
        <time>2015-10-07T13:26:52Z</time>
      </trkpt>
      <trkpt lat="43.42884" lon="6.10627">
        <ele>280</ele>
        <time>2015-10-07T13:26:53Z</time>
      </trkpt>
      <trkpt lat="43.42894" lon="6.10637">
        <ele>279.20001220703</ele>
        <time>2015-10-07T13:26:56Z</time>
      </trkpt>
      <trkpt lat="43.42897" lon="6.10641">
        <ele>279.39999389648</ele>
        <time>2015-10-07T13:26:57Z</time>
      </trkpt>
      <trkpt lat="43.42915" lon="6.10654">
        <ele>279.60000610352</ele>
        <time>2015-10-07T13:27:03Z</time>
      </trkpt>
      <trkpt lat="43.42933" lon="6.10656">
        <ele>280</ele>
        <time>2015-10-07T13:27:09Z</time>
      </trkpt>
      <trkpt lat="43.42935" lon="6.10656">
        <ele>280.39999389648</ele>
        <time>2015-10-07T13:27:10Z</time>
      </trkpt>
      <trkpt lat="43.42953" lon="6.10657">
        <ele>280.79998779297</ele>
        <time>2015-10-07T13:27:18Z</time>
      </trkpt>
      <trkpt lat="43.42955" lon="6.10657">
        <ele>281</ele>
        <time>2015-10-07T13:27:20Z</time>
      </trkpt>
      <trkpt lat="43.42963" lon="6.10656">
        <ele>280.79998779297</ele>
        <time>2015-10-07T13:27:24Z</time>
      </trkpt>
      <trkpt lat="43.4297" lon="6.10656">
        <ele>281</ele>
        <time>2015-10-07T13:27:28Z</time>
      </trkpt>
      <trkpt lat="43.42978" lon="6.10656">
        <ele>281.20001220703</ele>
        <time>2015-10-07T13:27:31Z</time>
      </trkpt>
      <trkpt lat="43.42991" lon="6.10656">
        <ele>281.39999389648</ele>
        <time>2015-10-07T13:27:36Z</time>
      </trkpt>
      <trkpt lat="43.42993" lon="6.10656">
        <ele>281.39999389648</ele>
        <time>2015-10-07T13:27:37Z</time>
      </trkpt>
      <trkpt lat="43.43005" lon="6.10658">
        <ele>282</ele>
        <time>2015-10-07T13:27:42Z</time>
      </trkpt>
      <trkpt lat="43.4301" lon="6.10658">
        <ele>282.60000610352</ele>
        <time>2015-10-07T13:27:44Z</time>
      </trkpt>
      <trkpt lat="43.43021" lon="6.10659">
        <ele>283.20001220703</ele>
        <time>2015-10-07T13:27:49Z</time>
      </trkpt>
      <trkpt lat="43.43036" lon="6.1067">
        <ele>284.20001220703</ele>
        <time>2015-10-07T13:27:57Z</time>
      </trkpt>
      <trkpt lat="43.43036" lon="6.10675">
        <ele>284.20001220703</ele>
        <time>2015-10-07T13:27:59Z</time>
      </trkpt>
      <trkpt lat="43.43033" lon="6.10683">
        <ele>284.20001220703</ele>
        <time>2015-10-07T13:28:02Z</time>
      </trkpt>
      <trkpt lat="43.43029" lon="6.10686">
        <ele>284.39999389648</ele>
        <time>2015-10-07T13:28:04Z</time>
      </trkpt>
      <trkpt lat="43.43021" lon="6.10689">
        <ele>284.39999389648</ele>
        <time>2015-10-07T13:28:07Z</time>
      </trkpt>
      <trkpt lat="43.43011" lon="6.10689">
        <ele>284.20001220703</ele>
        <time>2015-10-07T13:28:10Z</time>
      </trkpt>
      <trkpt lat="43.4301" lon="6.10686">
        <ele>284.20001220703</ele>
        <time>2015-10-07T13:28:11Z</time>
      </trkpt>
      <trkpt lat="43.43008" lon="6.10675">
        <ele>284</ele>
        <time>2015-10-07T13:28:14Z</time>
      </trkpt>
      <trkpt lat="43.43007" lon="6.10672">
        <ele>284.20001220703</ele>
        <time>2015-10-07T13:28:15Z</time>
      </trkpt>
      <trkpt lat="43.43002" lon="6.1067">
        <ele>283.39999389648</ele>
        <time>2015-10-07T13:28:17Z</time>
      </trkpt>
      <trkpt lat="43.42999" lon="6.10672">
        <ele>283.20001220703</ele>
        <time>2015-10-07T13:28:18Z</time>
      </trkpt>
      <trkpt lat="43.42997" lon="6.10684">
        <ele>283.39999389648</ele>
        <time>2015-10-07T13:28:21Z</time>
      </trkpt>
      <trkpt lat="43.42999" lon="6.10693">
        <ele>282.79998779297</ele>
        <time>2015-10-07T13:28:23Z</time>
      </trkpt>
      <trkpt lat="43.43" lon="6.10702">
        <ele>282.20001220703</ele>
        <time>2015-10-07T13:28:25Z</time>
      </trkpt>
      <trkpt lat="43.43002" lon="6.10714">
        <ele>282.20001220703</ele>
        <time>2015-10-07T13:28:28Z</time>
      </trkpt>
      <trkpt lat="43.42998" lon="6.10721">
        <ele>281.79998779297</ele>
        <time>2015-10-07T13:28:30Z</time>
      </trkpt>
      <trkpt lat="43.42987" lon="6.10721">
        <ele>280.79998779297</ele>
        <time>2015-10-07T13:28:33Z</time>
      </trkpt>
      <trkpt lat="43.42984" lon="6.10721">
        <ele>280.39999389648</ele>
        <time>2015-10-07T13:28:34Z</time>
      </trkpt>
      <trkpt lat="43.42981" lon="6.10721">
        <ele>280.20001220703</ele>
        <time>2015-10-07T13:28:35Z</time>
      </trkpt>
      <trkpt lat="43.42973" lon="6.10718">
        <ele>279.60000610352</ele>
        <time>2015-10-07T13:28:37Z</time>
      </trkpt>
      <trkpt lat="43.42971" lon="6.10716">
        <ele>279.60000610352</ele>
        <time>2015-10-07T13:28:38Z</time>
      </trkpt>
      <trkpt lat="43.4297" lon="6.10712">
        <ele>279.79998779297</ele>
        <time>2015-10-07T13:28:39Z</time>
      </trkpt>
      <trkpt lat="43.42973" lon="6.10702">
        <ele>280.20001220703</ele>
        <time>2015-10-07T13:28:42Z</time>
      </trkpt>
      <trkpt lat="43.42974" lon="6.10699">
        <ele>280.20001220703</ele>
        <time>2015-10-07T13:28:43Z</time>
      </trkpt>
      <trkpt lat="43.42975" lon="6.10696">
        <ele>280.39999389648</ele>
        <time>2015-10-07T13:28:44Z</time>
      </trkpt>
      <trkpt lat="43.42973" lon="6.10691">
        <ele>280.39999389648</ele>
        <time>2015-10-07T13:28:46Z</time>
      </trkpt>
      <trkpt lat="43.42964" lon="6.10693">
        <ele>280.39999389648</ele>
        <time>2015-10-07T13:28:51Z</time>
      </trkpt>
      <trkpt lat="43.42949" lon="6.1069">
        <ele>280</ele>
        <time>2015-10-07T13:28:56Z</time>
      </trkpt>
      <trkpt lat="43.42948" lon="6.10687">
        <ele>280</ele>
        <time>2015-10-07T13:28:57Z</time>
      </trkpt>
      <trkpt lat="43.42949" lon="6.10681">
        <ele>279.79998779297</ele>
        <time>2015-10-07T13:28:59Z</time>
      </trkpt>
      <trkpt lat="43.42958" lon="6.10672">
        <ele>279.60000610352</ele>
        <time>2015-10-07T13:29:04Z</time>
      </trkpt>
      <trkpt lat="43.42965" lon="6.10668">
        <ele>280.20001220703</ele>
        <time>2015-10-07T13:29:07Z</time>
      </trkpt>
      <trkpt lat="43.42974" lon="6.10666">
        <ele>279.79998779297</ele>
        <time>2015-10-07T13:29:11Z</time>
      </trkpt>
      <trkpt lat="43.42981" lon="6.10658">
        <ele>280.79998779297</ele>
        <time>2015-10-07T13:29:16Z</time>
      </trkpt>
      <trkpt lat="43.42986" lon="6.10647">
        <ele>281</ele>
        <time>2015-10-07T13:29:21Z</time>
      </trkpt>
      <trkpt lat="43.42993" lon="6.10646">
        <ele>282</ele>
        <time>2015-10-07T13:29:26Z</time>
      </trkpt>
      <trkpt lat="43.42993" lon="6.10645">
        <ele>282.20001220703</ele>
        <time>2015-10-07T13:29:30Z</time>
      </trkpt>
      <trkpt lat="43.42993" lon="6.10645">
        <ele>282.60000610352</ele>
        <time>2015-10-07T13:29:39Z</time>
      </trkpt>
      <trkpt lat="43.42993" lon="6.10645">
        <ele>282.39999389648</ele>
        <time>2015-10-07T13:29:49Z</time>
      </trkpt>
      <trkpt lat="43.42993" lon="6.10645">
        <ele>282.20001220703</ele>
        <time>2015-10-07T13:29:55Z</time>
      </trkpt>
      <trkpt lat="43.42993" lon="6.10645">
        <ele>282.20001220703</ele>
        <time>2015-10-07T13:29:59Z</time>
      </trkpt>
      <trkpt lat="43.42993" lon="6.10645">
        <ele>282.39999389648</ele>
        <time>2015-10-07T13:30:28Z</time>
      </trkpt>
      <trkpt lat="43.42993" lon="6.10645">
        <ele>283</ele>
        <time>2015-10-07T13:31:16Z</time>
      </trkpt>
      <trkpt lat="43.42995" lon="6.10646">
        <ele>282.60000610352</ele>
        <time>2015-10-07T13:31:34Z</time>
      </trkpt>
      <trkpt lat="43.42999" lon="6.10647">
        <ele>282.60000610352</ele>
        <time>2015-10-07T13:31:36Z</time>
      </trkpt>
      <trkpt lat="43.43004" lon="6.10649">
        <ele>282.79998779297</ele>
        <time>2015-10-07T13:31:38Z</time>
      </trkpt>
      <trkpt lat="43.4301" lon="6.10653">
        <ele>282.79998779297</ele>
        <time>2015-10-07T13:31:40Z</time>
      </trkpt>
      <trkpt lat="43.43023" lon="6.10659">
        <ele>283</ele>
        <time>2015-10-07T13:31:44Z</time>
      </trkpt>
      <trkpt lat="43.43025" lon="6.10661">
        <ele>283.20001220703</ele>
        <time>2015-10-07T13:31:45Z</time>
      </trkpt>
      <trkpt lat="43.43034" lon="6.10667">
        <ele>283</ele>
        <time>2015-10-07T13:31:48Z</time>
      </trkpt>
      <trkpt lat="43.43035" lon="6.10671">
        <ele>283</ele>
        <time>2015-10-07T13:31:49Z</time>
      </trkpt>
      <trkpt lat="43.43036" lon="6.10675">
        <ele>283.60000610352</ele>
        <time>2015-10-07T13:31:50Z</time>
      </trkpt>
      <trkpt lat="43.43034" lon="6.10683">
        <ele>284.20001220703</ele>
        <time>2015-10-07T13:31:52Z</time>
      </trkpt>
      <trkpt lat="43.4303" lon="6.10686">
        <ele>284.39999389648</ele>
        <time>2015-10-07T13:31:53Z</time>
      </trkpt>
      <trkpt lat="43.43024" lon="6.10688">
        <ele>284.20001220703</ele>
        <time>2015-10-07T13:31:55Z</time>
      </trkpt>
      <trkpt lat="43.43013" lon="6.1069">
        <ele>283.39999389648</ele>
        <time>2015-10-07T13:31:58Z</time>
      </trkpt>
      <trkpt lat="43.43009" lon="6.10684">
        <ele>283</ele>
        <time>2015-10-07T13:32:00Z</time>
      </trkpt>
      <trkpt lat="43.43009" lon="6.1068">
        <ele>282.79998779297</ele>
        <time>2015-10-07T13:32:01Z</time>
      </trkpt>
      <trkpt lat="43.43004" lon="6.1067">
        <ele>282</ele>
        <time>2015-10-07T13:32:05Z</time>
      </trkpt>
      <trkpt lat="43.43002" lon="6.1067">
        <ele>282</ele>
        <time>2015-10-07T13:32:06Z</time>
      </trkpt>
      <trkpt lat="43.42997" lon="6.10678">
        <ele>281.60000610352</ele>
        <time>2015-10-07T13:32:10Z</time>
      </trkpt>
      <trkpt lat="43.42997" lon="6.10686">
        <ele>281.39999389648</ele>
        <time>2015-10-07T13:32:12Z</time>
      </trkpt>
      <trkpt lat="43.43" lon="6.10701">
        <ele>281.39999389648</ele>
        <time>2015-10-07T13:32:16Z</time>
      </trkpt>
      <trkpt lat="43.43002" lon="6.10713">
        <ele>281</ele>
        <time>2015-10-07T13:32:19Z</time>
      </trkpt>
      <trkpt lat="43.43001" lon="6.10716">
        <ele>280.79998779297</ele>
        <time>2015-10-07T13:32:20Z</time>
      </trkpt>
      <trkpt lat="43.42999" lon="6.10719">
        <ele>281</ele>
        <time>2015-10-07T13:32:21Z</time>
      </trkpt>
      <trkpt lat="43.42992" lon="6.10722">
        <ele>280.60000610352</ele>
        <time>2015-10-07T13:32:24Z</time>
      </trkpt>
      <trkpt lat="43.42979" lon="6.1072">
        <ele>279.60000610352</ele>
        <time>2015-10-07T13:32:28Z</time>
      </trkpt>
      <trkpt lat="43.42973" lon="6.10718">
        <ele>279.20001220703</ele>
        <time>2015-10-07T13:32:30Z</time>
      </trkpt>
      <trkpt lat="43.42971" lon="6.10715">
        <ele>279.39999389648</ele>
        <time>2015-10-07T13:32:31Z</time>
      </trkpt>
      <trkpt lat="43.4297" lon="6.10708">
        <ele>279.60000610352</ele>
        <time>2015-10-07T13:32:33Z</time>
      </trkpt>
      <trkpt lat="43.42974" lon="6.107">
        <ele>280</ele>
        <time>2015-10-07T13:32:36Z</time>
      </trkpt>
      <trkpt lat="43.42976" lon="6.10696">
        <ele>280.20001220703</ele>
        <time>2015-10-07T13:32:38Z</time>
      </trkpt>
      <trkpt lat="43.42976" lon="6.10693">
        <ele>280</ele>
        <time>2015-10-07T13:32:39Z</time>
      </trkpt>
      <trkpt lat="43.42973" lon="6.1069">
        <ele>280</ele>
        <time>2015-10-07T13:32:41Z</time>
      </trkpt>
      <trkpt lat="43.42961" lon="6.10693">
        <ele>279.79998779297</ele>
        <time>2015-10-07T13:32:45Z</time>
      </trkpt>
      <trkpt lat="43.42949" lon="6.10689">
        <ele>279.39999389648</ele>
        <time>2015-10-07T13:32:49Z</time>
      </trkpt>
      <trkpt lat="43.4295" lon="6.10677">
        <ele>279.20001220703</ele>
        <time>2015-10-07T13:32:53Z</time>
      </trkpt>
      <trkpt lat="43.42957" lon="6.10672">
        <ele>279.79998779297</ele>
        <time>2015-10-07T13:32:56Z</time>
      </trkpt>
      <trkpt lat="43.42964" lon="6.10668">
        <ele>280.20001220703</ele>
        <time>2015-10-07T13:32:59Z</time>
      </trkpt>
      <trkpt lat="43.42972" lon="6.10663">
        <ele>280.60000610352</ele>
        <time>2015-10-07T13:33:03Z</time>
      </trkpt>
      <trkpt lat="43.42972" lon="6.10661">
        <ele>280.79998779297</ele>
        <time>2015-10-07T13:33:04Z</time>
      </trkpt>
      <trkpt lat="43.42973" lon="6.10652">
        <ele>280.79998779297</ele>
        <time>2015-10-07T13:33:10Z</time>
      </trkpt>
      <trkpt lat="43.42973" lon="6.10652">
        <ele>280.39999389648</ele>
        <time>2015-10-07T13:33:17Z</time>
      </trkpt>
      <trkpt lat="43.42973" lon="6.10652">
        <ele>280</ele>
        <time>2015-10-07T13:33:19Z</time>
      </trkpt>
      <trkpt lat="43.42973" lon="6.10652">
        <ele>280</ele>
        <time>2015-10-07T13:33:35Z</time>
      </trkpt>
      <trkpt lat="43.42973" lon="6.10652">
        <ele>280</ele>
        <time>2015-10-07T13:33:39Z</time>
      </trkpt>
      <trkpt lat="43.42973" lon="6.10652">
        <ele>280</ele>
        <time>2015-10-07T13:33:49Z</time>
      </trkpt>
      <trkpt lat="43.42973" lon="6.10652">
        <ele>280.39999389648</ele>
        <time>2015-10-07T13:34:39Z</time>
      </trkpt>
      <trkpt lat="43.42973" lon="6.10652">
        <ele>280.20001220703</ele>
        <time>2015-10-07T13:35:06Z</time>
      </trkpt>
      <trkpt lat="43.42973" lon="6.10652">
        <ele>280.20001220703</ele>
        <time>2015-10-07T13:35:08Z</time>
      </trkpt>
      <trkpt lat="43.42973" lon="6.10652">
        <ele>280.60000610352</ele>
        <time>2015-10-07T13:35:27Z</time>
      </trkpt>
      <trkpt lat="43.42973" lon="6.10651">
        <ele>280.39999389648</ele>
        <time>2015-10-07T13:35:43Z</time>
      </trkpt>
      <trkpt lat="43.42973" lon="6.10652">
        <ele>280.39999389648</ele>
        <time>2015-10-07T13:35:46Z</time>
      </trkpt>
      <trkpt lat="43.42974" lon="6.10652">
        <ele>280.60000610352</ele>
        <time>2015-10-07T13:35:49Z</time>
      </trkpt>
      <trkpt lat="43.42973" lon="6.10652">
        <ele>280.60000610352</ele>
        <time>2015-10-07T13:35:52Z</time>
      </trkpt>
      <trkpt lat="43.42973" lon="6.10654">
        <ele>280.60000610352</ele>
        <time>2015-10-07T13:35:58Z</time>
      </trkpt>
      <trkpt lat="43.42973" lon="6.10653">
        <ele>280</ele>
        <time>2015-10-07T13:36:03Z</time>
      </trkpt>
      <trkpt lat="43.42973" lon="6.10653">
        <ele>279.60000610352</ele>
        <time>2015-10-07T13:36:07Z</time>
      </trkpt>
      <trkpt lat="43.42973" lon="6.10654">
        <ele>278.79998779297</ele>
        <time>2015-10-07T13:37:31Z</time>
      </trkpt>
      <trkpt lat="43.42973" lon="6.10654">
        <ele>279.60000610352</ele>
        <time>2015-10-07T13:37:47Z</time>
      </trkpt>
      <trkpt lat="43.42971" lon="6.10652">
        <ele>280.79998779297</ele>
        <time>2015-10-07T13:37:51Z</time>
      </trkpt>
      <trkpt lat="43.42971" lon="6.10651">
        <ele>280.39999389648</ele>
        <time>2015-10-07T13:37:54Z</time>
      </trkpt>
      <trkpt lat="43.42971" lon="6.10651">
        <ele>280.20001220703</ele>
        <time>2015-10-07T13:37:57Z</time>
      </trkpt>
      <trkpt lat="43.42971" lon="6.10651">
        <ele>280</ele>
        <time>2015-10-07T13:38:03Z</time>
      </trkpt>
      <trkpt lat="43.42971" lon="6.1065">
        <ele>279.60000610352</ele>
        <time>2015-10-07T13:38:11Z</time>
      </trkpt>
      <trkpt lat="43.42972" lon="6.1065">
        <ele>279.60000610352</ele>
        <time>2015-10-07T13:38:16Z</time>
      </trkpt>
      <trkpt lat="43.42972" lon="6.1065">
        <ele>279.20001220703</ele>
        <time>2015-10-07T13:38:17Z</time>
      </trkpt>
      <trkpt lat="43.42971" lon="6.1065">
        <ele>279.20001220703</ele>
        <time>2015-10-07T13:38:41Z</time>
      </trkpt>
      <trkpt lat="43.42971" lon="6.1065">
        <ele>279.20001220703</ele>
        <time>2015-10-07T13:39:01Z</time>
      </trkpt>
      <trkpt lat="43.42971" lon="6.10649">
        <ele>278.60000610352</ele>
        <time>2015-10-07T13:44:33Z</time>
      </trkpt>
      <trkpt lat="43.42971" lon="6.10649">
        <ele>279.60000610352</ele>
        <time>2015-10-07T13:44:50Z</time>
      </trkpt>
      <trkpt lat="43.42971" lon="6.1065">
        <ele>279</ele>
        <time>2015-10-07T13:45:19Z</time>
      </trkpt>
      <trkpt lat="43.42971" lon="6.1065">
        <ele>279.60000610352</ele>
        <time>2015-10-07T13:45:41Z</time>
      </trkpt>
      <trkpt lat="43.42971" lon="6.10651">
        <ele>279.60000610352</ele>
        <time>2015-10-07T13:46:11Z</time>
      </trkpt>
      <trkpt lat="43.42971" lon="6.10653">
        <ele>279.60000610352</ele>
        <time>2015-10-07T13:46:12Z</time>
      </trkpt>
      <trkpt lat="43.42965" lon="6.10655">
        <ele>279</ele>
        <time>2015-10-07T13:46:16Z</time>
      </trkpt>
      <trkpt lat="43.42958" lon="6.10655">
        <ele>278.39999389648</ele>
        <time>2015-10-07T13:46:19Z</time>
      </trkpt>
      <trkpt lat="43.42945" lon="6.10654">
        <ele>278.79998779297</ele>
        <time>2015-10-07T13:46:24Z</time>
      </trkpt>
      <trkpt lat="43.42928" lon="6.10653">
        <ele>278.39999389648</ele>
        <time>2015-10-07T13:46:32Z</time>
      </trkpt>
      <trkpt lat="43.42915" lon="6.10651">
        <ele>277.39999389648</ele>
        <time>2015-10-07T13:46:37Z</time>
      </trkpt>
      <trkpt lat="43.42912" lon="6.1065">
        <ele>277.39999389648</ele>
        <time>2015-10-07T13:46:38Z</time>
      </trkpt>
      <trkpt lat="43.42905" lon="6.10646">
        <ele>278</ele>
        <time>2015-10-07T13:46:41Z</time>
      </trkpt>
      <trkpt lat="43.42899" lon="6.10641">
        <ele>277.79998779297</ele>
        <time>2015-10-07T13:46:44Z</time>
      </trkpt>
      <trkpt lat="43.42889" lon="6.10633">
        <ele>278.20001220703</ele>
        <time>2015-10-07T13:46:49Z</time>
      </trkpt>
      <trkpt lat="43.42885" lon="6.10629">
        <ele>278.20001220703</ele>
        <time>2015-10-07T13:46:51Z</time>
      </trkpt>
      <trkpt lat="43.4288" lon="6.10622">
        <ele>278.60000610352</ele>
        <time>2015-10-07T13:46:54Z</time>
      </trkpt>
      <trkpt lat="43.42876" lon="6.10611">
        <ele>278.20001220703</ele>
        <time>2015-10-07T13:46:58Z</time>
      </trkpt>
      <trkpt lat="43.42873" lon="6.10589">
        <ele>279.20001220703</ele>
        <time>2015-10-07T13:47:05Z</time>
      </trkpt>
      <trkpt lat="43.42871" lon="6.10573">
        <ele>279.39999389648</ele>
        <time>2015-10-07T13:47:10Z</time>
      </trkpt>
      <trkpt lat="43.4287" lon="6.10567">
        <ele>279.20001220703</ele>
        <time>2015-10-07T13:47:12Z</time>
      </trkpt>
      <trkpt lat="43.42868" lon="6.10559">
        <ele>279.60000610352</ele>
        <time>2015-10-07T13:47:15Z</time>
      </trkpt>
      <trkpt lat="43.42864" lon="6.10547">
        <ele>280.39999389648</ele>
        <time>2015-10-07T13:47:19Z</time>
      </trkpt>
      <trkpt lat="43.42861" lon="6.10539">
        <ele>280.79998779297</ele>
        <time>2015-10-07T13:47:22Z</time>
      </trkpt>
      <trkpt lat="43.42854" lon="6.10521">
        <ele>281.39999389648</ele>
        <time>2015-10-07T13:47:29Z</time>
      </trkpt>
      <trkpt lat="43.4285" lon="6.10513">
        <ele>282</ele>
        <time>2015-10-07T13:47:33Z</time>
      </trkpt>
      <trkpt lat="43.42839" lon="6.10492">
        <ele>282.60000610352</ele>
        <time>2015-10-07T13:47:42Z</time>
      </trkpt>
      <trkpt lat="43.42836" lon="6.10471">
        <ele>283.60000610352</ele>
        <time>2015-10-07T13:47:50Z</time>
      </trkpt>
      <trkpt lat="43.42836" lon="6.10468">
        <ele>284.20001220703</ele>
        <time>2015-10-07T13:47:51Z</time>
      </trkpt>
      <trkpt lat="43.42836" lon="6.10461">
        <ele>284.39999389648</ele>
        <time>2015-10-07T13:47:54Z</time>
      </trkpt>
      <trkpt lat="43.42833" lon="6.10441">
        <ele>284.39999389648</ele>
        <time>2015-10-07T13:48:02Z</time>
      </trkpt>
      <trkpt lat="43.4283" lon="6.10423">
        <ele>283.60000610352</ele>
        <time>2015-10-07T13:48:06Z</time>
      </trkpt>
      <trkpt lat="43.4283" lon="6.10419">
        <ele>283.79998779297</ele>
        <time>2015-10-07T13:48:07Z</time>
      </trkpt>
      <trkpt lat="43.42827" lon="6.10402">
        <ele>283.79998779297</ele>
        <time>2015-10-07T13:48:13Z</time>
      </trkpt>
      <trkpt lat="43.42824" lon="6.10395">
        <ele>283</ele>
        <time>2015-10-07T13:48:16Z</time>
      </trkpt>
      <trkpt lat="43.42818" lon="6.10391">
        <ele>282.79998779297</ele>
        <time>2015-10-07T13:48:19Z</time>
      </trkpt>
      <trkpt lat="43.42804" lon="6.10379">
        <ele>283.39999389648</ele>
        <time>2015-10-07T13:48:26Z</time>
      </trkpt>
      <trkpt lat="43.42797" lon="6.10373">
        <ele>284</ele>
        <time>2015-10-07T13:48:29Z</time>
      </trkpt>
      <trkpt lat="43.42788" lon="6.10364">
        <ele>284.39999389648</ele>
        <time>2015-10-07T13:48:33Z</time>
      </trkpt>
      <trkpt lat="43.42776" lon="6.10343">
        <ele>284</ele>
        <time>2015-10-07T13:48:39Z</time>
      </trkpt>
      <trkpt lat="43.42776" lon="6.10333">
        <ele>283.79998779297</ele>
        <time>2015-10-07T13:48:41Z</time>
      </trkpt>
      <trkpt lat="43.42777" lon="6.10328">
        <ele>283</ele>
        <time>2015-10-07T13:48:42Z</time>
      </trkpt>
      <trkpt lat="43.42779" lon="6.10322">
        <ele>282.60000610352</ele>
        <time>2015-10-07T13:48:43Z</time>
      </trkpt>
      <trkpt lat="43.42781" lon="6.10317">
        <ele>282.60000610352</ele>
        <time>2015-10-07T13:48:44Z</time>
      </trkpt>
      <trkpt lat="43.42788" lon="6.10307">
        <ele>281.60000610352</ele>
        <time>2015-10-07T13:48:46Z</time>
      </trkpt>
      <trkpt lat="43.42792" lon="6.10301">
        <ele>280.60000610352</ele>
        <time>2015-10-07T13:48:47Z</time>
      </trkpt>
      <trkpt lat="43.42796" lon="6.10289">
        <ele>280.60000610352</ele>
        <time>2015-10-07T13:48:49Z</time>
      </trkpt>
      <trkpt lat="43.42798" lon="6.10276">
        <ele>280.39999389648</ele>
        <time>2015-10-07T13:48:51Z</time>
      </trkpt>
      <trkpt lat="43.42803" lon="6.10255">
        <ele>280.39999389648</ele>
        <time>2015-10-07T13:48:55Z</time>
      </trkpt>
      <trkpt lat="43.42812" lon="6.10238">
        <ele>280.39999389648</ele>
        <time>2015-10-07T13:48:59Z</time>
      </trkpt>
      <trkpt lat="43.42822" lon="6.10224">
        <ele>279.39999389648</ele>
        <time>2015-10-07T13:49:03Z</time>
      </trkpt>
      <trkpt lat="43.42825" lon="6.10221">
        <ele>278.79998779297</ele>
        <time>2015-10-07T13:49:04Z</time>
      </trkpt>
      <trkpt lat="43.42831" lon="6.10209">
        <ele>278</ele>
        <time>2015-10-07T13:49:07Z</time>
      </trkpt>
      <trkpt lat="43.42834" lon="6.10204">
        <ele>277.79998779297</ele>
        <time>2015-10-07T13:49:09Z</time>
      </trkpt>
      <trkpt lat="43.42838" lon="6.10189">
        <ele>278.39999389648</ele>
        <time>2015-10-07T13:49:14Z</time>
      </trkpt>
      <trkpt lat="43.42839" lon="6.10185">
        <ele>279.20001220703</ele>
        <time>2015-10-07T13:49:16Z</time>
      </trkpt>
      <trkpt lat="43.42839" lon="6.10184">
        <ele>279.60000610352</ele>
        <time>2015-10-07T13:49:18Z</time>
      </trkpt>
      <trkpt lat="43.42839" lon="6.10184">
        <ele>279.60000610352</ele>
        <time>2015-10-07T13:49:30Z</time>
      </trkpt>
      <trkpt lat="43.42839" lon="6.10184">
        <ele>280</ele>
        <time>2015-10-07T13:49:40Z</time>
      </trkpt>
      <trkpt lat="43.42839" lon="6.10184">
        <ele>279.60000610352</ele>
        <time>2015-10-07T13:49:50Z</time>
      </trkpt>
      <trkpt lat="43.42839" lon="6.10184">
        <ele>279.60000610352</ele>
        <time>2015-10-07T13:50:01Z</time>
      </trkpt>
      <trkpt lat="43.4284" lon="6.10184">
        <ele>279.39999389648</ele>
        <time>2015-10-07T13:50:03Z</time>
      </trkpt>
      <trkpt lat="43.42841" lon="6.1018">
        <ele>279.79998779297</ele>
        <time>2015-10-07T13:50:09Z</time>
      </trkpt>
      <trkpt lat="43.42843" lon="6.10178">
        <ele>279.79998779297</ele>
        <time>2015-10-07T13:50:10Z</time>
      </trkpt>
      <trkpt lat="43.42847" lon="6.10171">
        <ele>280.39999389648</ele>
        <time>2015-10-07T13:50:13Z</time>
      </trkpt>
      <trkpt lat="43.42857" lon="6.10153">
        <ele>281.20001220703</ele>
        <time>2015-10-07T13:50:20Z</time>
      </trkpt>
      <trkpt lat="43.42859" lon="6.10151">
        <ele>281.39999389648</ele>
        <time>2015-10-07T13:50:21Z</time>
      </trkpt>
      <trkpt lat="43.42865" lon="6.10143">
        <ele>281.79998779297</ele>
        <time>2015-10-07T13:50:25Z</time>
      </trkpt>
      <trkpt lat="43.42869" lon="6.10136">
        <ele>282.20001220703</ele>
        <time>2015-10-07T13:50:28Z</time>
      </trkpt>
      <trkpt lat="43.42873" lon="6.10126">
        <ele>282.39999389648</ele>
        <time>2015-10-07T13:50:32Z</time>
      </trkpt>
      <trkpt lat="43.42873" lon="6.10121">
        <ele>282.79998779297</ele>
        <time>2015-10-07T13:50:34Z</time>
      </trkpt>
      <trkpt lat="43.42875" lon="6.10114">
        <ele>283.20001220703</ele>
        <time>2015-10-07T13:50:37Z</time>
      </trkpt>
      <trkpt lat="43.42875" lon="6.10112">
        <ele>283.60000610352</ele>
        <time>2015-10-07T13:50:38Z</time>
      </trkpt>
      <trkpt lat="43.42875" lon="6.10105">
        <ele>284</ele>
        <time>2015-10-07T13:50:41Z</time>
      </trkpt>
      <trkpt lat="43.42876" lon="6.10099">
        <ele>284.20001220703</ele>
        <time>2015-10-07T13:50:44Z</time>
      </trkpt>
      <trkpt lat="43.42875" lon="6.10094">
        <ele>284.79998779297</ele>
        <time>2015-10-07T13:50:46Z</time>
      </trkpt>
      <trkpt lat="43.42876" lon="6.10087">
        <ele>285.79998779297</ele>
        <time>2015-10-07T13:50:49Z</time>
      </trkpt>
      <trkpt lat="43.42876" lon="6.10085">
        <ele>286</ele>
        <time>2015-10-07T13:50:50Z</time>
      </trkpt>
      <trkpt lat="43.42876" lon="6.1008">
        <ele>286.60000610352</ele>
        <time>2015-10-07T13:50:53Z</time>
      </trkpt>
      <trkpt lat="43.42876" lon="6.10076">
        <ele>287</ele>
        <time>2015-10-07T13:50:55Z</time>
      </trkpt>
      <trkpt lat="43.42876" lon="6.10073">
        <ele>287.20001220703</ele>
        <time>2015-10-07T13:50:56Z</time>
      </trkpt>
      <trkpt lat="43.42876" lon="6.10061">
        <ele>288.20001220703</ele>
        <time>2015-10-07T13:51:02Z</time>
      </trkpt>
      <trkpt lat="43.42876" lon="6.10057">
        <ele>288.39999389648</ele>
        <time>2015-10-07T13:51:04Z</time>
      </trkpt>
      <trkpt lat="43.42877" lon="6.10051">
        <ele>289.39999389648</ele>
        <time>2015-10-07T13:51:07Z</time>
      </trkpt>
      <trkpt lat="43.42878" lon="6.10045">
        <ele>290</ele>
        <time>2015-10-07T13:51:10Z</time>
      </trkpt>
      <trkpt lat="43.4288" lon="6.10037">
        <ele>289.79998779297</ele>
        <time>2015-10-07T13:51:15Z</time>
      </trkpt>
      <trkpt lat="43.42881" lon="6.10036">
        <ele>290</ele>
        <time>2015-10-07T13:51:17Z</time>
      </trkpt>
      <trkpt lat="43.4288" lon="6.10036">
        <ele>290.20001220703</ele>
        <time>2015-10-07T13:51:20Z</time>
      </trkpt>
      <trkpt lat="43.4288" lon="6.10036">
        <ele>290.20001220703</ele>
        <time>2015-10-07T13:51:24Z</time>
      </trkpt>
      <trkpt lat="43.4288" lon="6.10036">
        <ele>289.79998779297</ele>
        <time>2015-10-07T13:51:38Z</time>
      </trkpt>
      <trkpt lat="43.4288" lon="6.10036">
        <ele>290</ele>
        <time>2015-10-07T13:52:05Z</time>
      </trkpt>
      <trkpt lat="43.4288" lon="6.10036">
        <ele>290.39999389648</ele>
        <time>2015-10-07T13:52:14Z</time>
      </trkpt>
      <trkpt lat="43.4288" lon="6.10036">
        <ele>290</ele>
        <time>2015-10-07T13:52:23Z</time>
      </trkpt>
      <trkpt lat="43.4288" lon="6.10036">
        <ele>289.79998779297</ele>
        <time>2015-10-07T13:52:28Z</time>
      </trkpt>
      <trkpt lat="43.42881" lon="6.10035">
        <ele>289.79998779297</ele>
        <time>2015-10-07T13:52:33Z</time>
      </trkpt>
      <trkpt lat="43.42882" lon="6.10035">
        <ele>289.79998779297</ele>
        <time>2015-10-07T13:52:34Z</time>
      </trkpt>
      <trkpt lat="43.42884" lon="6.10032">
        <ele>290</ele>
        <time>2015-10-07T13:52:36Z</time>
      </trkpt>
      <trkpt lat="43.42886" lon="6.1003">
        <ele>290</ele>
        <time>2015-10-07T13:52:38Z</time>
      </trkpt>
      <trkpt lat="43.4289" lon="6.10028">
        <ele>290</ele>
        <time>2015-10-07T13:52:41Z</time>
      </trkpt>
      <trkpt lat="43.42898" lon="6.10017">
        <ele>289.20001220703</ele>
        <time>2015-10-07T13:52:47Z</time>
      </trkpt>
      <trkpt lat="43.42905" lon="6.09999">
        <ele>288.20001220703</ele>
        <time>2015-10-07T13:52:51Z</time>
      </trkpt>
      <trkpt lat="43.42912" lon="6.09984">
        <ele>286.60000610352</ele>
        <time>2015-10-07T13:52:54Z</time>
      </trkpt>
      <trkpt lat="43.42914" lon="6.09979">
        <ele>286.39999389648</ele>
        <time>2015-10-07T13:52:55Z</time>
      </trkpt>
      <trkpt lat="43.42926" lon="6.09966">
        <ele>285.60000610352</ele>
        <time>2015-10-07T13:52:59Z</time>
      </trkpt>
      <trkpt lat="43.42937" lon="6.09958">
        <ele>285.60000610352</ele>
        <time>2015-10-07T13:53:02Z</time>
      </trkpt>
      <trkpt lat="43.42949" lon="6.09954">
        <ele>284.60000610352</ele>
        <time>2015-10-07T13:53:05Z</time>
      </trkpt>
      <trkpt lat="43.42953" lon="6.09952">
        <ele>284.20001220703</ele>
        <time>2015-10-07T13:53:06Z</time>
      </trkpt>
      <trkpt lat="43.42958" lon="6.09943">
        <ele>283.60000610352</ele>
        <time>2015-10-07T13:53:08Z</time>
      </trkpt>
      <trkpt lat="43.4296" lon="6.09936">
        <ele>283</ele>
        <time>2015-10-07T13:53:09Z</time>
      </trkpt>
      <trkpt lat="43.42961" lon="6.09919">
        <ele>282.39999389648</ele>
        <time>2015-10-07T13:53:11Z</time>
      </trkpt>
      <trkpt lat="43.42962" lon="6.09904">
        <ele>282.20001220703</ele>
        <time>2015-10-07T13:53:13Z</time>
      </trkpt>
      <trkpt lat="43.42963" lon="6.09898">
        <ele>281.20001220703</ele>
        <time>2015-10-07T13:53:14Z</time>
      </trkpt>
      <trkpt lat="43.42964" lon="6.09884">
        <ele>280.39999389648</ele>
        <time>2015-10-07T13:53:16Z</time>
      </trkpt>
      <trkpt lat="43.42965" lon="6.09862">
        <ele>280.20001220703</ele>
        <time>2015-10-07T13:53:19Z</time>
      </trkpt>
      <trkpt lat="43.42965" lon="6.09855">
        <ele>280</ele>
        <time>2015-10-07T13:53:20Z</time>
      </trkpt>
      <trkpt lat="43.42964" lon="6.0984">
        <ele>279.60000610352</ele>
        <time>2015-10-07T13:53:22Z</time>
      </trkpt>
      <trkpt lat="43.42964" lon="6.09817">
        <ele>279.60000610352</ele>
        <time>2015-10-07T13:53:26Z</time>
      </trkpt>
      <trkpt lat="43.42966" lon="6.09811">
        <ele>279.20001220703</ele>
        <time>2015-10-07T13:53:27Z</time>
      </trkpt>
      <trkpt lat="43.42967" lon="6.09806">
        <ele>278.20001220703</ele>
        <time>2015-10-07T13:53:28Z</time>
      </trkpt>
      <trkpt lat="43.4297" lon="6.09793">
        <ele>278.20001220703</ele>
        <time>2015-10-07T13:53:30Z</time>
      </trkpt>
      <trkpt lat="43.42971" lon="6.09779">
        <ele>277.79998779297</ele>
        <time>2015-10-07T13:53:32Z</time>
      </trkpt>
      <trkpt lat="43.42971" lon="6.09771">
        <ele>277</ele>
        <time>2015-10-07T13:53:33Z</time>
      </trkpt>
      <trkpt lat="43.42973" lon="6.09755">
        <ele>276</ele>
        <time>2015-10-07T13:53:36Z</time>
      </trkpt>
      <trkpt lat="43.42973" lon="6.09754">
        <ele>275.79998779297</ele>
        <time>2015-10-07T13:53:37Z</time>
      </trkpt>
      <trkpt lat="43.42973" lon="6.09753">
        <ele>275.20001220703</ele>
        <time>2015-10-07T13:53:39Z</time>
      </trkpt>
      <trkpt lat="43.42973" lon="6.09753">
        <ele>275</ele>
        <time>2015-10-07T13:53:40Z</time>
      </trkpt>
      <trkpt lat="43.42973" lon="6.09754">
        <ele>274.39999389648</ele>
        <time>2015-10-07T13:53:48Z</time>
      </trkpt>
      <trkpt lat="43.42973" lon="6.09754">
        <ele>274.60000610352</ele>
        <time>2015-10-07T13:53:56Z</time>
      </trkpt>
      <trkpt lat="43.42973" lon="6.09754">
        <ele>274.60000610352</ele>
        <time>2015-10-07T13:54:11Z</time>
      </trkpt>
      <trkpt lat="43.42973" lon="6.09754">
        <ele>274.79998779297</ele>
        <time>2015-10-07T13:54:14Z</time>
      </trkpt>
      <trkpt lat="43.42972" lon="6.09753">
        <ele>275.60000610352</ele>
        <time>2015-10-07T13:54:19Z</time>
      </trkpt>
      <trkpt lat="43.42972" lon="6.09751">
        <ele>275.60000610352</ele>
        <time>2015-10-07T13:54:20Z</time>
      </trkpt>
      <trkpt lat="43.42975" lon="6.09733">
        <ele>275</ele>
        <time>2015-10-07T13:54:25Z</time>
      </trkpt>
      <trkpt lat="43.42977" lon="6.09715">
        <ele>273.60000610352</ele>
        <time>2015-10-07T13:54:29Z</time>
      </trkpt>
      <trkpt lat="43.42977" lon="6.0971">
        <ele>273.60000610352</ele>
        <time>2015-10-07T13:54:30Z</time>
      </trkpt>
      <trkpt lat="43.42976" lon="6.09692">
        <ele>272.39999389648</ele>
        <time>2015-10-07T13:54:33Z</time>
      </trkpt>
      <trkpt lat="43.42978" lon="6.09682">
        <ele>271.79998779297</ele>
        <time>2015-10-07T13:54:35Z</time>
      </trkpt>
      <trkpt lat="43.42979" lon="6.09676">
        <ele>270.79998779297</ele>
        <time>2015-10-07T13:54:36Z</time>
      </trkpt>
      <trkpt lat="43.4298" lon="6.09666">
        <ele>271.20001220703</ele>
        <time>2015-10-07T13:54:38Z</time>
      </trkpt>
      <trkpt lat="43.4298" lon="6.09648">
        <ele>271.79998779297</ele>
        <time>2015-10-07T13:54:41Z</time>
      </trkpt>
      <trkpt lat="43.42981" lon="6.09629">
        <ele>271.60000610352</ele>
        <time>2015-10-07T13:54:44Z</time>
      </trkpt>
      <trkpt lat="43.42982" lon="6.09609">
        <ele>271.20001220703</ele>
        <time>2015-10-07T13:54:47Z</time>
      </trkpt>
      <trkpt lat="43.42989" lon="6.09575">
        <ele>271</ele>
        <time>2015-10-07T13:54:52Z</time>
      </trkpt>
      <trkpt lat="43.42993" lon="6.09561">
        <ele>271.20001220703</ele>
        <time>2015-10-07T13:54:54Z</time>
      </trkpt>
      <trkpt lat="43.42997" lon="6.09553">
        <ele>271.20001220703</ele>
        <time>2015-10-07T13:54:56Z</time>
      </trkpt>
      <trkpt lat="43.42998" lon="6.09547">
        <ele>272</ele>
        <time>2015-10-07T13:54:58Z</time>
      </trkpt>
      <trkpt lat="43.42999" lon="6.09541">
        <ele>273.20001220703</ele>
        <time>2015-10-07T13:55:00Z</time>
      </trkpt>
      <trkpt lat="43.42999" lon="6.09538">
        <ele>273.20001220703</ele>
        <time>2015-10-07T13:55:01Z</time>
      </trkpt>
      <trkpt lat="43.42999" lon="6.09531">
        <ele>273.60000610352</ele>
        <time>2015-10-07T13:55:03Z</time>
      </trkpt>
      <trkpt lat="43.42995" lon="6.09518">
        <ele>273</ele>
        <time>2015-10-07T13:55:06Z</time>
      </trkpt>
      <trkpt lat="43.42993" lon="6.09513">
        <ele>272.39999389648</ele>
        <time>2015-10-07T13:55:07Z</time>
      </trkpt>
      <trkpt lat="43.42992" lon="6.09507">
        <ele>272.20001220703</ele>
        <time>2015-10-07T13:55:08Z</time>
      </trkpt>
      <trkpt lat="43.42992" lon="6.09495">
        <ele>271.39999389648</ele>
        <time>2015-10-07T13:55:10Z</time>
      </trkpt>
      <trkpt lat="43.42992" lon="6.09489">
        <ele>271</ele>
        <time>2015-10-07T13:55:11Z</time>
      </trkpt>
      <trkpt lat="43.42991" lon="6.09459">
        <ele>270.60000610352</ele>
        <time>2015-10-07T13:55:17Z</time>
      </trkpt>
      <trkpt lat="43.42992" lon="6.09448">
        <ele>270.20001220703</ele>
        <time>2015-10-07T13:55:20Z</time>
      </trkpt>
      <trkpt lat="43.42992" lon="6.09446">
        <ele>270</ele>
        <time>2015-10-07T13:55:22Z</time>
      </trkpt>
      <trkpt lat="43.42992" lon="6.09445">
        <ele>269.79998779297</ele>
        <time>2015-10-07T13:55:28Z</time>
      </trkpt>
      <trkpt lat="43.42992" lon="6.09445">
        <ele>269.60000610352</ele>
        <time>2015-10-07T13:55:30Z</time>
      </trkpt>
      <trkpt lat="43.42992" lon="6.09445">
        <ele>269.39999389648</ele>
        <time>2015-10-07T13:55:34Z</time>
      </trkpt>
      <trkpt lat="43.42992" lon="6.09445">
        <ele>270</ele>
        <time>2015-10-07T13:55:46Z</time>
      </trkpt>
      <trkpt lat="43.42992" lon="6.09445">
        <ele>270</ele>
        <time>2015-10-07T13:55:50Z</time>
      </trkpt>
      <trkpt lat="43.42992" lon="6.09445">
        <ele>270</ele>
        <time>2015-10-07T13:56:01Z</time>
      </trkpt>
      <trkpt lat="43.42992" lon="6.09445">
        <ele>270.20001220703</ele>
        <time>2015-10-07T13:56:30Z</time>
      </trkpt>
      <trkpt lat="43.42992" lon="6.09445">
        <ele>270.20001220703</ele>
        <time>2015-10-07T13:56:31Z</time>
      </trkpt>
      <trkpt lat="43.42992" lon="6.09443">
        <ele>269.79998779297</ele>
        <time>2015-10-07T13:56:38Z</time>
      </trkpt>
      <trkpt lat="43.4299" lon="6.0944">
        <ele>269.60000610352</ele>
        <time>2015-10-07T13:56:40Z</time>
      </trkpt>
      <trkpt lat="43.42982" lon="6.09438">
        <ele>269.60000610352</ele>
        <time>2015-10-07T13:56:43Z</time>
      </trkpt>
      <trkpt lat="43.42979" lon="6.09439">
        <ele>269.79998779297</ele>
        <time>2015-10-07T13:56:44Z</time>
      </trkpt>
      <trkpt lat="43.42972" lon="6.09443">
        <ele>269.39999389648</ele>
        <time>2015-10-07T13:56:46Z</time>
      </trkpt>
      <trkpt lat="43.42965" lon="6.09446">
        <ele>268.79998779297</ele>
        <time>2015-10-07T13:56:48Z</time>
      </trkpt>
      <trkpt lat="43.42958" lon="6.09448">
        <ele>268.79998779297</ele>
        <time>2015-10-07T13:56:50Z</time>
      </trkpt>
      <trkpt lat="43.42942" lon="6.09439">
        <ele>268.60000610352</ele>
        <time>2015-10-07T13:56:55Z</time>
      </trkpt>
      <trkpt lat="43.42924" lon="6.09429">
        <ele>268</ele>
        <time>2015-10-07T13:57:01Z</time>
      </trkpt>
      <trkpt lat="43.42912" lon="6.09416">
        <ele>268.39999389648</ele>
        <time>2015-10-07T13:57:07Z</time>
      </trkpt>
      <trkpt lat="43.42907" lon="6.0941">
        <ele>267.60000610352</ele>
        <time>2015-10-07T13:57:09Z</time>
      </trkpt>
      <trkpt lat="43.42903" lon="6.09397">
        <ele>267.60000610352</ele>
        <time>2015-10-07T13:57:13Z</time>
      </trkpt>
      <trkpt lat="43.42906" lon="6.09376">
        <ele>268.39999389648</ele>
        <time>2015-10-07T13:57:19Z</time>
      </trkpt>
      <trkpt lat="43.42906" lon="6.09363">
        <ele>269</ele>
        <time>2015-10-07T13:57:23Z</time>
      </trkpt>
      <trkpt lat="43.42906" lon="6.09355">
        <ele>269.79998779297</ele>
        <time>2015-10-07T13:57:26Z</time>
      </trkpt>
      <trkpt lat="43.42907" lon="6.09349">
        <ele>269.79998779297</ele>
        <time>2015-10-07T13:57:28Z</time>
      </trkpt>
      <trkpt lat="43.4291" lon="6.09335">
        <ele>270.79998779297</ele>
        <time>2015-10-07T13:57:32Z</time>
      </trkpt>
      <trkpt lat="43.42912" lon="6.09313">
        <ele>271</ele>
        <time>2015-10-07T13:57:38Z</time>
      </trkpt>
      <trkpt lat="43.42913" lon="6.09309">
        <ele>271</ele>
        <time>2015-10-07T13:57:39Z</time>
      </trkpt>
      <trkpt lat="43.42912" lon="6.09287">
        <ele>271</ele>
        <time>2015-10-07T13:57:46Z</time>
      </trkpt>
      <trkpt lat="43.42911" lon="6.09274">
        <ele>271.39999389648</ele>
        <time>2015-10-07T13:57:52Z</time>
      </trkpt>
      <trkpt lat="43.42909" lon="6.09258">
        <ele>272.79998779297</ele>
        <time>2015-10-07T13:57:58Z</time>
      </trkpt>
      <trkpt lat="43.42908" lon="6.0925">
        <ele>273.20001220703</ele>
        <time>2015-10-07T13:58:01Z</time>
      </trkpt>
      <trkpt lat="43.42907" lon="6.09238">
        <ele>273.79998779297</ele>
        <time>2015-10-07T13:58:05Z</time>
      </trkpt>
      <trkpt lat="43.42909" lon="6.09226">
        <ele>274.20001220703</ele>
        <time>2015-10-07T13:58:09Z</time>
      </trkpt>
      <trkpt lat="43.42911" lon="6.09221">
        <ele>275</ele>
        <time>2015-10-07T13:58:11Z</time>
      </trkpt>
      <trkpt lat="43.42916" lon="6.09212">
        <ele>276.39999389648</ele>
        <time>2015-10-07T13:58:16Z</time>
      </trkpt>
      <trkpt lat="43.4292" lon="6.0921">
        <ele>276.39999389648</ele>
        <time>2015-10-07T13:58:18Z</time>
      </trkpt>
      <trkpt lat="43.42931" lon="6.09199">
        <ele>276.60000610352</ele>
        <time>2015-10-07T13:58:25Z</time>
      </trkpt>
      <trkpt lat="43.42938" lon="6.09184">
        <ele>276.79998779297</ele>
        <time>2015-10-07T13:58:33Z</time>
      </trkpt>
      <trkpt lat="43.42938" lon="6.09177">
        <ele>277.60000610352</ele>
        <time>2015-10-07T13:58:36Z</time>
      </trkpt>
      <trkpt lat="43.42938" lon="6.0917">
        <ele>278.39999389648</ele>
        <time>2015-10-07T13:58:39Z</time>
      </trkpt>
      <trkpt lat="43.42939" lon="6.09155">
        <ele>279</ele>
        <time>2015-10-07T13:58:45Z</time>
      </trkpt>
      <trkpt lat="43.42939" lon="6.09142">
        <ele>280.39999389648</ele>
        <time>2015-10-07T13:58:50Z</time>
      </trkpt>
      <trkpt lat="43.42939" lon="6.09138">
        <ele>280.79998779297</ele>
        <time>2015-10-07T13:58:52Z</time>
      </trkpt>
      <trkpt lat="43.42941" lon="6.0913">
        <ele>281.60000610352</ele>
        <time>2015-10-07T13:58:55Z</time>
      </trkpt>
      <trkpt lat="43.42945" lon="6.09122">
        <ele>282.79998779297</ele>
        <time>2015-10-07T13:58:59Z</time>
      </trkpt>
      <trkpt lat="43.42947" lon="6.09118">
        <ele>284</ele>
        <time>2015-10-07T13:59:01Z</time>
      </trkpt>
      <trkpt lat="43.42949" lon="6.09114">
        <ele>285.20001220703</ele>
        <time>2015-10-07T13:59:04Z</time>
      </trkpt>
      <trkpt lat="43.4295" lon="6.09113">
        <ele>285.20001220703</ele>
        <time>2015-10-07T13:59:05Z</time>
      </trkpt>
      <trkpt lat="43.42956" lon="6.09104">
        <ele>286.79998779297</ele>
        <time>2015-10-07T13:59:13Z</time>
      </trkpt>
      <trkpt lat="43.42958" lon="6.09101">
        <ele>287.39999389648</ele>
        <time>2015-10-07T13:59:16Z</time>
      </trkpt>
      <trkpt lat="43.4296" lon="6.091">
        <ele>287.79998779297</ele>
        <time>2015-10-07T13:59:20Z</time>
      </trkpt>
      <trkpt lat="43.4297" lon="6.09097">
        <ele>288.60000610352</ele>
        <time>2015-10-07T13:59:28Z</time>
      </trkpt>
      <trkpt lat="43.42974" lon="6.09094">
        <ele>289.79998779297</ele>
        <time>2015-10-07T13:59:32Z</time>
      </trkpt>
      <trkpt lat="43.42977" lon="6.0909">
        <ele>289.79998779297</ele>
        <time>2015-10-07T13:59:36Z</time>
      </trkpt>
      <trkpt lat="43.42981" lon="6.09085">
        <ele>290</ele>
        <time>2015-10-07T13:59:41Z</time>
      </trkpt>
      <trkpt lat="43.42982" lon="6.09084">
        <ele>290</ele>
        <time>2015-10-07T13:59:43Z</time>
      </trkpt>
      <trkpt lat="43.42982" lon="6.09084">
        <ele>289.60000610352</ele>
        <time>2015-10-07T13:59:47Z</time>
      </trkpt>
      <trkpt lat="43.42982" lon="6.09084">
        <ele>289.60000610352</ele>
        <time>2015-10-07T13:59:50Z</time>
      </trkpt>
      <trkpt lat="43.42982" lon="6.09084">
        <ele>289.60000610352</ele>
        <time>2015-10-07T13:59:54Z</time>
      </trkpt>
      <trkpt lat="43.42982" lon="6.09084">
        <ele>289.60000610352</ele>
        <time>2015-10-07T14:00:01Z</time>
      </trkpt>
      <trkpt lat="43.42982" lon="6.09084">
        <ele>289.39999389648</ele>
        <time>2015-10-07T14:00:08Z</time>
      </trkpt>
      <trkpt lat="43.42982" lon="6.09084">
        <ele>289.60000610352</ele>
        <time>2015-10-07T14:00:11Z</time>
      </trkpt>
      <trkpt lat="43.42982" lon="6.09084">
        <ele>289.79998779297</ele>
        <time>2015-10-07T14:00:13Z</time>
      </trkpt>
      <trkpt lat="43.42982" lon="6.09084">
        <ele>290</ele>
        <time>2015-10-07T14:00:15Z</time>
      </trkpt>
      <trkpt lat="43.42982" lon="6.09084">
        <ele>290.20001220703</ele>
        <time>2015-10-07T14:00:17Z</time>
      </trkpt>
      <trkpt lat="43.42982" lon="6.09084">
        <ele>290</ele>
        <time>2015-10-07T14:00:19Z</time>
      </trkpt>
      <trkpt lat="43.42982" lon="6.09084">
        <ele>289.60000610352</ele>
        <time>2015-10-07T14:00:22Z</time>
      </trkpt>
      <trkpt lat="43.42982" lon="6.09084">
        <ele>289.60000610352</ele>
        <time>2015-10-07T14:00:25Z</time>
      </trkpt>
      <trkpt lat="43.42982" lon="6.09084">
        <ele>289.60000610352</ele>
        <time>2015-10-07T14:00:27Z</time>
      </trkpt>
      <trkpt lat="43.42982" lon="6.09084">
        <ele>289.39999389648</ele>
        <time>2015-10-07T14:00:38Z</time>
      </trkpt>
      <trkpt lat="43.42982" lon="6.09084">
        <ele>289.39999389648</ele>
        <time>2015-10-07T14:00:50Z</time>
      </trkpt>
      <trkpt lat="43.42982" lon="6.09084">
        <ele>289.60000610352</ele>
        <time>2015-10-07T14:00:59Z</time>
      </trkpt>
      <trkpt lat="43.42982" lon="6.09084">
        <ele>290.60000610352</ele>
        <time>2015-10-07T14:01:12Z</time>
      </trkpt>
      <trkpt lat="43.42982" lon="6.09084">
        <ele>289.20001220703</ele>
        <time>2015-10-07T14:01:16Z</time>
      </trkpt>
      <trkpt lat="43.42982" lon="6.09084">
        <ele>290.39999389648</ele>
        <time>2015-10-07T14:01:20Z</time>
      </trkpt>
      <trkpt lat="43.42982" lon="6.09083">
        <ele>289.60000610352</ele>
        <time>2015-10-07T14:01:31Z</time>
      </trkpt>
      <trkpt lat="43.42982" lon="6.09083">
        <ele>289.60000610352</ele>
        <time>2015-10-07T14:01:34Z</time>
      </trkpt>
      <trkpt lat="43.42982" lon="6.09082">
        <ele>289.20001220703</ele>
        <time>2015-10-07T14:01:42Z</time>
      </trkpt>
      <trkpt lat="43.42982" lon="6.09082">
        <ele>289.39999389648</ele>
        <time>2015-10-07T14:01:45Z</time>
      </trkpt>
      <trkpt lat="43.42982" lon="6.09082">
        <ele>289.79998779297</ele>
        <time>2015-10-07T14:01:52Z</time>
      </trkpt>
      <trkpt lat="43.42982" lon="6.09081">
        <ele>289.79998779297</ele>
        <time>2015-10-07T14:02:07Z</time>
      </trkpt>
      <trkpt lat="43.42982" lon="6.09081">
        <ele>290.39999389648</ele>
        <time>2015-10-07T14:02:43Z</time>
      </trkpt>
      <trkpt lat="43.42982" lon="6.09081">
        <ele>290.20001220703</ele>
        <time>2015-10-07T14:03:03Z</time>
      </trkpt>
      <trkpt lat="43.42982" lon="6.09081">
        <ele>289.79998779297</ele>
        <time>2015-10-07T14:03:06Z</time>
      </trkpt>
      <trkpt lat="43.42986" lon="6.09076">
        <ele>289</ele>
        <time>2015-10-07T14:03:09Z</time>
      </trkpt>
      <trkpt lat="43.42987" lon="6.09074">
        <ele>288.79998779297</ele>
        <time>2015-10-07T14:03:10Z</time>
      </trkpt>
      <trkpt lat="43.4299" lon="6.09071">
        <ele>288.79998779297</ele>
        <time>2015-10-07T14:03:11Z</time>
      </trkpt>
      <trkpt lat="43.42997" lon="6.09064">
        <ele>288.39999389648</ele>
        <time>2015-10-07T14:03:13Z</time>
      </trkpt>
      <trkpt lat="43.43006" lon="6.09055">
        <ele>288.20001220703</ele>
        <time>2015-10-07T14:03:15Z</time>
      </trkpt>
      <trkpt lat="43.43014" lon="6.09043">
        <ele>288.20001220703</ele>
        <time>2015-10-07T14:03:17Z</time>
      </trkpt>
      <trkpt lat="43.43016" lon="6.09036">
        <ele>287.39999389648</ele>
        <time>2015-10-07T14:03:18Z</time>
      </trkpt>
      <trkpt lat="43.43019" lon="6.09016">
        <ele>287.79998779297</ele>
        <time>2015-10-07T14:03:21Z</time>
      </trkpt>
      <trkpt lat="43.43019" lon="6.09003">
        <ele>287.20001220703</ele>
        <time>2015-10-07T14:03:23Z</time>
      </trkpt>
      <trkpt lat="43.43019" lon="6.08996">
        <ele>287</ele>
        <time>2015-10-07T14:03:24Z</time>
      </trkpt>
      <trkpt lat="43.4302" lon="6.08989">
        <ele>286.20001220703</ele>
        <time>2015-10-07T14:03:25Z</time>
      </trkpt>
      <trkpt lat="43.4302" lon="6.08982">
        <ele>285.60000610352</ele>
        <time>2015-10-07T14:03:26Z</time>
      </trkpt>
      <trkpt lat="43.4302" lon="6.08962">
        <ele>285.39999389648</ele>
        <time>2015-10-07T14:03:29Z</time>
      </trkpt>
      <trkpt lat="43.4302" lon="6.08955">
        <ele>284.79998779297</ele>
        <time>2015-10-07T14:03:30Z</time>
      </trkpt>
      <trkpt lat="43.43019" lon="6.08949">
        <ele>284.39999389648</ele>
        <time>2015-10-07T14:03:31Z</time>
      </trkpt>
      <trkpt lat="43.43016" lon="6.08939">
        <ele>284.39999389648</ele>
        <time>2015-10-07T14:03:33Z</time>
      </trkpt>
      <trkpt lat="43.43014" lon="6.08934">
        <ele>284.39999389648</ele>
        <time>2015-10-07T14:03:36Z</time>
      </trkpt>
      <trkpt lat="43.43015" lon="6.08932">
        <ele>284.20001220703</ele>
        <time>2015-10-07T14:03:41Z</time>
      </trkpt>
      <trkpt lat="43.43015" lon="6.08932">
        <ele>284.39999389648</ele>
        <time>2015-10-07T14:03:47Z</time>
      </trkpt>
      <trkpt lat="43.43015" lon="6.0893">
        <ele>284.20001220703</ele>
        <time>2015-10-07T14:03:59Z</time>
      </trkpt>
      <trkpt lat="43.43015" lon="6.08929">
        <ele>283.60000610352</ele>
        <time>2015-10-07T14:04:02Z</time>
      </trkpt>
      <trkpt lat="43.43014" lon="6.08926">
        <ele>283.20001220703</ele>
        <time>2015-10-07T14:04:05Z</time>
      </trkpt>
      <trkpt lat="43.43014" lon="6.08925">
        <ele>283.39999389648</ele>
        <time>2015-10-07T14:04:13Z</time>
      </trkpt>
      <trkpt lat="43.43014" lon="6.08925">
        <ele>284</ele>
        <time>2015-10-07T14:04:24Z</time>
      </trkpt>
      <trkpt lat="43.43014" lon="6.08924">
        <ele>284</ele>
        <time>2015-10-07T14:04:42Z</time>
      </trkpt>
      <trkpt lat="43.43014" lon="6.08924">
        <ele>283.60000610352</ele>
        <time>2015-10-07T14:05:02Z</time>
      </trkpt>
      <trkpt lat="43.43014" lon="6.08924">
        <ele>283.60000610352</ele>
        <time>2015-10-07T14:05:10Z</time>
      </trkpt>
      <trkpt lat="43.43015" lon="6.08923">
        <ele>283.39999389648</ele>
        <time>2015-10-07T14:05:14Z</time>
      </trkpt>
      <trkpt lat="43.43018" lon="6.08913">
        <ele>283.39999389648</ele>
        <time>2015-10-07T14:05:18Z</time>
      </trkpt>
      <trkpt lat="43.43019" lon="6.08909">
        <ele>283.20001220703</ele>
        <time>2015-10-07T14:05:19Z</time>
      </trkpt>
      <trkpt lat="43.43022" lon="6.08899">
        <ele>282.79998779297</ele>
        <time>2015-10-07T14:05:21Z</time>
      </trkpt>
      <trkpt lat="43.43021" lon="6.08886">
        <ele>283.20001220703</ele>
        <time>2015-10-07T14:05:23Z</time>
      </trkpt>
      <trkpt lat="43.43021" lon="6.08874">
        <ele>281.79998779297</ele>
        <time>2015-10-07T14:05:25Z</time>
      </trkpt>
      <trkpt lat="43.43023" lon="6.08862">
        <ele>282.20001220703</ele>
        <time>2015-10-07T14:05:27Z</time>
      </trkpt>
      <trkpt lat="43.43023" lon="6.08855">
        <ele>282.20001220703</ele>
        <time>2015-10-07T14:05:28Z</time>
      </trkpt>
      <trkpt lat="43.43021" lon="6.08831">
        <ele>282</ele>
        <time>2015-10-07T14:05:31Z</time>
      </trkpt>
      <trkpt lat="43.43019" lon="6.08823">
        <ele>281.79998779297</ele>
        <time>2015-10-07T14:05:32Z</time>
      </trkpt>
      <trkpt lat="43.43017" lon="6.08807">
        <ele>280.20001220703</ele>
        <time>2015-10-07T14:05:34Z</time>
      </trkpt>
      <trkpt lat="43.43016" lon="6.08792">
        <ele>280.79998779297</ele>
        <time>2015-10-07T14:05:36Z</time>
      </trkpt>
      <trkpt lat="43.43015" lon="6.08764">
        <ele>280.39999389648</ele>
        <time>2015-10-07T14:05:40Z</time>
      </trkpt>
      <trkpt lat="43.43011" lon="6.08752">
        <ele>279.79998779297</ele>
        <time>2015-10-07T14:05:42Z</time>
      </trkpt>
      <trkpt lat="43.43007" lon="6.0874">
        <ele>279.39999389648</ele>
        <time>2015-10-07T14:05:44Z</time>
      </trkpt>
      <trkpt lat="43.43005" lon="6.08734">
        <ele>279.20001220703</ele>
        <time>2015-10-07T14:05:45Z</time>
      </trkpt>
      <trkpt lat="43.42996" lon="6.08715">
        <ele>279</ele>
        <time>2015-10-07T14:05:48Z</time>
      </trkpt>
      <trkpt lat="43.42991" lon="6.08703">
        <ele>278.79998779297</ele>
        <time>2015-10-07T14:05:50Z</time>
      </trkpt>
      <trkpt lat="43.42986" lon="6.08681">
        <ele>278</ele>
        <time>2015-10-07T14:05:53Z</time>
      </trkpt>
      <trkpt lat="43.42984" lon="6.08673">
        <ele>277.79998779297</ele>
        <time>2015-10-07T14:05:54Z</time>
      </trkpt>
      <trkpt lat="43.42979" lon="6.08652">
        <ele>278</ele>
        <time>2015-10-07T14:05:57Z</time>
      </trkpt>
      <trkpt lat="43.42974" lon="6.08633">
        <ele>277.20001220703</ele>
        <time>2015-10-07T14:06:00Z</time>
      </trkpt>
      <trkpt lat="43.42972" lon="6.08626">
        <ele>276.79998779297</ele>
        <time>2015-10-07T14:06:01Z</time>
      </trkpt>
      <trkpt lat="43.42963" lon="6.08591">
        <ele>276.79998779297</ele>
        <time>2015-10-07T14:06:06Z</time>
      </trkpt>
      <trkpt lat="43.42957" lon="6.08563">
        <ele>275.79998779297</ele>
        <time>2015-10-07T14:06:10Z</time>
      </trkpt>
      <trkpt lat="43.42951" lon="6.08544">
        <ele>274.79998779297</ele>
        <time>2015-10-07T14:06:13Z</time>
      </trkpt>
      <trkpt lat="43.42947" lon="6.08532">
        <ele>275.39999389648</ele>
        <time>2015-10-07T14:06:15Z</time>
      </trkpt>
      <trkpt lat="43.42944" lon="6.08518">
        <ele>275.79998779297</ele>
        <time>2015-10-07T14:06:17Z</time>
      </trkpt>
      <trkpt lat="43.42941" lon="6.08513">
        <ele>275.79998779297</ele>
        <time>2015-10-07T14:06:18Z</time>
      </trkpt>
      <trkpt lat="43.42933" lon="6.08503">
        <ele>274.79998779297</ele>
        <time>2015-10-07T14:06:20Z</time>
      </trkpt>
      <trkpt lat="43.42929" lon="6.08499">
        <ele>275.20001220703</ele>
        <time>2015-10-07T14:06:21Z</time>
      </trkpt>
      <trkpt lat="43.42925" lon="6.08496">
        <ele>275.60000610352</ele>
        <time>2015-10-07T14:06:22Z</time>
      </trkpt>
      <trkpt lat="43.42917" lon="6.08489">
        <ele>275.79998779297</ele>
        <time>2015-10-07T14:06:24Z</time>
      </trkpt>
      <trkpt lat="43.42907" lon="6.08475">
        <ele>275.60000610352</ele>
        <time>2015-10-07T14:06:27Z</time>
      </trkpt>
      <trkpt lat="43.42898" lon="6.0846">
        <ele>274.79998779297</ele>
        <time>2015-10-07T14:06:30Z</time>
      </trkpt>
      <trkpt lat="43.42888" lon="6.08444">
        <ele>274.79998779297</ele>
        <time>2015-10-07T14:06:33Z</time>
      </trkpt>
      <trkpt lat="43.42885" lon="6.08439">
        <ele>274.39999389648</ele>
        <time>2015-10-07T14:06:34Z</time>
      </trkpt>
      <trkpt lat="43.42865" lon="6.08411">
        <ele>274.79998779297</ele>
        <time>2015-10-07T14:06:40Z</time>
      </trkpt>
      <trkpt lat="43.42862" lon="6.08405">
        <ele>275</ele>
        <time>2015-10-07T14:06:41Z</time>
      </trkpt>
      <trkpt lat="43.42857" lon="6.08379">
        <ele>274</ele>
        <time>2015-10-07T14:06:45Z</time>
      </trkpt>
      <trkpt lat="43.42855" lon="6.08373">
        <ele>273.39999389648</ele>
        <time>2015-10-07T14:06:46Z</time>
      </trkpt>
      <trkpt lat="43.4285" lon="6.08353">
        <ele>274</ele>
        <time>2015-10-07T14:06:49Z</time>
      </trkpt>
      <trkpt lat="43.42846" lon="6.08334">
        <ele>273.60000610352</ele>
        <time>2015-10-07T14:06:52Z</time>
      </trkpt>
      <trkpt lat="43.42841" lon="6.08312">
        <ele>272.60000610352</ele>
        <time>2015-10-07T14:06:55Z</time>
      </trkpt>
      <trkpt lat="43.42838" lon="6.08288">
        <ele>272.39999389648</ele>
        <time>2015-10-07T14:06:58Z</time>
      </trkpt>
      <trkpt lat="43.42836" lon="6.08281">
        <ele>272.39999389648</ele>
        <time>2015-10-07T14:06:59Z</time>
      </trkpt>
      <trkpt lat="43.42828" lon="6.08263">
        <ele>272.39999389648</ele>
        <time>2015-10-07T14:07:02Z</time>
      </trkpt>
      <trkpt lat="43.42816" lon="6.08255">
        <ele>272.20001220703</ele>
        <time>2015-10-07T14:07:05Z</time>
      </trkpt>
      <trkpt lat="43.42804" lon="6.08257">
        <ele>272.39999389648</ele>
        <time>2015-10-07T14:07:08Z</time>
      </trkpt>
      <trkpt lat="43.42802" lon="6.08257">
        <ele>272.20001220703</ele>
        <time>2015-10-07T14:07:09Z</time>
      </trkpt>
      <trkpt lat="43.42802" lon="6.08257">
        <ele>271.79998779297</ele>
        <time>2015-10-07T14:07:13Z</time>
      </trkpt>
      <trkpt lat="43.42802" lon="6.08258">
        <ele>271.60000610352</ele>
        <time>2015-10-07T14:07:14Z</time>
      </trkpt>
      <trkpt lat="43.42802" lon="6.08258">
        <ele>271.39999389648</ele>
        <time>2015-10-07T14:07:16Z</time>
      </trkpt>
      <trkpt lat="43.42802" lon="6.08258">
        <ele>271.60000610352</ele>
        <time>2015-10-07T14:07:20Z</time>
      </trkpt>
      <trkpt lat="43.42802" lon="6.08258">
        <ele>272.20001220703</ele>
        <time>2015-10-07T14:07:25Z</time>
      </trkpt>
      <trkpt lat="43.42802" lon="6.08258">
        <ele>272</ele>
        <time>2015-10-07T14:07:34Z</time>
      </trkpt>
      <trkpt lat="43.42802" lon="6.08258">
        <ele>271.79998779297</ele>
        <time>2015-10-07T14:07:38Z</time>
      </trkpt>
      <trkpt lat="43.42797" lon="6.08255">
        <ele>272</ele>
        <time>2015-10-07T14:07:42Z</time>
      </trkpt>
      <trkpt lat="43.42794" lon="6.08242">
        <ele>272.60000610352</ele>
        <time>2015-10-07T14:07:45Z</time>
      </trkpt>
      <trkpt lat="43.42793" lon="6.08237">
        <ele>272.60000610352</ele>
        <time>2015-10-07T14:07:46Z</time>
      </trkpt>
      <trkpt lat="43.42789" lon="6.08225">
        <ele>271</ele>
        <time>2015-10-07T14:07:48Z</time>
      </trkpt>
      <trkpt lat="43.42788" lon="6.08211">
        <ele>270.79998779297</ele>
        <time>2015-10-07T14:07:50Z</time>
      </trkpt>
      <trkpt lat="43.42787" lon="6.08202">
        <ele>270.20001220703</ele>
        <time>2015-10-07T14:07:51Z</time>
      </trkpt>
      <trkpt lat="43.42786" lon="6.08195">
        <ele>269.60000610352</ele>
        <time>2015-10-07T14:07:52Z</time>
      </trkpt>
      <trkpt lat="43.42778" lon="6.08173">
        <ele>269.39999389648</ele>
        <time>2015-10-07T14:07:55Z</time>
      </trkpt>
      <trkpt lat="43.42769" lon="6.08162">
        <ele>268.20001220703</ele>
        <time>2015-10-07T14:07:57Z</time>
      </trkpt>
      <trkpt lat="43.42765" lon="6.08156">
        <ele>267.60000610352</ele>
        <time>2015-10-07T14:07:58Z</time>
      </trkpt>
      <trkpt lat="43.42762" lon="6.08149">
        <ele>267.39999389648</ele>
        <time>2015-10-07T14:07:59Z</time>
      </trkpt>
      <trkpt lat="43.42758" lon="6.08143">
        <ele>267.20001220703</ele>
        <time>2015-10-07T14:08:00Z</time>
      </trkpt>
      <trkpt lat="43.42748" lon="6.08141">
        <ele>266.20001220703</ele>
        <time>2015-10-07T14:08:02Z</time>
      </trkpt>
      <trkpt lat="43.42737" lon="6.08132">
        <ele>266.39999389648</ele>
        <time>2015-10-07T14:08:05Z</time>
      </trkpt>
      <trkpt lat="43.42734" lon="6.08127">
        <ele>266.60000610352</ele>
        <time>2015-10-07T14:08:06Z</time>
      </trkpt>
      <trkpt lat="43.42727" lon="6.08118">
        <ele>265.79998779297</ele>
        <time>2015-10-07T14:08:08Z</time>
      </trkpt>
      <trkpt lat="43.42719" lon="6.08111">
        <ele>266.60000610352</ele>
        <time>2015-10-07T14:08:10Z</time>
      </trkpt>
      <trkpt lat="43.42705" lon="6.08101">
        <ele>266.20001220703</ele>
        <time>2015-10-07T14:08:13Z</time>
      </trkpt>
      <trkpt lat="43.42696" lon="6.08096">
        <ele>265.39999389648</ele>
        <time>2015-10-07T14:08:15Z</time>
      </trkpt>
      <trkpt lat="43.42692" lon="6.08092">
        <ele>264.79998779297</ele>
        <time>2015-10-07T14:08:16Z</time>
      </trkpt>
      <trkpt lat="43.42675" lon="6.08075">
        <ele>264.79998779297</ele>
        <time>2015-10-07T14:08:20Z</time>
      </trkpt>
      <trkpt lat="43.42656" lon="6.08072">
        <ele>264.79998779297</ele>
        <time>2015-10-07T14:08:24Z</time>
      </trkpt>
      <trkpt lat="43.4264" lon="6.08086">
        <ele>264.20001220703</ele>
        <time>2015-10-07T14:08:28Z</time>
      </trkpt>
      <trkpt lat="43.42628" lon="6.08078">
        <ele>263.39999389648</ele>
        <time>2015-10-07T14:08:31Z</time>
      </trkpt>
      <trkpt lat="43.42622" lon="6.08059">
        <ele>263.20001220703</ele>
        <time>2015-10-07T14:08:34Z</time>
      </trkpt>
      <trkpt lat="43.42622" lon="6.08051">
        <ele>262.39999389648</ele>
        <time>2015-10-07T14:08:35Z</time>
      </trkpt>
      <trkpt lat="43.42624" lon="6.0803">
        <ele>261.60000610352</ele>
        <time>2015-10-07T14:08:38Z</time>
      </trkpt>
      <trkpt lat="43.42623" lon="6.08017">
        <ele>261.60000610352</ele>
        <time>2015-10-07T14:08:40Z</time>
      </trkpt>
      <trkpt lat="43.42619" lon="6.07997">
        <ele>261</ele>
        <time>2015-10-07T14:08:43Z</time>
      </trkpt>
      <trkpt lat="43.42617" lon="6.07991">
        <ele>261.20001220703</ele>
        <time>2015-10-07T14:08:44Z</time>
      </trkpt>
      <trkpt lat="43.42607" lon="6.07976">
        <ele>260</ele>
        <time>2015-10-07T14:08:47Z</time>
      </trkpt>
      <trkpt lat="43.426" lon="6.0797">
        <ele>260</ele>
        <time>2015-10-07T14:08:49Z</time>
      </trkpt>
      <trkpt lat="43.42597" lon="6.07966">
        <ele>260.20001220703</ele>
        <time>2015-10-07T14:08:50Z</time>
      </trkpt>
      <trkpt lat="43.42588" lon="6.07956">
        <ele>259.39999389648</ele>
        <time>2015-10-07T14:08:53Z</time>
      </trkpt>
      <trkpt lat="43.42582" lon="6.0795">
        <ele>258.20001220703</ele>
        <time>2015-10-07T14:08:55Z</time>
      </trkpt>
      <trkpt lat="43.42579" lon="6.07948">
        <ele>258</ele>
        <time>2015-10-07T14:08:56Z</time>
      </trkpt>
      <trkpt lat="43.4257" lon="6.07939">
        <ele>257.20001220703</ele>
        <time>2015-10-07T14:08:59Z</time>
      </trkpt>
      <trkpt lat="43.42563" lon="6.07926">
        <ele>256.60000610352</ele>
        <time>2015-10-07T14:09:02Z</time>
      </trkpt>
      <trkpt lat="43.42558" lon="6.0791">
        <ele>255.39999389648</ele>
        <time>2015-10-07T14:09:05Z</time>
      </trkpt>
      <trkpt lat="43.42551" lon="6.07902">
        <ele>254.60000610352</ele>
        <time>2015-10-07T14:09:07Z</time>
      </trkpt>
      <trkpt lat="43.42547" lon="6.07899">
        <ele>254.80000305176</ele>
        <time>2015-10-07T14:09:08Z</time>
      </trkpt>
      <trkpt lat="43.42526" lon="6.07898">
        <ele>254</ele>
        <time>2015-10-07T14:09:12Z</time>
      </trkpt>
      <trkpt lat="43.42521" lon="6.07899">
        <ele>253.80000305176</ele>
        <time>2015-10-07T14:09:13Z</time>
      </trkpt>
      <trkpt lat="43.42517" lon="6.07899">
        <ele>253.60000610352</ele>
        <time>2015-10-07T14:09:14Z</time>
      </trkpt>
      <trkpt lat="43.42505" lon="6.079">
        <ele>252.39999389648</ele>
        <time>2015-10-07T14:09:17Z</time>
      </trkpt>
      <trkpt lat="43.42489" lon="6.07905">
        <ele>251</ele>
        <time>2015-10-07T14:09:21Z</time>
      </trkpt>
      <trkpt lat="43.42477" lon="6.0791">
        <ele>251.19999694824</ele>
        <time>2015-10-07T14:09:24Z</time>
      </trkpt>
      <trkpt lat="43.42474" lon="6.07913">
        <ele>251</ele>
        <time>2015-10-07T14:09:25Z</time>
      </trkpt>
      <trkpt lat="43.42464" lon="6.07922">
        <ele>250.19999694824</ele>
        <time>2015-10-07T14:09:28Z</time>
      </trkpt>
      <trkpt lat="43.4246" lon="6.07923">
        <ele>249.80000305176</ele>
        <time>2015-10-07T14:09:29Z</time>
      </trkpt>
      <trkpt lat="43.4245" lon="6.07921">
        <ele>249.60000610352</ele>
        <time>2015-10-07T14:09:32Z</time>
      </trkpt>
      <trkpt lat="43.42422" lon="6.07916">
        <ele>250</ele>
        <time>2015-10-07T14:09:40Z</time>
      </trkpt>
      <trkpt lat="43.42406" lon="6.07918">
        <ele>250</ele>
        <time>2015-10-07T14:09:44Z</time>
      </trkpt>
      <trkpt lat="43.4239" lon="6.07928">
        <ele>250.19999694824</ele>
        <time>2015-10-07T14:09:49Z</time>
      </trkpt>
      <trkpt lat="43.42375" lon="6.07948">
        <ele>249.19999694824</ele>
        <time>2015-10-07T14:09:54Z</time>
      </trkpt>
      <trkpt lat="43.42364" lon="6.07961">
        <ele>249.60000610352</ele>
        <time>2015-10-07T14:09:58Z</time>
      </trkpt>
      <trkpt lat="43.42346" lon="6.07985">
        <ele>248.39999389648</ele>
        <time>2015-10-07T14:10:05Z</time>
      </trkpt>
      <trkpt lat="43.42342" lon="6.07994">
        <ele>247.19999694824</ele>
        <time>2015-10-07T14:10:08Z</time>
      </trkpt>
      <trkpt lat="43.42342" lon="6.07996">
        <ele>247</ele>
        <time>2015-10-07T14:10:09Z</time>
      </trkpt>
      <trkpt lat="43.42342" lon="6.07999">
        <ele>246.39999389648</ele>
        <time>2015-10-07T14:10:14Z</time>
      </trkpt>
      <trkpt lat="43.42341" lon="6.07999">
        <ele>246</ele>
        <time>2015-10-07T14:10:22Z</time>
      </trkpt>
      <trkpt lat="43.42341" lon="6.07999">
        <ele>246.39999389648</ele>
        <time>2015-10-07T14:10:29Z</time>
      </trkpt>
      <trkpt lat="43.42341" lon="6.07999">
        <ele>246</ele>
        <time>2015-10-07T14:10:35Z</time>
      </trkpt>
      <trkpt lat="43.42341" lon="6.07999">
        <ele>245.80000305176</ele>
        <time>2015-10-07T14:10:59Z</time>
      </trkpt>
      <trkpt lat="43.42341" lon="6.08">
        <ele>246</ele>
        <time>2015-10-07T14:11:15Z</time>
      </trkpt>
      <trkpt lat="43.42341" lon="6.08">
        <ele>246.19999694824</ele>
        <time>2015-10-07T14:11:19Z</time>
      </trkpt>
      <trkpt lat="43.42341" lon="6.08">
        <ele>245.60000610352</ele>
        <time>2015-10-07T14:11:35Z</time>
      </trkpt>
      <trkpt lat="43.4234" lon="6.08">
        <ele>245.80000305176</ele>
        <time>2015-10-07T14:11:50Z</time>
      </trkpt>
      <trkpt lat="43.4234" lon="6.08">
        <ele>246</ele>
        <time>2015-10-07T14:12:07Z</time>
      </trkpt>
      <trkpt lat="43.4234" lon="6.08001">
        <ele>245.39999389648</ele>
        <time>2015-10-07T14:12:29Z</time>
      </trkpt>
      <trkpt lat="43.4234" lon="6.08002">
        <ele>245</ele>
        <time>2015-10-07T14:12:39Z</time>
      </trkpt>
      <trkpt lat="43.4234" lon="6.08002">
        <ele>244.80000305176</ele>
        <time>2015-10-07T14:12:46Z</time>
      </trkpt>
      <trkpt lat="43.4234" lon="6.08002">
        <ele>245.39999389648</ele>
        <time>2015-10-07T14:12:51Z</time>
      </trkpt>
      <trkpt lat="43.4234" lon="6.08002">
        <ele>245.80000305176</ele>
        <time>2015-10-07T14:12:55Z</time>
      </trkpt>
      <trkpt lat="43.4234" lon="6.08002">
        <ele>245.39999389648</ele>
        <time>2015-10-07T14:13:05Z</time>
      </trkpt>
      <trkpt lat="43.42339" lon="6.08003">
        <ele>245.39999389648</ele>
        <time>2015-10-07T14:13:13Z</time>
      </trkpt>
      <trkpt lat="43.42336" lon="6.08005">
        <ele>245.39999389648</ele>
        <time>2015-10-07T14:13:15Z</time>
      </trkpt>
      <trkpt lat="43.42327" lon="6.08004">
        <ele>244.80000305176</ele>
        <time>2015-10-07T14:13:20Z</time>
      </trkpt>
      <trkpt lat="43.42324" lon="6.08001">
        <ele>244.60000610352</ele>
        <time>2015-10-07T14:13:21Z</time>
      </trkpt>
      <trkpt lat="43.42314" lon="6.07989">
        <ele>244</ele>
        <time>2015-10-07T14:13:25Z</time>
      </trkpt>
      <trkpt lat="43.42308" lon="6.07982">
        <ele>243.60000610352</ele>
        <time>2015-10-07T14:13:27Z</time>
      </trkpt>
      <trkpt lat="43.42299" lon="6.07971">
        <ele>243.39999389648</ele>
        <time>2015-10-07T14:13:31Z</time>
      </trkpt>
      <trkpt lat="43.42291" lon="6.07966">
        <ele>244.19999694824</ele>
        <time>2015-10-07T14:13:35Z</time>
      </trkpt>
      <trkpt lat="43.42289" lon="6.07965">
        <ele>244</ele>
        <time>2015-10-07T14:13:36Z</time>
      </trkpt>
      <trkpt lat="43.42274" lon="6.07968">
        <ele>242.60000610352</ele>
        <time>2015-10-07T14:13:40Z</time>
      </trkpt>
      <trkpt lat="43.42269" lon="6.0797">
        <ele>242.19999694824</ele>
        <time>2015-10-07T14:13:41Z</time>
      </trkpt>
      <trkpt lat="43.4226" lon="6.07973">
        <ele>242</ele>
        <time>2015-10-07T14:13:43Z</time>
      </trkpt>
      <trkpt lat="43.42257" lon="6.07971">
        <ele>242.19999694824</ele>
        <time>2015-10-07T14:13:44Z</time>
      </trkpt>
      <trkpt lat="43.42251" lon="6.07962">
        <ele>242.60000610352</ele>
        <time>2015-10-07T14:13:47Z</time>
      </trkpt>
      <trkpt lat="43.42249" lon="6.07952">
        <ele>243.39999389648</ele>
        <time>2015-10-07T14:13:50Z</time>
      </trkpt>
      <trkpt lat="43.42247" lon="6.07946">
        <ele>244.60000610352</ele>
        <time>2015-10-07T14:13:52Z</time>
      </trkpt>
      <trkpt lat="43.42246" lon="6.0794">
        <ele>244.39999389648</ele>
        <time>2015-10-07T14:13:54Z</time>
      </trkpt>
      <trkpt lat="43.42244" lon="6.07931">
        <ele>244.19999694824</ele>
        <time>2015-10-07T14:13:59Z</time>
      </trkpt>
      <trkpt lat="43.42244" lon="6.0793">
        <ele>244</ele>
        <time>2015-10-07T14:14:06Z</time>
      </trkpt>
      <trkpt lat="43.42244" lon="6.07929">
        <ele>244.60000610352</ele>
        <time>2015-10-07T14:14:28Z</time>
      </trkpt>
      <trkpt lat="43.42242" lon="6.07916">
        <ele>244.19999694824</ele>
        <time>2015-10-07T14:14:33Z</time>
      </trkpt>
      <trkpt lat="43.42239" lon="6.07903">
        <ele>244</ele>
        <time>2015-10-07T14:14:37Z</time>
      </trkpt>
      <trkpt lat="43.42237" lon="6.079">
        <ele>243.39999389648</ele>
        <time>2015-10-07T14:14:38Z</time>
      </trkpt>
      <trkpt lat="43.42234" lon="6.07897">
        <ele>243.19999694824</ele>
        <time>2015-10-07T14:14:39Z</time>
      </trkpt>
      <trkpt lat="43.42223" lon="6.07892">
        <ele>242.60000610352</ele>
        <time>2015-10-07T14:14:42Z</time>
      </trkpt>
      <trkpt lat="43.42216" lon="6.07889">
        <ele>242.39999389648</ele>
        <time>2015-10-07T14:14:44Z</time>
      </trkpt>
      <trkpt lat="43.42198" lon="6.07883">
        <ele>241.39999389648</ele>
        <time>2015-10-07T14:14:48Z</time>
      </trkpt>
      <trkpt lat="43.42194" lon="6.07882">
        <ele>241.39999389648</ele>
        <time>2015-10-07T14:14:49Z</time>
      </trkpt>
      <trkpt lat="43.42185" lon="6.07882">
        <ele>241.39999389648</ele>
        <time>2015-10-07T14:14:51Z</time>
      </trkpt>
      <trkpt lat="43.42171" lon="6.07882">
        <ele>241.19999694824</ele>
        <time>2015-10-07T14:14:55Z</time>
      </trkpt>
      <trkpt lat="43.42165" lon="6.07882">
        <ele>241.60000610352</ele>
        <time>2015-10-07T14:14:57Z</time>
      </trkpt>
      <trkpt lat="43.42156" lon="6.07883">
        <ele>242</ele>
        <time>2015-10-07T14:15:00Z</time>
      </trkpt>
      <trkpt lat="43.42152" lon="6.07883">
        <ele>242.39999389648</ele>
        <time>2015-10-07T14:15:01Z</time>
      </trkpt>
      <trkpt lat="43.42145" lon="6.07884">
        <ele>243.19999694824</ele>
        <time>2015-10-07T14:15:03Z</time>
      </trkpt>
      <trkpt lat="43.42141" lon="6.07885">
        <ele>243.80000305176</ele>
        <time>2015-10-07T14:15:04Z</time>
      </trkpt>
      <trkpt lat="43.42138" lon="6.07885">
        <ele>244</ele>
        <time>2015-10-07T14:15:05Z</time>
      </trkpt>
      <trkpt lat="43.42124" lon="6.07888">
        <ele>245.39999389648</ele>
        <time>2015-10-07T14:15:09Z</time>
      </trkpt>
      <trkpt lat="43.42118" lon="6.0789">
        <ele>246.39999389648</ele>
        <time>2015-10-07T14:15:11Z</time>
      </trkpt>
      <trkpt lat="43.42114" lon="6.07889">
        <ele>246.80000305176</ele>
        <time>2015-10-07T14:15:12Z</time>
      </trkpt>
      <trkpt lat="43.42106" lon="6.07882">
        <ele>247.60000610352</ele>
        <time>2015-10-07T14:15:15Z</time>
      </trkpt>
      <trkpt lat="43.42104" lon="6.07876">
        <ele>248.19999694824</ele>
        <time>2015-10-07T14:15:17Z</time>
      </trkpt>
      <trkpt lat="43.42101" lon="6.07868">
        <ele>249.19999694824</ele>
        <time>2015-10-07T14:15:20Z</time>
      </trkpt>
      <trkpt lat="43.421" lon="6.07865">
        <ele>249.19999694824</ele>
        <time>2015-10-07T14:15:21Z</time>
      </trkpt>
      <trkpt lat="43.42098" lon="6.07849">
        <ele>248.60000610352</ele>
        <time>2015-10-07T14:15:27Z</time>
      </trkpt>
      <trkpt lat="43.42101" lon="6.0783">
        <ele>248.19999694824</ele>
        <time>2015-10-07T14:15:31Z</time>
      </trkpt>
      <trkpt lat="43.42102" lon="6.07824">
        <ele>248</ele>
        <time>2015-10-07T14:15:32Z</time>
      </trkpt>
      <trkpt lat="43.42109" lon="6.07803">
        <ele>247</ele>
        <time>2015-10-07T14:15:35Z</time>
      </trkpt>
      <trkpt lat="43.42114" lon="6.07787">
        <ele>246.39999389648</ele>
        <time>2015-10-07T14:15:37Z</time>
      </trkpt>
      <trkpt lat="43.42121" lon="6.07762">
        <ele>245.60000610352</ele>
        <time>2015-10-07T14:15:40Z</time>
      </trkpt>
      <trkpt lat="43.42126" lon="6.07744">
        <ele>244.60000610352</ele>
        <time>2015-10-07T14:15:42Z</time>
      </trkpt>
      <trkpt lat="43.42131" lon="6.07727">
        <ele>243.60000610352</ele>
        <time>2015-10-07T14:15:44Z</time>
      </trkpt>
      <trkpt lat="43.42134" lon="6.07717">
        <ele>243</ele>
        <time>2015-10-07T14:15:45Z</time>
      </trkpt>
      <trkpt lat="43.42147" lon="6.0767">
        <ele>241.60000610352</ele>
        <time>2015-10-07T14:15:50Z</time>
      </trkpt>
      <trkpt lat="43.42162" lon="6.07618">
        <ele>239.80000305176</ele>
        <time>2015-10-07T14:15:56Z</time>
      </trkpt>
      <trkpt lat="43.42166" lon="6.07601">
        <ele>239</ele>
        <time>2015-10-07T14:15:58Z</time>
      </trkpt>
      <trkpt lat="43.4217" lon="6.07576">
        <ele>237.80000305176</ele>
        <time>2015-10-07T14:16:01Z</time>
      </trkpt>
      <trkpt lat="43.42174" lon="6.07553">
        <ele>236.60000610352</ele>
        <time>2015-10-07T14:16:04Z</time>
      </trkpt>
      <trkpt lat="43.42176" lon="6.07545">
        <ele>236.19999694824</ele>
        <time>2015-10-07T14:16:05Z</time>
      </trkpt>
      <trkpt lat="43.42184" lon="6.07501">
        <ele>235.60000610352</ele>
        <time>2015-10-07T14:16:11Z</time>
      </trkpt>
      <trkpt lat="43.42196" lon="6.0745">
        <ele>236.19999694824</ele>
        <time>2015-10-07T14:16:18Z</time>
      </trkpt>
      <trkpt lat="43.42204" lon="6.07397">
        <ele>235.80000305176</ele>
        <time>2015-10-07T14:16:25Z</time>
      </trkpt>
      <trkpt lat="43.4221" lon="6.07344">
        <ele>235.60000610352</ele>
        <time>2015-10-07T14:16:32Z</time>
      </trkpt>
      <trkpt lat="43.42211" lon="6.07336">
        <ele>235.60000610352</ele>
        <time>2015-10-07T14:16:33Z</time>
      </trkpt>
      <trkpt lat="43.4222" lon="6.07274">
        <ele>235.39999389648</ele>
        <time>2015-10-07T14:16:41Z</time>
      </trkpt>
      <trkpt lat="43.42226" lon="6.07224">
        <ele>235</ele>
        <time>2015-10-07T14:16:48Z</time>
      </trkpt>
      <trkpt lat="43.42228" lon="6.07203">
        <ele>235.19999694824</ele>
        <time>2015-10-07T14:16:51Z</time>
      </trkpt>
      <trkpt lat="43.42231" lon="6.07182">
        <ele>236</ele>
        <time>2015-10-07T14:16:54Z</time>
      </trkpt>
      <trkpt lat="43.42232" lon="6.07175">
        <ele>235.80000305176</ele>
        <time>2015-10-07T14:16:55Z</time>
      </trkpt>
      <trkpt lat="43.42234" lon="6.07155">
        <ele>234.80000305176</ele>
        <time>2015-10-07T14:16:58Z</time>
      </trkpt>
      <trkpt lat="43.42237" lon="6.07137">
        <ele>235.19999694824</ele>
        <time>2015-10-07T14:17:01Z</time>
      </trkpt>
      <trkpt lat="43.42242" lon="6.07104">
        <ele>235.39999389648</ele>
        <time>2015-10-07T14:17:07Z</time>
      </trkpt>
      <trkpt lat="43.42242" lon="6.07078">
        <ele>236</ele>
        <time>2015-10-07T14:17:13Z</time>
      </trkpt>
      <trkpt lat="43.42239" lon="6.07075">
        <ele>236</ele>
        <time>2015-10-07T14:17:15Z</time>
      </trkpt>
      <trkpt lat="43.42239" lon="6.07073">
        <ele>236</ele>
        <time>2015-10-07T14:17:17Z</time>
      </trkpt>
      <trkpt lat="43.42238" lon="6.07073">
        <ele>236.19999694824</ele>
        <time>2015-10-07T14:17:21Z</time>
      </trkpt>
      <trkpt lat="43.42238" lon="6.07073">
        <ele>236.80000305176</ele>
        <time>2015-10-07T14:17:27Z</time>
      </trkpt>
      <trkpt lat="43.42238" lon="6.07073">
        <ele>237</ele>
        <time>2015-10-07T14:17:32Z</time>
      </trkpt>
      <trkpt lat="43.42238" lon="6.07073">
        <ele>237.19999694824</ele>
        <time>2015-10-07T14:17:54Z</time>
      </trkpt>
      <trkpt lat="43.42238" lon="6.07073">
        <ele>237</ele>
        <time>2015-10-07T14:17:59Z</time>
      </trkpt>
      <trkpt lat="43.42238" lon="6.07073">
        <ele>236</ele>
        <time>2015-10-07T14:18:23Z</time>
      </trkpt>
      <trkpt lat="43.42238" lon="6.07073">
        <ele>235.60000610352</ele>
        <time>2015-10-07T14:18:24Z</time>
      </trkpt>
      <trkpt lat="43.42237" lon="6.07072">
        <ele>235.39999389648</ele>
        <time>2015-10-07T14:18:26Z</time>
      </trkpt>
      <trkpt lat="43.42234" lon="6.07071">
        <ele>235.39999389648</ele>
        <time>2015-10-07T14:18:28Z</time>
      </trkpt>
      <trkpt lat="43.42227" lon="6.07069">
        <ele>236.19999694824</ele>
        <time>2015-10-07T14:18:30Z</time>
      </trkpt>
      <trkpt lat="43.42223" lon="6.07068">
        <ele>236.60000610352</ele>
        <time>2015-10-07T14:18:31Z</time>
      </trkpt>
      <trkpt lat="43.42218" lon="6.07067">
        <ele>236.39999389648</ele>
        <time>2015-10-07T14:18:32Z</time>
      </trkpt>
      <trkpt lat="43.42209" lon="6.07067">
        <ele>236.19999694824</ele>
        <time>2015-10-07T14:18:34Z</time>
      </trkpt>
      <trkpt lat="43.42193" lon="6.07062">
        <ele>235.80000305176</ele>
        <time>2015-10-07T14:18:37Z</time>
      </trkpt>
      <trkpt lat="43.42188" lon="6.07063">
        <ele>235.80000305176</ele>
        <time>2015-10-07T14:18:38Z</time>
      </trkpt>
      <trkpt lat="43.42175" lon="6.07063">
        <ele>235.60000610352</ele>
        <time>2015-10-07T14:18:40Z</time>
      </trkpt>
      <trkpt lat="43.42163" lon="6.0707">
        <ele>235.19999694824</ele>
        <time>2015-10-07T14:18:43Z</time>
      </trkpt>
      <trkpt lat="43.42162" lon="6.07073">
        <ele>235</ele>
        <time>2015-10-07T14:18:44Z</time>
      </trkpt>
      <trkpt lat="43.42163" lon="6.07086">
        <ele>234.39999389648</ele>
        <time>2015-10-07T14:18:47Z</time>
      </trkpt>
      <trkpt lat="43.42165" lon="6.07092">
        <ele>234</ele>
        <time>2015-10-07T14:18:48Z</time>
      </trkpt>
      <trkpt lat="43.4217" lon="6.07115">
        <ele>233.60000610352</ele>
        <time>2015-10-07T14:18:52Z</time>
      </trkpt>
      <trkpt lat="43.42176" lon="6.07147">
        <ele>233.39999389648</ele>
        <time>2015-10-07T14:18:58Z</time>
      </trkpt>
      <trkpt lat="43.42179" lon="6.07167">
        <ele>234</ele>
        <time>2015-10-07T14:19:02Z</time>
      </trkpt>
      <trkpt lat="43.42179" lon="6.07171">
        <ele>234.19999694824</ele>
        <time>2015-10-07T14:19:03Z</time>
      </trkpt>
      <trkpt lat="43.42177" lon="6.07186">
        <ele>234.80000305176</ele>
        <time>2015-10-07T14:19:06Z</time>
      </trkpt>
      <trkpt lat="43.42176" lon="6.07196">
        <ele>234.80000305176</ele>
        <time>2015-10-07T14:19:08Z</time>
      </trkpt>
      <trkpt lat="43.42174" lon="6.07207">
        <ele>235</ele>
        <time>2015-10-07T14:19:10Z</time>
      </trkpt>
      <trkpt lat="43.42172" lon="6.07219">
        <ele>236</ele>
        <time>2015-10-07T14:19:12Z</time>
      </trkpt>
      <trkpt lat="43.42171" lon="6.07225">
        <ele>236.19999694824</ele>
        <time>2015-10-07T14:19:13Z</time>
      </trkpt>
      <trkpt lat="43.42168" lon="6.07247">
        <ele>235.80000305176</ele>
        <time>2015-10-07T14:19:16Z</time>
      </trkpt>
      <trkpt lat="43.42162" lon="6.07274">
        <ele>235.19999694824</ele>
        <time>2015-10-07T14:19:19Z</time>
      </trkpt>
      <trkpt lat="43.42159" lon="6.07294">
        <ele>234.39999389648</ele>
        <time>2015-10-07T14:19:21Z</time>
      </trkpt>
      <trkpt lat="43.42152" lon="6.07334">
        <ele>234</ele>
        <time>2015-10-07T14:19:25Z</time>
      </trkpt>
      <trkpt lat="43.42148" lon="6.07372">
        <ele>234.19999694824</ele>
        <time>2015-10-07T14:19:29Z</time>
      </trkpt>
      <trkpt lat="43.42143" lon="6.07415">
        <ele>234.39999389648</ele>
        <time>2015-10-07T14:19:34Z</time>
      </trkpt>
      <trkpt lat="43.4213" lon="6.07472">
        <ele>235</ele>
        <time>2015-10-07T14:19:41Z</time>
      </trkpt>
      <trkpt lat="43.42128" lon="6.07479">
        <ele>235.39999389648</ele>
        <time>2015-10-07T14:19:42Z</time>
      </trkpt>
      <trkpt lat="43.42124" lon="6.0749">
        <ele>236.39999389648</ele>
        <time>2015-10-07T14:19:44Z</time>
      </trkpt>
      <trkpt lat="43.4212" lon="6.07494">
        <ele>236.80000305176</ele>
        <time>2015-10-07T14:19:45Z</time>
      </trkpt>
      <trkpt lat="43.42109" lon="6.07499">
        <ele>238</ele>
        <time>2015-10-07T14:19:48Z</time>
      </trkpt>
      <trkpt lat="43.42105" lon="6.075">
        <ele>238.39999389648</ele>
        <time>2015-10-07T14:19:49Z</time>
      </trkpt>
      <trkpt lat="43.42102" lon="6.075">
        <ele>238.80000305176</ele>
        <time>2015-10-07T14:19:50Z</time>
      </trkpt>
      <trkpt lat="43.42087" lon="6.07501">
        <ele>239.80000305176</ele>
        <time>2015-10-07T14:19:55Z</time>
      </trkpt>
      <trkpt lat="43.42085" lon="6.07501">
        <ele>240</ele>
        <time>2015-10-07T14:19:56Z</time>
      </trkpt>
      <trkpt lat="43.42062" lon="6.07501">
        <ele>240.19999694824</ele>
        <time>2015-10-07T14:20:03Z</time>
      </trkpt>
      <trkpt lat="43.42059" lon="6.07501">
        <ele>240</ele>
        <time>2015-10-07T14:20:04Z</time>
      </trkpt>
      <trkpt lat="43.42044" lon="6.07501">
        <ele>239.60000610352</ele>
        <time>2015-10-07T14:20:08Z</time>
      </trkpt>
      <trkpt lat="43.42028" lon="6.07503">
        <ele>239.19999694824</ele>
        <time>2015-10-07T14:20:12Z</time>
      </trkpt>
      <trkpt lat="43.42017" lon="6.07491">
        <ele>239.19999694824</ele>
        <time>2015-10-07T14:20:16Z</time>
      </trkpt>
      <trkpt lat="43.42011" lon="6.07472">
        <ele>239.60000610352</ele>
        <time>2015-10-07T14:20:20Z</time>
      </trkpt>
      <trkpt lat="43.42008" lon="6.07462">
        <ele>240.19999694824</ele>
        <time>2015-10-07T14:20:22Z</time>
      </trkpt>
      <trkpt lat="43.42004" lon="6.07442">
        <ele>239.19999694824</ele>
        <time>2015-10-07T14:20:26Z</time>
      </trkpt>
      <trkpt lat="43.42002" lon="6.07432">
        <ele>238.80000305176</ele>
        <time>2015-10-07T14:20:28Z</time>
      </trkpt>
      <trkpt lat="43.42001" lon="6.07425">
        <ele>238.80000305176</ele>
        <time>2015-10-07T14:20:30Z</time>
      </trkpt>
      <trkpt lat="43.42" lon="6.07423">
        <ele>238.80000305176</ele>
        <time>2015-10-07T14:20:31Z</time>
      </trkpt>
      <trkpt lat="43.41998" lon="6.07424">
        <ele>239</ele>
        <time>2015-10-07T14:20:33Z</time>
      </trkpt>
      <trkpt lat="43.41997" lon="6.07429">
        <ele>238.60000610352</ele>
        <time>2015-10-07T14:20:36Z</time>
      </trkpt>
      <trkpt lat="43.41998" lon="6.0743">
        <ele>238.60000610352</ele>
        <time>2015-10-07T14:20:37Z</time>
      </trkpt>
      <trkpt lat="43.42001" lon="6.07427">
        <ele>238.60000610352</ele>
        <time>2015-10-07T14:20:40Z</time>
      </trkpt>
      <trkpt lat="43.42001" lon="6.07426">
        <ele>238.39999389648</ele>
        <time>2015-10-07T14:20:41Z</time>
      </trkpt>
      <trkpt lat="43.41995" lon="6.07425">
        <ele>238.39999389648</ele>
        <time>2015-10-07T14:20:45Z</time>
      </trkpt>
      <trkpt lat="43.41984" lon="6.07426">
        <ele>238.39999389648</ele>
        <time>2015-10-07T14:20:49Z</time>
      </trkpt>
      <trkpt lat="43.4197" lon="6.07429">
        <ele>237.80000305176</ele>
        <time>2015-10-07T14:20:52Z</time>
      </trkpt>
      <trkpt lat="43.41959" lon="6.07433">
        <ele>237.19999694824</ele>
        <time>2015-10-07T14:20:54Z</time>
      </trkpt>
      <trkpt lat="43.41946" lon="6.07436">
        <ele>236.60000610352</ele>
        <time>2015-10-07T14:20:56Z</time>
      </trkpt>
      <trkpt lat="43.41928" lon="6.07439">
        <ele>235.19999694824</ele>
        <time>2015-10-07T14:20:59Z</time>
      </trkpt>
      <trkpt lat="43.41916" lon="6.07439">
        <ele>234.19999694824</ele>
        <time>2015-10-07T14:21:01Z</time>
      </trkpt>
      <trkpt lat="43.41902" lon="6.07438">
        <ele>232.80000305176</ele>
        <time>2015-10-07T14:21:03Z</time>
      </trkpt>
      <trkpt lat="43.41895" lon="6.07438">
        <ele>231.80000305176</ele>
        <time>2015-10-07T14:21:04Z</time>
      </trkpt>
      <trkpt lat="43.41886" lon="6.07439">
        <ele>231.19999694824</ele>
        <time>2015-10-07T14:21:05Z</time>
      </trkpt>
      <trkpt lat="43.41869" lon="6.07441">
        <ele>230</ele>
        <time>2015-10-07T14:21:07Z</time>
      </trkpt>
      <trkpt lat="43.41853" lon="6.07444">
        <ele>229.39999389648</ele>
        <time>2015-10-07T14:21:09Z</time>
      </trkpt>
      <trkpt lat="43.41846" lon="6.07445">
        <ele>229</ele>
        <time>2015-10-07T14:21:10Z</time>
      </trkpt>
      <trkpt lat="43.4183" lon="6.07445">
        <ele>228.19999694824</ele>
        <time>2015-10-07T14:21:13Z</time>
      </trkpt>
      <trkpt lat="43.41821" lon="6.07442">
        <ele>228.39999389648</ele>
        <time>2015-10-07T14:21:17Z</time>
      </trkpt>
      <trkpt lat="43.41815" lon="6.07438">
        <ele>228.19999694824</ele>
        <time>2015-10-07T14:21:20Z</time>
      </trkpt>
      <trkpt lat="43.41814" lon="6.07435">
        <ele>227.80000305176</ele>
        <time>2015-10-07T14:21:21Z</time>
      </trkpt>
      <trkpt lat="43.41813" lon="6.07432">
        <ele>227.60000610352</ele>
        <time>2015-10-07T14:21:22Z</time>
      </trkpt>
      <trkpt lat="43.41811" lon="6.07423">
        <ele>227</ele>
        <time>2015-10-07T14:21:25Z</time>
      </trkpt>
      <trkpt lat="43.41806" lon="6.07416">
        <ele>226.19999694824</ele>
        <time>2015-10-07T14:21:27Z</time>
      </trkpt>
      <trkpt lat="43.41803" lon="6.07413">
        <ele>226</ele>
        <time>2015-10-07T14:21:28Z</time>
      </trkpt>
      <trkpt lat="43.41799" lon="6.07411">
        <ele>225.80000305176</ele>
        <time>2015-10-07T14:21:29Z</time>
      </trkpt>
      <trkpt lat="43.4179" lon="6.07409">
        <ele>225.19999694824</ele>
        <time>2015-10-07T14:21:31Z</time>
      </trkpt>
      <trkpt lat="43.41778" lon="6.0741">
        <ele>224.60000610352</ele>
        <time>2015-10-07T14:21:33Z</time>
      </trkpt>
      <trkpt lat="43.41772" lon="6.07411">
        <ele>223.80000305176</ele>
        <time>2015-10-07T14:21:34Z</time>
      </trkpt>
      <trkpt lat="43.41764" lon="6.07412">
        <ele>223</ele>
        <time>2015-10-07T14:21:35Z</time>
      </trkpt>
      <trkpt lat="43.41753" lon="6.07413">
        <ele>221.80000305176</ele>
        <time>2015-10-07T14:21:37Z</time>
      </trkpt>
      <trkpt lat="43.41746" lon="6.07415">
        <ele>220.80000305176</ele>
        <time>2015-10-07T14:21:39Z</time>
      </trkpt>
      <trkpt lat="43.41735" lon="6.07417">
        <ele>219.60000610352</ele>
        <time>2015-10-07T14:21:44Z</time>
      </trkpt>
      <trkpt lat="43.41735" lon="6.07417">
        <ele>219.39999389648</ele>
        <time>2015-10-07T14:21:45Z</time>
      </trkpt>
      <trkpt lat="43.41733" lon="6.07418">
        <ele>219.19999694824</ele>
        <time>2015-10-07T14:21:48Z</time>
      </trkpt>
      <trkpt lat="43.41728" lon="6.0742">
        <ele>219</ele>
        <time>2015-10-07T14:21:50Z</time>
      </trkpt>
      <trkpt lat="43.41713" lon="6.07422">
        <ele>218.39999389648</ele>
        <time>2015-10-07T14:21:53Z</time>
      </trkpt>
      <trkpt lat="43.41707" lon="6.07424">
        <ele>217.80000305176</ele>
        <time>2015-10-07T14:21:54Z</time>
      </trkpt>
      <trkpt lat="43.41701" lon="6.07426">
        <ele>216.60000610352</ele>
        <time>2015-10-07T14:21:55Z</time>
      </trkpt>
      <trkpt lat="43.41683" lon="6.07429">
        <ele>215.60000610352</ele>
        <time>2015-10-07T14:21:58Z</time>
      </trkpt>
      <trkpt lat="43.41676" lon="6.0743">
        <ele>215.39999389648</ele>
        <time>2015-10-07T14:21:59Z</time>
      </trkpt>
      <trkpt lat="43.41662" lon="6.07432">
        <ele>214</ele>
        <time>2015-10-07T14:22:01Z</time>
      </trkpt>
      <trkpt lat="43.4164" lon="6.07434">
        <ele>212.80000305176</ele>
        <time>2015-10-07T14:22:04Z</time>
      </trkpt>
      <trkpt lat="43.41613" lon="6.07437">
        <ele>211.80000305176</ele>
        <time>2015-10-07T14:22:08Z</time>
      </trkpt>
      <trkpt lat="43.416" lon="6.07439">
        <ele>210.80000305176</ele>
        <time>2015-10-07T14:22:10Z</time>
      </trkpt>
      <trkpt lat="43.41565" lon="6.07445">
        <ele>211</ele>
        <time>2015-10-07T14:22:16Z</time>
      </trkpt>
      <trkpt lat="43.4155" lon="6.07447">
        <ele>209.39999389648</ele>
        <time>2015-10-07T14:22:19Z</time>
      </trkpt>
      <trkpt lat="43.41547" lon="6.07448">
        <ele>209</ele>
        <time>2015-10-07T14:22:20Z</time>
      </trkpt>
      <trkpt lat="43.41544" lon="6.07446">
        <ele>208.60000610352</ele>
        <time>2015-10-07T14:22:21Z</time>
      </trkpt>
      <trkpt lat="43.41542" lon="6.07444">
        <ele>208.39999389648</ele>
        <time>2015-10-07T14:22:22Z</time>
      </trkpt>
      <trkpt lat="43.41539" lon="6.07439">
        <ele>208.19999694824</ele>
        <time>2015-10-07T14:22:23Z</time>
      </trkpt>
      <trkpt lat="43.41535" lon="6.07429">
        <ele>207.80000305176</ele>
        <time>2015-10-07T14:22:25Z</time>
      </trkpt>
      <trkpt lat="43.41531" lon="6.07417">
        <ele>207.39999389648</ele>
        <time>2015-10-07T14:22:27Z</time>
      </trkpt>
      <trkpt lat="43.41528" lon="6.07412">
        <ele>207.39999389648</ele>
        <time>2015-10-07T14:22:28Z</time>
      </trkpt>
      <trkpt lat="43.41522" lon="6.07399">
        <ele>207.39999389648</ele>
        <time>2015-10-07T14:22:30Z</time>
      </trkpt>
      <trkpt lat="43.41508" lon="6.07378">
        <ele>207</ele>
        <time>2015-10-07T14:22:34Z</time>
      </trkpt>
      <trkpt lat="43.41489" lon="6.07354">
        <ele>207.60000610352</ele>
        <time>2015-10-07T14:22:39Z</time>
      </trkpt>
      <trkpt lat="43.41481" lon="6.07346">
        <ele>207.80000305176</ele>
        <time>2015-10-07T14:22:41Z</time>
      </trkpt>
      <trkpt lat="43.41476" lon="6.07343">
        <ele>207.80000305176</ele>
        <time>2015-10-07T14:22:42Z</time>
      </trkpt>
      <trkpt lat="43.41458" lon="6.07335">
        <ele>207.39999389648</ele>
        <time>2015-10-07T14:22:46Z</time>
      </trkpt>
      <trkpt lat="43.41453" lon="6.07335">
        <ele>207</ele>
        <time>2015-10-07T14:22:47Z</time>
      </trkpt>
      <trkpt lat="43.41439" lon="6.07334">
        <ele>207.39999389648</ele>
        <time>2015-10-07T14:22:50Z</time>
      </trkpt>
      <trkpt lat="43.41431" lon="6.07335">
        <ele>207.39999389648</ele>
        <time>2015-10-07T14:22:52Z</time>
      </trkpt>
      <trkpt lat="43.41416" lon="6.07333">
        <ele>206.39999389648</ele>
        <time>2015-10-07T14:22:55Z</time>
      </trkpt>
      <trkpt lat="43.41412" lon="6.07332">
        <ele>206.19999694824</ele>
        <time>2015-10-07T14:22:56Z</time>
      </trkpt>
      <trkpt lat="43.41402" lon="6.07332">
        <ele>206.19999694824</ele>
        <time>2015-10-07T14:22:58Z</time>
      </trkpt>
      <trkpt lat="43.41397" lon="6.07332">
        <ele>206.39999389648</ele>
        <time>2015-10-07T14:22:59Z</time>
      </trkpt>
      <trkpt lat="43.41385" lon="6.07321">
        <ele>206.80000305176</ele>
        <time>2015-10-07T14:23:02Z</time>
      </trkpt>
      <trkpt lat="43.41385" lon="6.07301">
        <ele>207</ele>
        <time>2015-10-07T14:23:05Z</time>
      </trkpt>
      <trkpt lat="43.41389" lon="6.07289">
        <ele>207</ele>
        <time>2015-10-07T14:23:07Z</time>
      </trkpt>
      <trkpt lat="43.41399" lon="6.0726">
        <ele>207.19999694824</ele>
        <time>2015-10-07T14:23:12Z</time>
      </trkpt>
      <trkpt lat="43.41406" lon="6.07238">
        <ele>207.19999694824</ele>
        <time>2015-10-07T14:23:16Z</time>
      </trkpt>
      <trkpt lat="43.41413" lon="6.07217">
        <ele>207.19999694824</ele>
        <time>2015-10-07T14:23:20Z</time>
      </trkpt>
      <trkpt lat="43.41416" lon="6.07206">
        <ele>207.60000610352</ele>
        <time>2015-10-07T14:23:22Z</time>
      </trkpt>
      <trkpt lat="43.41428" lon="6.07169">
        <ele>207.80000305176</ele>
        <time>2015-10-07T14:23:29Z</time>
      </trkpt>
      <trkpt lat="43.41435" lon="6.07148">
        <ele>207.39999389648</ele>
        <time>2015-10-07T14:23:33Z</time>
      </trkpt>
      <trkpt lat="43.41455" lon="6.07092">
        <ele>207.39999389648</ele>
        <time>2015-10-07T14:23:44Z</time>
      </trkpt>
      <trkpt lat="43.41459" lon="6.07081">
        <ele>207.80000305176</ele>
        <time>2015-10-07T14:23:46Z</time>
      </trkpt>
      <trkpt lat="43.41465" lon="6.07076">
        <ele>208.19999694824</ele>
        <time>2015-10-07T14:23:48Z</time>
      </trkpt>
      <trkpt lat="43.41473" lon="6.07075">
        <ele>208.19999694824</ele>
        <time>2015-10-07T14:23:50Z</time>
      </trkpt>
      <trkpt lat="43.41479" lon="6.07074">
        <ele>208.60000610352</ele>
        <time>2015-10-07T14:23:52Z</time>
      </trkpt>
      <trkpt lat="43.41496" lon="6.07082">
        <ele>209</ele>
        <time>2015-10-07T14:23:57Z</time>
      </trkpt>
      <trkpt lat="43.41514" lon="6.07083">
        <ele>209.19999694824</ele>
        <time>2015-10-07T14:24:02Z</time>
      </trkpt>
      <trkpt lat="43.41536" lon="6.07079">
        <ele>209.60000610352</ele>
        <time>2015-10-07T14:24:08Z</time>
      </trkpt>
      <trkpt lat="43.4154" lon="6.07081">
        <ele>209.60000610352</ele>
        <time>2015-10-07T14:24:09Z</time>
      </trkpt>
      <trkpt lat="43.41545" lon="6.07091">
        <ele>209.80000305176</ele>
        <time>2015-10-07T14:24:12Z</time>
      </trkpt>
      <trkpt lat="43.41547" lon="6.07113">
        <ele>210.39999389648</ele>
        <time>2015-10-07T14:24:17Z</time>
      </trkpt>
      <trkpt lat="43.4155" lon="6.0712">
        <ele>210.19999694824</ele>
        <time>2015-10-07T14:24:19Z</time>
      </trkpt>
      <trkpt lat="43.41553" lon="6.07122">
        <ele>210.39999389648</ele>
        <time>2015-10-07T14:24:20Z</time>
      </trkpt>
      <trkpt lat="43.41561" lon="6.07123">
        <ele>210.19999694824</ele>
        <time>2015-10-07T14:24:23Z</time>
      </trkpt>
      <trkpt lat="43.41563" lon="6.07123">
        <ele>210.19999694824</ele>
        <time>2015-10-07T14:24:24Z</time>
      </trkpt>
      <trkpt lat="43.41567" lon="6.0712">
        <ele>210.39999389648</ele>
        <time>2015-10-07T14:24:27Z</time>
      </trkpt>
      <trkpt lat="43.41569" lon="6.07119">
        <ele>210.80000305176</ele>
        <time>2015-10-07T14:24:28Z</time>
      </trkpt>
      <trkpt lat="43.41573" lon="6.07116">
        <ele>210.60000610352</ele>
        <time>2015-10-07T14:24:30Z</time>
      </trkpt>
      <trkpt lat="43.41582" lon="6.07105">
        <ele>210.60000610352</ele>
        <time>2015-10-07T14:24:35Z</time>
      </trkpt>
      <trkpt lat="43.41585" lon="6.071">
        <ele>210.60000610352</ele>
        <time>2015-10-07T14:24:37Z</time>
      </trkpt>
      <trkpt lat="43.41585" lon="6.07098">
        <ele>210.60000610352</ele>
        <time>2015-10-07T14:24:38Z</time>
      </trkpt>
      <trkpt lat="43.41585" lon="6.07089">
        <ele>210.39999389648</ele>
        <time>2015-10-07T14:24:41Z</time>
      </trkpt>
      <trkpt lat="43.41582" lon="6.07055">
        <ele>210.80000305176</ele>
        <time>2015-10-07T14:24:50Z</time>
      </trkpt>
      <trkpt lat="43.41581" lon="6.07042">
        <ele>210.60000610352</ele>
        <time>2015-10-07T14:24:55Z</time>
      </trkpt>
      <trkpt lat="43.41581" lon="6.07041">
        <ele>210.80000305176</ele>
        <time>2015-10-07T14:24:56Z</time>
      </trkpt>
      <trkpt lat="43.41581" lon="6.07041">
        <ele>210.60000610352</ele>
        <time>2015-10-07T14:25:07Z</time>
      </trkpt>
      <trkpt lat="43.41581" lon="6.07041">
        <ele>210.39999389648</ele>
        <time>2015-10-07T14:25:18Z</time>
      </trkpt>
      <trkpt lat="43.41581" lon="6.07041">
        <ele>211</ele>
        <time>2015-10-07T14:25:46Z</time>
      </trkpt>
    </trkseg>
  </trk>
</gpx>